[[{"header":{"parameterUnit":"m.s-1","parameterCategory":1,"la1":31.0,"la2":29.5877,"lo1":-88.7671,"lo2":-86.6584,"dy":0.0162,"dx":0.0185,"nx":115,"ny":88,"refTime":"2024-06-13T18:00:00:Z","depth":0,"parameterNumber":2,"parameterNumberName":"U-component_of_WINDS"},"data":[0.0,0.0,0.0,0.0,0.0,0.0,0.0,0.0,0.0,0.0,0.0,0.0,0.0,0.0,0.0,0.0,0.0,0.0,0.0,0.0,0.0,0.0,0.0,0.0,0.0,0.0,0.0,0.0,0.0,0.0,0.0,0.0,0.0,0.0,0.0,0.0,0.0,0.0,0.0,0.0,0.0,0.0,0.0,0.0,0.0,0.0,0.0,0.0,0.0,0.0,0.0,0.0,0.0,0.0,0.0,0.0,0.0,0.0,0.0,0.0,0.0,0.0,0.0,0.0,0.0,0.0,0.0,0.0,0.0,0.0,0.0,0.0,0.0,0.0,0.0,0.0,0.0,0.0,0.0,0.0,0.0,0.0,0.0,0.0,0.0,0.0,0.0,0.0,0.0,0.0,0.0,0.0,0.0,0.0,0.0,0.0,0.0,0.0,0.0,0.0,0.0,0.0,0.0,0.0,0.0,0.0,0.0,0.0,0.0,0.0,0.0,0.0,0.0,0.0,0.0,0.0,0.0,0.0,0.0,0.0,0.0,0.0,0.0,0.0,0.0,0.0,0.0,0.0,0.0,0.0,0.0,0.0,0.0,0.0,0.0,0.0,0.0,0.0,0.0,0.0,0.0,0.0,0.0,0.0,0.0,0.0,0.0,0.0,0.0,0.0,0.0,0.0,0.0,0.0,0.0,0.0,0.0,0.0,0.0,0.0,0.0,0.0,0.0,0.0,0.0,0.0,0.0,0.0,0.0,0.0,0.0,0.0,0.0,0.0,0.0,0.0,0.0,0.0,0.0,0.0,0.0,0.0,0.0,0.0,0.0,0.0,0.0,0.0,0.0,0.0,0.0,0.0,0.0,0.0,0.0,0.0,0.0,0.0,0.0,0.0,0.0,0.0,0.0,0.0,0.0,0.0,0.0,0.0,0.0,0.0,0.0,0.0,0.0,0.0,0.0,0.0,0.0,0.0,0.0,0.0,0.0,0.0,0.0,0.0,0.0,0.0,0.0,0.0,0.0,0.0,0.0,0.0,0.0,0.0,0.0,0.0,0.0,0.0,0.0,0.0,0.0,0.0,0.0,0.0,0.0,0.0,0.0,0.0,0.0,0.0,0.0,0.0,0.0,0.0,0.0,0.0,0.0,0.0,0.0,0.0,0.0,0.0,0.0,0.0,0.0,0.0,0.0,0.0,0.0,0.0,0.0,0.0,0.0,0.0,0.0,0.0,0.0,0.0,0.0,0.0,0.0,0.0,0.0,0.0,0.0,0.0,0.0,0.0,0.0,0.0,0.0,0.0,0.0,0.0,0.0,0.0,0.0,0.0,0.0,0.0,0.0,0.0,0.0,0.0,0.0,0.0,0.0,0.0,0.0,0.0,0.0,0.0,0.0,0.0,0.0,0.0,0.0,0.0,0.0,0.0,0.0,0.0,0.0,0.0,0.0,0.0,0.0,0.0,0.0,0.0,0.0,0.0,0.0,0.0,0.0,0.0,0.0,0.0,0.0,0.0,0.0,0.0,0.0,0.0,0.0,0.0,0.0,0.0,0.0,0.0,0.0,0.0,0.0,0.0,0.0,0.0,0.0,0.0,0.0,0.0,0.0,0.0,0.0,0.0,0.0,0.0,0.0,0.0,0.0,0.0,0.0,0.0,0.0,0.0,0.0,0.0,0.0,0.0,0.0,0.0,0.0,0.0,0.0,0.0,0.0,0.0,0.0,0.0,0.0,0.0,0.0,0.0,0.0,0.0,0.0,0.0,0.0,0.0,0.0,0.0,0.0,0.0,0.0,0.0,0.0,0.0,0.0,0.0,0.0,0.0,0.0,0.0,0.0,0.0,0.0,0.0,0.0,0.0,0.0,0.0,0.0,0.0,0.0,0.0,0.0,0.0,0.0,0.0,0.0,0.0,0.0,0.0,0.0,0.0,0.0,0.0,0.0,0.0,0.0,0.0,0.0,0.0,0.0,0.0,0.0,0.0,0.0,0.0,0.0,0.0,0.0,0.0,0.0,0.0,0.0,0.0,0.0,0.0,0.0,0.0,0.0,0.0,0.0,0.0,0.0,0.0,0.0,0.0,0.0,0.0,0.0,0.0,0.0,0.0,0.0,0.0,0.0,0.0,0.0,0.0,0.0,0.0,0.0,0.0,0.0,0.0,0.0,0.0,0.0,0.0,0.0,0.0,0.0,0.0,0.0,0.0,0.0,0.0,0.0,0.0,0.0,0.0,0.0,0.0,0.0,0.0,0.0,0.0,0.0,0.0,0.0,0.0,0.0,0.0,0.0,0.0,0.0,0.0,0.0,0.0,0.0,0.0,0.0,0.0,0.0,0.0,0.0,0.0,0.0,0.0,0.0,0.0,0.0,0.0,0.0,0.0,0.0,0.0,0.0,0.0,0.0,0.0,0.0,0.0,0.0,0.0,0.0,0.0,0.0,0.0,0.0,0.0,0.0,0.0,0.0,0.0,0.0,0.0,0.0,0.0,0.0,0.0,0.0,0.0,0.0,0.0,0.0,0.0,0.0,0.0,0.0,0.0,0.0,0.0,0.0,0.0,0.0,0.0,0.0,0.0,0.0,0.0,0.0,0.0,0.0,0.0,0.0,0.0,0.0,0.0,0.0,0.0,0.0,0.0,0.0,0.0,0.0,0.0,0.0,0.0,0.0,0.0,0.0,0.0,0.0,0.0,0.0,0.0,0.0,0.0,0.0,0.0,0.0,0.0,0.0,0.0,0.0,0.0,0.0,0.0,0.0,0.0,0.0,0.0,0.0,0.0,0.0,0.0,0.0,0.0,0.0,0.0,0.0,0.0,0.0,0.0,0.0,0.0,0.0,0.0,0.0,0.0,0.0,0.0,0.0,0.0,0.0,0.0,0.0,0.0,0.0,0.0,0.0,0.0,0.0,0.0,0.0,0.0,0.0,0.0,0.0,0.0,0.0,0.0,0.0,0.0,0.0,0.0,0.0,0.0,0.0,0.0,0.0,0.0,0.0,0.0,0.0,0.0,0.0,0.0,0.0,0.0,0.0,0.0,0.0,0.0,0.0,0.0,0.0,0.0,0.0,0.0,0.0,0.0,0.0,0.0,0.0,0.0,0.0,0.0,0.0,0.0,0.0,0.0,0.0,0.0,0.0,0.0,0.0,0.0,0.0,0.0,0.0,0.0,0.0,0.0,0.0,0.0,0.0,0.0,0.0,0.0,0.0,0.0,0.0,0.0,0.0,0.0,0.0,0.0,0.0,0.0,0.0,0.0,0.0,0.0,0.0,0.0,0.0,0.0,0.0,0.0,0.0,0.0,0.0,0.0,0.0,0.0,0.0,0.0,0.0,0.0,0.0,0.0,0.0,0.0,0.0,0.0,0.0,0.0,0.0,0.0,0.0,0.0,0.0,0.0,0.0,0.0,0.0,0.0,0.0,0.0,0.0,0.0,0.0,0.0,0.0,0.0,0.0,0.0,0.0,0.0,0.0,0.0,0.0,0.0,0.0,0.0,0.0,0.0,0.0,0.0,0.0,0.0,0.0,0.0,0.0,0.0,0.0,0.0,0.0,0.0,0.0,0.0,0.0,0.0,0.0,0.0,0.0,0.0,0.0,0.0,0.0,0.0,0.0,0.0,0.0,0.0,0.0,0.0,0.0,0.0,0.0,0.0,0.0,0.0,0.0,0.0,0.0,0.0,0.0,0.0,0.0,0.0,0.0,0.0,0.0,0.0,0.0,0.0,0.0,0.0,0.0,0.0,0.0,0.0,0.0,0.0,0.0,0.0,0.0,0.0,0.0,0.0,0.0,0.0,0.0,0.0,0.0,0.0,0.0,0.0,0.0,0.0,0.0,0.0,0.0,0.0,0.0,0.0,0.0,0.0,0.0,0.0,0.0,0.0,0.0,0.0,0.0,0.0,0.0,0.0,0.0,0.0,0.0,0.0,0.0,0.0,0.0,0.0,0.0,0.0,0.0,0.0,0.0,0.0,0.0,0.0,0.0,0.0,0.0,0.0,0.0,0.0,0.0,0.0,0.0,0.0,0.0,0.0,0.0,0.0,0.0,0.0,0.0,0.0,0.0,0.0,0.0,0.0,0.0,0.0,0.0,0.0,0.0,0.0,0.0,0.0,0.0,0.0,0.0,0.0,0.0,0.0,0.0,0.0,0.0,0.0,0.0,0.0,0.0,0.0,0.0,0.0,0.0,0.0,0.0,0.0,0.0,0.0,0.0,0.0,0.0,0.0,0.0,0.0,0.0,0.0,0.0,0.0,0.0,0.0,0.0,0.0,0.0,0.0,0.4676,0.0,0.0,0.0,0.0,0.0,0.0,0.0,0.0,0.0,0.0,0.0,0.0,0.0,0.0,0.0,0.0,0.0,0.0,0.0,0.0,0.0,0.0,0.0,0.0,0.0,0.0,0.0,0.0,0.0,0.0,0.0,0.0,0.0,0.0,0.0,0.0,0.0,0.0,0.0,0.0,0.0,0.0,0.0,0.0,0.0,0.0,0.0,0.0,0.0,0.0,0.0,0.0,0.0,0.0,0.0,0.0,0.0,0.0,0.0,0.0,0.0,0.0,0.0,0.0,0.0,0.0,0.0,0.0,0.0,0.0,0.0,0.0,0.0,0.0,0.0,0.0,0.0,0.0,0.0,0.0,0.0,0.0,0.0,0.0,0.0,0.0,0.0,0.0,0.0,0.0,0.0,0.0,0.0,0.0,0.0,0.0,0.0,0.0,0.0,0.0,0.0,0.0,0.0,0.0,0.0,0.0,0.0,0.0,0.0,0.0,0.3876,0.4267,0.4427,0.4481,0.444,0.0,0.0,0.0,0.0,0.0,0.0,0.0,0.0,0.0,0.0,0.0,0.0,0.0,0.0,0.0,0.0,0.0,0.0,0.0,0.0,0.0,0.0,0.0,0.0,0.0,0.0,0.0,0.0,0.0,0.0,0.0,0.0,0.0,0.0,0.0,0.0,0.0,0.0,0.0,0.0,0.0,0.0,0.0,0.0,0.0,0.0,0.0,0.0,0.0,0.0,0.0,0.0,0.0,0.0,0.0,0.0,0.0,0.0,0.0,0.0,0.0,0.0,0.0,0.0,0.0,0.0,0.0,0.0,0.0,0.0,0.0,0.0,0.0,0.0,0.0,0.0,0.0,0.0,0.0,0.0,0.0,0.0,0.0,0.0,0.0,0.0,0.0,0.0,0.0,0.0,0.0,0.0,0.0,0.0,0.0,0.0,0.0,0.0,0.0,0.0,0.0,0.0,0.0,0.0,0.0,0.0,0.0,0.0,0.0,0.0,0.0,0.0,0.463,0.4631,0.4471,0.0,0.0,0.0,0.0,0.0,0.0,0.0,0.0,0.0,0.0,0.0,0.0,0.0,0.0,0.0,0.0,0.0,0.0,0.0,0.0,0.0,0.0,0.0,0.0,0.0,0.0,0.0,0.0,0.0,0.0,0.0,0.0,0.0,0.0,0.0,0.0,0.0,0.0,0.0,0.0,0.0,0.0,0.0,0.0,0.0,0.0,0.0,0.0,0.0,0.0,0.0,0.0,0.0,0.0,0.0,0.0,0.0,0.0,0.0,0.0,0.0,0.0,0.0,0.0,0.0,0.0,0.0,0.0,0.0,0.0,0.0,0.0,0.0,0.0,0.0,0.0,0.0,0.0,0.0,0.0,0.0,0.0,0.0,0.0,0.0,0.0,0.0,0.0,0.0,0.0,0.0,0.0,0.0,0.0,0.0,0.0,0.0,0.0,0.0,0.0,0.0,0.0,0.0,0.0,0.0,0.0,0.0,0.0,0.0,0.0,0.4371,0.5345,0.534,0.0,0.528,0.0,0.0,0.0,0.0,0.0,0.0,0.0,0.0,0.0,0.0,0.0,0.0,0.0,0.0,0.0,0.0,0.0,0.0,0.0,0.0,0.0,0.0,0.0,0.0,0.0,0.0,0.0,0.0,0.0,0.0,0.0,0.0,0.0,0.0,0.0,0.0,0.0,0.0,0.0,0.0,0.0,0.0,0.0,0.0,0.0,0.0,0.0,0.0,0.0,0.0,0.0,0.0,0.0,0.0,0.0,0.0,0.0,0.0,0.0,0.0,0.0,0.0,0.0,0.0,0.0,0.0,0.0,0.0,0.0,0.0,0.0,0.0,0.0,0.0,0.0,0.0,0.0,0.0,0.0,0.0,0.0,0.0,0.0,0.0,0.0,0.0,0.0,0.0,0.0,0.0,0.0,0.0,0.0,0.0,0.0,0.0,0.0,0.0,0.0,0.0,0.0,0.0,0.0,0.0,0.0,0.0,0.0,0.0,0.0,0.0,0.0,0.5623,0.5482,0.5379,0.0,0.0,0.0,0.0,0.0,0.0,0.0,0.0,0.0,0.0,0.0,0.0,0.0,0.0,0.0,0.0,0.0,0.0,0.0,0.0,0.0,0.0,0.0,0.0,0.0,0.0,0.0,0.0,0.0,0.0,0.0,0.0,0.0,0.0,0.0,0.0,0.0,0.0,0.0,0.0,0.0,0.0,0.0,0.0,0.0,0.0,0.0,0.0,0.0,0.0,0.0,0.0,0.0,0.0,0.0,0.0,0.0,0.0,0.0,0.0,0.0,0.0,0.0,0.0,0.0,0.0,0.0,0.0,0.0,0.0,0.0,0.0,0.0,0.0,0.0,0.0,0.0,0.0,0.0,0.0,0.0,0.0,0.0,0.0,0.0,0.0,0.0,0.0,0.0,0.0,0.0,0.0,0.0,0.0,0.0,0.0,0.0,0.0,0.0,0.0,0.0,0.0,0.0,0.0,0.0,0.0,0.0,0.0,0.0,0.0,0.5488,0.0,0.5998,0.5577,0.5374,0.5432,0.0,0.0,0.0,0.0,0.0,0.0,0.0,0.0,0.0,0.0,0.0,0.0,0.0,0.0,0.0,0.0,0.0,0.0,0.0,0.0,0.0,0.0,0.0,0.0,0.0,0.0,0.0,0.0,0.0,0.0,0.0,0.0,0.0,0.0,0.0,0.0,0.0,0.0,0.0,0.0,0.0,0.0,0.0,0.0,0.0,0.0,0.0,0.0,0.0,0.0,0.0,0.0,0.0,0.0,0.0,0.0,0.0,0.0,0.0,0.0,0.0,0.0,0.0,0.0,0.0,0.0,0.0,0.0,0.0,0.0,0.0,0.0,0.0,0.0,0.0,0.0,0.0,0.0,0.0,0.0,0.0,0.0,0.0,0.0,0.0,0.0,0.0,0.0,0.0,0.0,0.0,0.0,0.0,0.0,0.0,0.0,0.0,0.0,0.0,0.0,0.0,0.0,0.0,0.0,0.0,0.0,0.0,0.0,0.0,0.6088,0.6446,0.6787,0.5782,0.5376,0.0,0.0,0.0,0.0,0.0,0.0,0.0,0.0,0.0,0.0,0.0,0.0,0.0,0.0,0.0,0.0,0.0,0.0,0.0,0.0,0.0,0.0,0.0,0.0,0.0,0.0,0.0,0.0,0.0,0.0,0.0,0.0,0.0,0.0,0.0,0.0,0.0,0.0,0.0,0.0,0.0,0.0,0.0,0.0,0.0,0.0,0.0,0.0,0.0,0.0,0.0,0.0,0.0,0.0,0.0,0.0,0.0,0.0,0.0,0.0,0.0,0.0,0.0,0.0,0.0,0.0,0.0,0.0,0.0,0.0,0.0,0.0,0.0,0.0,0.0,0.0,0.0,0.0,0.0,0.0,0.0,0.0,0.0,0.0,0.0,0.0,0.0,0.0,0.0,0.0,0.0,0.0,0.0,0.0,0.0,0.0,0.0,0.0,0.0,0.0,0.0,0.0,0.0,0.0,0.0,0.0,0.0,0.0,0.0,0.3759,0.5374,0.6476,0.6786,0.602,0.5676,0.0,0.0,0.0,0.0,0.0,0.0,0.0,0.0,0.0,0.0,0.0,0.0,0.0,0.0,0.0,0.0,0.0,0.0,0.0,0.0,0.0,0.0,0.0,0.0,0.0,0.0,0.0,0.0,0.0,0.0,0.0,0.0,0.0,0.0,0.0,0.0,0.0,0.0,0.0,0.0,0.0,0.0,0.0,0.0,0.0,0.0,0.0,0.0,0.0,0.0,0.0,0.0,0.0,0.0,0.0,0.0,0.0,0.0,0.0,0.0,0.0,0.0,0.0,0.0,0.0,0.0,0.0,0.0,0.0,0.0,0.0,0.0,0.0,0.0,0.0,0.0,0.0,0.0,0.0,0.0,0.0,0.0,0.0,0.0,0.0,0.0,0.0,0.0,0.0,0.0,0.0,0.0,0.0,0.0,0.0,0.0,0.0,0.0,0.0,0.0,0.0,0.0,0.0,0.0,0.0,0.0,0.0,0.0,0.0,0.372,0.0,0.6337,0.0,0.5744,0.5129,0.0,0.0,0.0,0.0,0.0,0.0,0.0,0.0,0.0,0.0,0.0,0.0,0.0,0.0,0.0,0.0,0.0,0.0,0.0,0.0,0.0,0.0,0.0,0.0,0.0,0.0,0.0,0.0,0.0,0.0,0.0,0.0,0.0,0.0,0.0,0.0,0.0,0.0,0.0,0.0,0.0,0.0,0.0,0.0,0.0,0.0,0.0,0.0,0.0,0.0,0.0,0.0,0.0,0.0,0.0,0.0,0.0,0.0,0.0,0.0,0.0,0.0,0.0,0.0,0.0,0.0,0.0,0.0,0.0,0.0,0.0,0.0,0.0,0.0,0.0,0.0,0.0,0.0,0.0,0.0,0.0,0.0,0.0,0.0,0.0,0.0,0.0,0.0,0.0,0.0,0.0,0.0,0.0,0.0,0.0,0.0,0.0,0.0,0.0,0.0,0.0,0.0,0.0,0.0,0.0,0.0,0.0,0.0,0.4068,0.6112,0.609,0.6004,0.5897,0.4975,0.377,0.0,0.0,0.0,0.0,0.0,0.0,0.0,0.0,0.0,0.0,0.0,0.0,0.0,0.0,0.0,0.0,0.0,0.0,0.0,0.0,0.0,0.0,0.0,0.0,0.0,0.0,0.0,0.0,0.0,0.0,0.0,0.0,0.0,0.0,0.0,0.0,0.0,0.0,0.0,0.0,0.0,0.0,0.0,0.0,0.0,0.0,0.0,0.0,0.0,0.0,0.0,0.0,0.0,0.0,0.0,0.0,0.0,0.0,0.0,0.0,0.0,0.0,0.0,0.0,0.0,0.0,0.0,0.0,0.0,0.0,0.0,0.0,0.0,0.0,0.0,0.0,0.0,0.0,0.0,0.0,0.0,0.0,0.0,0.0,0.0,0.0,0.0,0.0,0.0,0.0,0.0,0.0,0.0,0.0,0.0,0.0,0.0,0.0,0.0,0.0,0.0,0.0,0.0,0.0,0.0,0.0,0.0,0.0,0.0,0.5041,0.5063,0.5373,0.5965,0.5055,0.4275,0.0,0.0,0.0,0.0,0.0,0.0,0.0,0.0,0.0,0.0,0.0,0.0,0.0,0.0,0.0,0.0,0.0,0.0,0.0,0.0,0.0,0.0,0.0,0.0,0.0,0.0,0.0,0.0,0.0,0.0,0.0,0.0,0.0,0.0,0.0,0.0,0.0,0.0,0.0,0.0,0.0,0.0,0.0,0.0,0.0,0.0,0.0,0.0,0.0,0.0,0.0,0.0,0.0,0.0,0.0,0.0,0.0,0.0,0.0,0.0,0.0,0.0,0.0,0.0,0.0,0.0,0.0,0.0,0.0,0.0,0.0,0.0,0.0,0.0,0.0,0.0,0.0,0.0,0.0,0.0,0.0,0.0,0.0,0.0,0.0,0.0,0.0,0.0,0.0,0.0,0.0,0.0,0.0,0.0,0.0,0.0,0.0,0.0,0.0,0.0,0.0,0.0,0.0,0.0,0.0,0.0,0.0,0.0,0.0,0.5807,0.6074,0.6212,0.6255,0.5658,0.5055,0.4397,0.0,0.0,0.0,0.0,0.0,0.0,0.0,0.0,0.0,0.0,0.0,0.0,0.0,0.0,0.0,0.0,0.0,0.0,0.0,0.0,0.0,0.0,0.0,0.0,0.0,0.0,0.0,0.0,0.0,0.0,0.0,0.0,0.0,0.0,0.0,0.0,0.0,0.0,0.0,0.0,0.0,0.0,0.0,0.0,0.0,0.0,0.0,0.0,0.0,0.0,0.0,0.0,0.0,0.0,0.0,0.0,0.0,0.0,0.0,0.0,0.0,0.0,0.0,0.0,0.0,0.0,0.0,0.0,0.0,0.0,0.0,0.0,0.0,0.0,0.0,0.0,0.0,0.0,0.0,0.0,0.0,0.0,0.0,0.0,0.0,0.0,0.0,0.0,0.0,0.0,0.0,0.0,0.0,0.0,0.0,0.0,0.0,0.0,0.0,0.0,0.0,0.0,0.0,0.0,0.0,0.0,0.0,0.0,0.8097,0.8744,0.8326,0.6854,0.6647,0.5939,0.0,0.0,0.0,0.0,0.0,0.0,0.0,0.0,0.0,0.0,0.0,0.0,0.0,0.0,0.0,0.0,0.0,0.0,0.0,0.0,0.0,0.0,0.0,0.0,0.0,0.0,0.0,0.0,0.0,0.0,0.0,0.0,0.0,0.0,0.0,0.0,0.0,0.0,0.0,0.0,0.0,0.0,0.0,0.0,0.0,0.0,0.0,0.0,0.0,0.0,0.0,0.0,0.0,0.0,0.0,0.0,0.0,0.0,0.0,0.0,0.0,0.0,0.0,0.0,0.0,0.0,0.0,0.0,0.0,0.0,0.0,0.0,0.0,0.0,0.0,0.0,0.0,0.0,0.0,0.0,0.0,0.0,0.0,0.0,0.0,0.0,0.0,0.0,0.0,0.0,0.0,0.0,0.0,0.0,0.0,0.0,0.0,0.0,0.0,0.0,0.0,0.0,0.0,0.0,0.0,0.0,0.0,0.0,0.0,0.8453,1.0163,1.0636,0.974,0.7559,0.6416,0.0,0.0,0.0,0.0,0.0,0.0,0.0,0.0,0.0,0.0,0.0,0.0,0.0,0.0,0.0,0.0,0.0,0.0,0.0,0.0,0.0,0.0,0.0,0.0,0.0,0.0,0.0,0.0,0.0,0.0,0.0,0.0,0.0,0.0,0.0,0.0,0.0,0.0,0.0,0.0,0.0,0.0,0.0,0.0,0.0,0.0,0.0,0.0,0.0,0.0,0.0,0.0,0.0,0.0,0.0,0.0,0.0,0.0,0.0,0.0,0.0,0.0,0.0,0.0,0.0,0.0,0.0,0.0,0.0,0.0,0.0,0.0,0.0,0.0,0.0,0.0,0.0,0.0,0.0,0.0,0.0,0.0,0.0,0.0,0.0,0.0,0.0,0.0,0.0,0.0,0.0,0.0,0.0,0.0,0.0,0.0,0.0,0.0,0.0,0.0,0.0,0.0,0.0,0.0,0.0,0.0,0.0,0.0,0.6082,0.8979,1.0678,1.16,1.1682,0.9013,0.7273,0.0,0.0,0.0,0.0,0.0,0.0,0.0,0.0,0.0,0.0,0.0,0.0,0.0,0.0,0.0,0.0,0.0,0.0,0.0,0.0,0.0,0.0,0.0,0.0,0.0,0.0,0.0,0.0,0.0,0.0,0.0,0.0,0.0,0.0,0.0,0.0,0.0,0.0,0.0,0.0,0.0,0.0,0.0,0.0,0.0,0.0,0.0,0.0,0.0,0.0,0.0,0.0,0.0,0.0,0.0,0.0,0.0,0.0,0.0,0.0,0.0,0.0,0.0,0.0,0.0,0.0,0.0,0.0,0.0,0.0,0.0,0.0,0.0,0.0,0.0,0.0,0.0,0.0,0.0,0.0,0.0,0.0,0.0,0.0,0.0,0.0,0.0,0.0,0.0,0.0,0.0,0.0,0.0,0.0,0.0,0.0,0.0,0.0,0.0,0.0,0.0,0.0,0.0,0.0,0.0,0.0,0.0,0.0,0.7005,0.9452,1.0605,1.168,1.2626,1.0484,0.8304,0.0,0.0,0.0,0.0,0.0,0.0,0.0,0.0,0.0,0.0,0.0,0.0,0.0,0.0,0.0,0.0,0.0,0.0,0.0,0.0,0.0,0.0,0.0,0.0,0.0,0.0,0.0,0.0,0.0,0.0,0.0,0.0,0.0,0.0,0.0,0.0,0.0,0.0,0.0,0.0,0.0,0.0,0.0,0.0,0.0,0.0,0.0,0.0,0.0,0.0,0.0,0.0,0.0,0.0,0.0,0.0,0.0,0.0,0.0,0.0,0.0,0.0,0.0,0.0,0.0,0.0,0.0,0.0,0.0,0.0,0.0,0.0,0.0,0.0,0.0,0.0,0.0,0.0,0.0,0.0,0.0,0.0,0.0,0.0,0.0,0.0,0.0,0.0,0.0,0.0,0.0,0.0,0.0,0.0,0.0,0.0,0.0,0.0,0.0,0.0,0.0,0.0,0.0,0.0,0.0,0.0,0.0,0.0,0.7464,0.9609,1.0669,1.1579,1.2376,1.0234,0.853,0.0,0.0,0.0,0.0,0.0,0.0,0.0,0.0,0.0,0.0,0.0,0.0,0.0,0.0,0.0,0.0,0.0,0.0,0.0,0.0,0.0,0.0,0.0,0.0,0.0,0.0,0.0,0.0,0.0,0.0,0.0,0.0,0.0,0.0,0.0,0.0,0.0,0.0,0.0,0.0,0.0,0.0,0.0,0.0,0.0,0.0,0.0,0.0,0.2509,0.0,0.0,0.0,0.0,0.0,0.0,0.0,0.0,0.0,0.0,0.0,0.0,0.0,0.0,0.0,0.0,0.0,0.0,0.0,0.0,0.0,0.0,0.0,0.0,0.0,0.0,0.0,0.0,0.0,0.0,0.0,0.0,0.0,0.0,0.0,0.0,0.0,0.0,0.0,0.0,0.0,0.0,0.0,0.0,0.0,0.0,0.0,0.0,0.0,0.0,0.0,0.0,0.0,0.0,0.0,0.0,0.0,0.0,0.0,0.7682,1.0043,1.0747,1.1461,1.2178,1.0718,0.9162,0.0,0.0,0.0,0.0,0.0,0.0,0.0,0.0,0.0,0.0,0.0,0.0,0.0,0.0,0.0,0.0,0.0,0.0,0.0,0.0,0.0,0.0,0.0,0.0,0.0,0.0,0.0,0.0,0.0,0.0,0.0,0.0,0.0,0.0,0.0,0.0,0.0,0.0,0.0,0.0,0.0,0.0,0.0,0.0,0.0,0.0,0.0,0.0,0.0,0.0,0.0,0.0,0.0,0.0,0.0,0.0,0.0,0.0,0.0,0.0,0.0,0.0,0.0,0.0,0.0,0.0,0.0,0.0,0.0,0.0,0.0,0.0,0.0,0.0,0.0,0.0,0.0,0.0,0.0,0.0,0.0,0.0,0.0,0.0,0.0,0.0,0.0,0.0,0.0,0.0,0.0,0.0,0.0,0.0,0.0,0.0,0.0,0.0,0.0,0.0,0.0,0.0,0.0,0.0,0.0,0.0,0.0,0.6163,0.7738,1.0365,1.0705,1.1221,1.204,1.1205,0.978,0.7775,0.0,0.0,0.0,0.0,0.0,0.0,0.0,0.0,0.0,0.0,0.0,0.0,0.0,0.0,0.0,0.0,0.0,0.0,0.0,0.0,0.0,0.0,0.0,0.0,0.0,0.0,0.0,0.0,0.0,0.0,0.0,0.0,0.0,0.0,0.0,0.0,0.0,0.0,0.3103,0.3531,0.0,0.0,0.0,0.0,0.0,0.0,0.0,0.0,0.5498,0.0,0.0,0.0,0.0,0.0,0.0,0.0,0.0,0.0,0.0,0.0,0.0,0.0,0.0,0.0,0.0,0.0,0.0,0.0,0.0,0.0,0.0,0.0,0.0,0.0,0.0,0.0,0.0,0.0,0.0,0.0,0.0,0.0,0.0,0.0,0.0,0.0,0.0,0.0,0.0,0.0,0.0,0.0,0.0,0.0,0.0,0.0,0.0,0.0,0.0,0.0,0.0,0.0,0.0,0.0,0.0,0.623,0.6352,0.7578,0.9951,1.0342,1.0677,1.1079,1.0698,0.9564,0.7728,0.0,0.0,0.0,0.0,0.0,0.0,0.0,0.0,0.0,0.0,0.0,0.0,0.0,0.0,0.0,0.0,0.0,0.0,0.0,0.0,0.0,0.0,0.0,0.0,0.0,0.0,0.0,0.0,0.0,0.0,0.0,0.0,0.0,0.0,0.0,0.0,0.0,0.0,0.0,0.4585,0.475,0.0,0.0,0.0,0.0,0.0,0.0,0.0,0.0,0.6136,0.0,0.0,0.0,0.0,0.0,0.0,0.0,0.0,0.0,0.0,0.0,0.0,0.0,0.0,0.0,0.0,0.0,0.0,0.0,0.0,0.0,0.0,0.0,0.0,0.0,0.0,0.0,0.0,0.0,0.0,0.0,0.0,0.0,0.0,0.0,0.0,0.0,0.0,0.0,0.0,0.0,0.0,0.0,0.0,0.0,0.0,0.0,0.0,0.0,0.0,0.0,0.0,0.0,0.0,0.0,0.6199,0.6596,0.7787,0.9818,1.0235,1.0556,1.0883,1.0243,0.9169,0.0,0.0,0.0,0.0,0.0,0.0,0.0,0.0,0.0,0.0,0.0,0.0,0.0,0.0,0.0,0.0,0.0,0.0,0.0,0.0,0.0,0.0,0.0,0.0,0.0,0.0,0.0,0.0,0.0,0.0,0.0,0.0,0.0,0.0,0.0,0.0,0.0,0.0,0.0,0.0,0.5312,0.5825,0.5819,0.0,0.0,0.0,0.0,0.0,0.0,0.6693,0.7298,0.0,0.0,0.0,0.0,0.0,0.0,0.0,0.0,0.0,0.0,0.0,0.0,0.0,0.0,0.0,0.0,0.0,0.0,0.0,0.0,0.0,0.0,0.0,0.0,0.0,0.0,0.0,0.0,0.0,0.0,0.0,0.0,0.0,0.0,0.0,0.0,0.0,0.0,0.0,0.0,0.0,0.0,0.0,0.0,0.0,0.0,0.0,0.0,0.0,0.0,0.0,0.0,0.0,0.0,0.0,0.6153,0.6786,0.8014,0.9811,1.016,1.0483,1.0876,0.9877,0.8809,0.0,0.0,0.0,0.0,0.0,0.0,0.0,0.0,0.0,0.0,0.0,0.0,0.0,0.0,0.0,0.0,0.0,0.0,0.0,0.0,0.0,0.0,0.0,0.0,0.0,0.0,0.0,0.0,0.0,0.0,0.0,0.0,0.0,0.0,0.0,0.0,0.0,0.0,0.0,0.0,0.0,0.7019,0.7238,0.6307,0.0,0.0,0.0,0.0,0.5858,0.7903,0.0,0.0,0.0,0.0,0.0,0.0,0.0,0.0,0.0,0.0,0.0,0.0,0.0,0.0,0.0,0.0,0.0,0.0,0.0,0.0,0.0,0.0,0.0,0.0,0.0,0.0,0.0,0.0,0.0,0.0,0.0,0.0,0.0,0.0,0.0,0.0,0.0,0.0,0.0,0.0,0.0,0.0,0.0,0.0,0.0,0.0,0.0,0.0,0.0,0.0,0.0,0.0,0.0,0.0,0.0,0.0,0.6171,0.6811,0.8007,0.9773,0.9951,1.0261,1.0859,0.9819,0.871,0.0,0.0,0.0,0.0,0.0,0.0,0.0,0.0,0.0,0.0,0.0,0.0,0.0,0.0,0.0,0.0,0.0,0.0,0.0,0.0,0.0,0.0,0.0,0.0,0.0,0.0,0.0,0.0,0.0,0.0,0.0,0.0,0.0,0.0,0.0,0.0,0.0,0.0,0.0,0.0,0.0,0.8441,0.9385,0.8383,0.6967,0.0,0.0,0.348,0.5853,0.6644,0.0,0.0,0.0,0.0,0.0,0.0,0.0,0.0,0.0,0.0,0.0,0.0,0.0,0.0,0.0,0.0,0.0,0.0,0.0,0.0,0.0,0.0,0.0,0.0,0.0,0.0,0.0,0.0,0.0,0.0,0.0,0.0,0.0,0.0,0.0,0.0,0.0,0.0,0.0,0.0,0.0,0.0,0.0,0.0,0.0,0.0,0.0,0.0,0.0,0.0,0.0,0.0,0.0,0.0,0.0,0.4932,0.6177,0.7079,0.8319,0.9811,0.9873,1.023,1.088,0.9311,0.8189,0.0,0.0,0.0,0.0,0.0,0.0,0.0,0.0,0.0,0.0,0.0,0.0,0.0,0.0,0.0,0.0,0.0,0.0,0.0,0.0,0.0,0.0,0.0,0.0,0.0,0.0,0.0,0.0,0.0,0.0,0.0,0.0,0.0,0.0,0.0,0.0,0.0,0.0,0.0,0.0,0.0,0.0,0.9629,0.8894,0.0,0.0,0.0,0.4239,0.7756,0.0,0.0,0.0,0.0,0.0,0.0,0.0,0.0,0.0,0.0,0.0,0.0,0.0,0.0,0.0,0.0,0.0,0.0,0.0,0.0,0.0,0.0,0.0,0.0,0.0,0.0,0.0,0.0,0.0,0.0,0.0,0.0,0.0,0.0,0.0,0.0,0.0,0.0,0.0,0.0,0.0,0.0,0.0,0.0,0.0,0.0,0.0,0.0,0.0,0.0,0.0,0.0,0.0,0.0,0.0,0.0,0.0,0.6201,0.7327,0.8551,0.9836,0.9873,1.0179,1.0712,0.9228,0.0,0.0,0.0,0.0,0.0,0.0,0.0,0.0,0.0,0.0,0.0,0.0,0.0,0.0,0.0,0.0,0.0,0.0,0.0,0.0,0.0,0.0,0.0,0.0,0.0,0.0,0.0,0.0525,0.0,0.0,0.0,0.0,0.0,0.0,0.0,0.0,0.0,0.0,0.0,0.0,0.0,0.0,0.7485,0.9175,0.9467,0.9435,0.0,0.0,0.6111,0.9384,1.037,1.027,0.0,0.0,0.0,0.0,0.0,0.0,0.0,0.0,0.0,0.0,0.0,0.0,0.0,0.0,0.0,0.0,0.0,0.0,0.0,0.0,0.0,0.0,0.0,0.0,0.0,0.0,0.0,0.0,0.0,0.0,0.0,0.0,0.0,0.0,0.0,0.0,0.0,0.0,0.0,0.0,0.0,0.0,0.0,0.0,0.0,0.0,0.0,0.0,0.0,0.0,0.0,0.0,0.0,0.0,0.0,0.6206,0.7327,0.8551,0.9823,0.9873,1.0065,1.0421,0.9981,0.8968,0.0,0.0,0.0,0.0,0.0,0.0,0.0,0.0,0.0,0.0,0.0,0.0,0.0,0.0,0.0,0.0,0.0,0.0,0.0,0.0,0.0,0.0,0.0,0.0,0.0,0.0,0.0,0.0,0.0,0.0,0.0,0.0,0.0,0.0,0.0,0.0,0.0,0.0,0.0,0.0,0.0,0.8765,0.8139,1.0817,1.249,0.0,0.0,0.9579,0.9849,1.1614,1.2253,1.0138,0.0,0.0,0.0,0.0,0.0,0.0,0.0,0.0,0.0,0.0,0.0,0.0,0.0,0.0,0.0,0.0,0.0,0.0,0.0,0.0,0.0,0.0,0.0,0.0,0.0,0.0,0.0,0.0,0.0,0.0,0.0,0.0,0.0,0.0,0.0,0.0,0.0,0.0,0.0,0.0,0.0,0.0,0.0,0.0,0.0,0.0,0.0,0.0,0.0,0.0,0.0,0.0,0.0,0.5017,0.5884,0.7365,0.8616,0.9532,0.9796,1.0065,1.0403,0.9646,0.8585,0.0,0.0,0.0,0.0,0.0,0.0,0.0,0.0,0.0,0.0,0.0,0.0,0.0,0.0,0.0,0.0,0.0,0.0,0.0,0.0,0.0,0.0,0.0,0.0,0.0,0.0,0.0,0.0,0.6436,0.6838,0.6188,0.0,0.0,0.0,0.0,0.0,0.0,0.0,0.0,0.0,0.0,0.8404,0.9059,1.1477,0.0,0.0,1.1795,1.1713,1.1042,1.1073,1.0856,1.0037,0.7917,0.0,0.0,0.0,0.0,0.0,0.0,0.0,0.0,0.0,0.0,0.0,0.0,0.0,0.0,0.0,0.0,0.0,0.0,0.0,0.0,0.0,0.0,0.0,0.0,0.0,0.0,0.0,0.0,0.0,0.0,0.0,0.0,0.0,0.0,0.0,0.0,0.0,0.0,0.0,0.0,0.0,0.0,0.0,0.0,0.0,0.0,0.0,0.0,0.0,0.0,0.0,0.0,0.5375,0.5841,0.7605,0.8865,0.9549,0.9764,0.9995,1.0216,0.9529,0.8602,0.0,0.0,0.0,0.0,0.0,0.0,0.0,0.0,0.0,0.0,0.0,0.0,0.0,0.0,0.0,0.0,0.0,0.0,0.0,0.0,0.0,0.0,0.0,0.0,0.0,0.0,0.0,0.0,0.4914,0.5331,0.4557,0.0,0.0,0.0,0.0,0.0,0.0,0.0,0.0,0.0,0.0,0.8776,0.9784,1.1777,1.2803,1.1751,1.2517,1.2922,1.2197,1.0853,0.9686,0.9027,0.0,0.0,0.0,0.0,0.0,0.0,0.0,0.0,0.0,0.0,0.0,0.0,0.0,0.0,0.0,0.0,0.0,0.0,0.0,0.0,0.0,0.0,0.0,0.0,0.0,0.0,0.0,0.0,0.0,0.0,0.0,0.0,0.0,0.0,0.0,0.0,0.0,0.0,0.0,0.0,0.0,0.0,0.0,0.0,0.0,0.0,0.0,0.0,0.0,0.0,0.0,0.0,0.0,0.6277,0.6224,0.8085,0.9328,0.9855,0.9873,0.9912,0.9932,0.9874,0.924,0.7919,0.0,0.0,0.0,0.0,0.0,0.0,0.0,0.0,0.0,0.0,0.0,0.0,0.0,0.0,0.0,0.0,0.0,0.0,0.0,0.0,0.0,0.0,0.0,0.0,0.0,0.0,0.4129,0.361,0.3439,0.0,0.0,0.0,0.0,0.0,0.0,0.0,0.0,0.0,0.0,0.8864,1.0284,1.001,1.1783,1.2745,1.1751,1.2498,1.3148,1.3098,1.1324,0.9165,0.0,0.0,0.0,0.0,0.0,0.0,0.0,0.0,0.0,0.0,0.0,0.0,0.0,0.0,0.0,0.0,0.0,0.0,0.0,0.0,0.0,0.0,0.0,0.0,0.0,0.0,0.0,0.4677,0.2586,0.0,0.0,0.0,0.0,0.0,0.0,0.0,0.0,0.0,0.0,0.0,0.8054,0.7826,0.0,0.0,0.0,0.0,0.0,0.0,0.0,0.0,0.0,0.0,0.0,0.0,0.626,0.6108,0.8035,0.9237,0.9569,0.9796,0.9995,1.0235,0.9884,0.9077,0.7741,0.0,0.0,0.0,0.0,0.0,0.0,0.0,0.0,0.0,0.0,0.0,0.0,0.0,0.0,0.0,0.0,0.0,0.0,0.0,0.0,0.0,0.0,0.0,0.0,0.0,0.4884,0.0,0.0,0.0,0.0,0.0,0.0,0.0,0.0,0.0,0.0,0.0,0.8706,0.9786,1.0019,1.0581,1.1908,1.1472,1.113,0.0,0.0,0.0,0.0,0.0,0.0,0.0,0.0,0.0,0.0,0.0,0.0,0.0,0.0,1.2281,0.7911,0.82,0.8101,0.4742,0.0,0.0,0.0,0.0,0.0,0.0,0.0,0.0,0.0,0.0,0.0,0.0,0.0,0.0,0.6678,0.0,0.4099,0.0,0.0,0.0,0.0,0.0,0.0,0.0,0.0,0.8331,0.9142,1.0025,0.9817,0.9638,0.0,0.9046,0.7849,0.0,0.0,0.0,0.0,0.0,0.0,0.0,0.0,0.6296,0.6187,0.8264,0.9442,0.9569,0.979,1.0072,1.0365,0.9837,0.9187,0.8435,0.73,0.6475,0.0,0.0,0.0,0.0,0.0,0.0,0.0,0.0,0.0,0.0,0.0,0.0,0.0,0.0,0.0,0.0,0.0,0.0,0.0,0.0,0.0,0.0,0.0,0.3985,0.0,0.0,0.0,0.0,0.0,0.0,0.0,0.0,0.0,0.545,0.7828,1.0119,1.1927,1.1205,1.0878,1.1902,0.0,0.0,0.0,0.0,0.0,0.0,0.0,0.9873,0.9873,1.2467,1.4775,1.5664,1.2186,1.0376,1.387,0.0,0.0,1.1224,1.1869,1.1629,0.7916,1.1003,1.4325,1.4528,1.178,0.918,0.0,0.0,0.0,0.0,0.0,0.0,0.0,0.0,0.6911,0.732,0.0,0.7006,0.0,0.0,0.0,0.0,0.0,0.7745,0.0,0.0,1.1789,1.2746,1.215,1.2554,1.2043,1.0669,1.0591,1.0313,0.9665,0.6953,0.0,0.0,0.0,0.0,0.0,0.0,0.6455,0.6535,0.8726,0.9893,0.9899,0.9925,1.0104,1.0432,0.9779,0.9577,0.9797,0.7975,0.7219,0.7772,0.5394,0.0,0.0,0.0,0.0,0.0,0.0,0.0,0.0,0.0,0.0,0.0,0.0,0.0,0.0,0.0,0.0,0.0,0.0,0.0,0.0,0.3822,0.0,0.0,0.0,0.0,0.0,0.0,0.0,0.0,0.0,0.0,0.9309,1.0841,1.1996,1.291,0.0,0.0,0.0,0.0,1.0681,1.2935,1.3217,1.2428,1.0395,1.005,1.0095,1.0294,0.0,0.0,1.5702,1.3608,1.274,1.5311,1.5799,1.5599,1.4711,1.4474,1.4273,1.3478,1.4989,1.6625,1.6614,1.5112,1.3669,0.5395,0.0,0.0,0.0,0.0,0.5694,0.6778,0.8369,0.8357,0.8981,0.9966,0.8608,0.0,0.0,0.0,0.0,0.0,0.0,0.9115,1.1146,1.1608,1.2568,1.3973,1.3678,1.345,1.3322,1.2686,1.2388,1.2416,1.1243,0.8832,0.5325,0.0,0.0,0.0,0.0,0.7265,0.7804,0.9172,1.0021,1.0235,1.026,1.0519,1.1036,1.0211,0.981,0.9882,0.8416,0.7473,0.7204,0.6905,0.0,0.0,0.0,0.0,0.0,0.0,0.0,0.0,0.0,0.0,0.0,0.0,0.0,0.0,0.0,0.0,0.0,0.0,0.0,0.5411,0.6149,0.626,0.0,0.0,0.0,0.0,0.0,0.0,0.0,0.0,0.0,0.9372,1.1545,1.2259,0.0,0.0,1.1475,1.1148,1.0426,1.0966,1.3954,1.3711,0.0,0.0,1.2246,1.3311,1.639,1.7844,1.747,1.4034,1.4111,1.4914,1.5701,1.654,1.6803,1.5697,1.5468,1.5362,1.5235,1.568,1.6083,1.6053,1.5856,1.5718,0.6924,0.6936,0.6141,0.6129,0.6638,0.6923,0.7965,0.9458,0.9431,0.9856,1.0448,0.9752,1.0028,1.0951,0.9031,0.0,0.0,0.0,1.0235,1.2602,1.2269,1.304,1.4609,1.4261,1.4414,1.4971,1.4098,1.3561,1.3457,1.3116,1.1216,0.7879,0.0,0.0,0.5689,0.7013,0.7912,0.833,0.9359,0.9995,1.021,1.055,1.0845,1.1098,1.034,0.9846,0.9736,0.8564,0.7626,0.7061,0.759,0.7172,0.0,0.0,0.0,0.0,0.0,0.0,0.0,0.0,0.0,0.0,0.0,0.6796,0.5901,0.0,0.0,0.0,0.6015,0.7571,0.677,0.6478,0.0,0.0,0.0,0.0,0.0,0.0,0.0,0.8959,0.6905,0.6428,0.9529,1.2572,1.3702,1.1484,1.1058,1.1242,1.2115,0.0,1.2241,1.5109,1.4965,1.4337,1.3924,1.4212,1.5684,1.9132,1.9697,1.8859,1.6105,1.6493,1.6929,1.6286,1.7266,1.8253,1.7468,1.6555,1.5814,1.5814,1.5814,1.5814,1.5814,1.5981,1.6208,0.7645,0.8092,0.7154,0.7385,0.8356,0.8529,0.9174,1.0102,1.0102,1.0103,1.0084,1.0469,1.0467,1.0219,1.127,0.0,1.0798,1.0755,1.173,1.3576,1.3546,1.3871,1.4494,1.4487,1.4907,1.5659,1.4875,1.4061,1.3232,1.3199,1.2377,1.0772,0.9474,0.8153,0.6924,0.7884,0.843,0.8443,0.941,0.9925,0.9951,1.0739,1.1085,1.093,1.0227,0.9732,0.9518,0.8462,0.7672,0.7272,0.7621,0.7848,0.7774,0.0,0.0,0.0,0.0,0.0,0.0,0.0,0.0,0.0,0.0,0.0,0.0,0.0,0.0,0.0,0.7549,0.0,0.7775,0.5629,0.0,0.0,0.0,0.4575,0.6486,0.8735,1.096,1.2966,0.0,0.0,1.0301,1.3992,1.5731,1.3747,1.1666,1.0959,1.2706,1.321,1.42,1.6183,1.6497,1.6132,1.5224,1.5975,1.7404,1.9332,1.9697,1.9615,1.9437,1.9495,1.8639,1.6705,1.8114,1.963,1.9675,1.7732,1.6113,1.6241,1.6091,1.5971,1.5844,1.5887,1.5932,0.7845,0.8008,0.8152,0.8462,0.8857,0.9218,0.974,1.0302,1.0233,1.062,1.1308,1.0568,1.1062,1.2445,1.2709,1.2682,1.2416,1.2135,1.2791,1.4204,1.394,1.4053,1.4494,1.4494,1.46,1.4802,1.4622,1.4047,1.3225,1.3215,1.2558,1.1442,1.1064,1.009,0.861,0.9177,0.9523,0.9529,0.9774,1.0021,1.0292,1.057,1.0883,1.1182,0.9974,0.9459,0.9769,0.8429,0.7612,0.75,0.7417,0.7358,0.7351,0.7095,0.0,0.0,0.0,0.0,0.0,0.0,0.0,0.0,0.0,0.532,0.488,0.0,0.6342,0.0,0.4574,0.507,0.674,0.6928,0.0,0.0,0.7265,0.8135,0.7676,1.0449,1.2616,1.3129,1.2509,1.276,1.4701,1.5869,1.6292,1.5767,1.4773,1.3277,1.1225,1.3664,1.5906,1.6396,1.6528,1.6427,1.626,1.7735,1.905,1.9603,1.9697,1.9697,1.9697,1.9697,1.9465,1.8882,1.9196,1.9675,1.9697,1.9149,1.8811,1.8714,1.7977,1.6944,1.6038,1.6181,1.6331,0.7663,0.7957,0.8476,0.8915,0.9257,0.9437,0.987,1.0326,1.0289,1.0565,1.1111,1.0484,1.0815,1.1939,1.2369,1.2649,1.2732,1.2341,1.2799,1.3855,1.3488,1.3488,1.3927,1.3934,1.3927,1.3932,1.3926,1.3691,1.3245,1.321,1.2885,1.2328,1.2322,1.1732,1.059,1.0131,0.978,0.9541,0.9774,0.9995,1.0185,1.0255,1.0376,1.0514,0.9695,0.9072,0.8709,0.7789,0.7055,0.6617,0.6971,0.7121,0.695,0.718,0.5657,0.0,0.0,0.0,0.0,0.0,0.0,0.0,0.0,0.0,0.0,0.0,0.699,0.581,0.6537,0.735,0.8021,0.8498,0.8575,0.8088,1.0027,1.089,0.9679,1.2163,1.3772,1.3254,1.3665,1.4601,1.6283,1.6528,1.6528,1.6528,1.6128,1.5159,1.3515,1.5051,1.6528,1.6528,1.6528,1.6528,1.6528,1.8295,1.9697,1.9697,1.9697,1.9697,1.9697,1.9697,1.9697,1.9697,1.9697,1.9697,1.9697,1.9697,1.9697,1.96,1.9121,1.8381,1.7695,1.7333,1.6906,0.7321,0.7833,0.8312,0.8862,0.9475,0.9475,0.9811,1.0322,1.0322,1.0322,1.0322,1.0322,1.0325,1.0381,1.1313,1.1999,1.236,1.1993,1.2246,1.2978,1.2621,1.265,1.3088,1.3088,1.3129,1.3204,1.321,1.321,1.321,1.321,1.3173,1.3098,1.3091,1.2816,1.2259,1.0847,0.9805,0.922,0.9654,0.9874,0.9792,0.9736,0.9631,0.9493,0.9225,0.8493,0.7314,0.6889,0.6287,0.5445,0.6415,0.6843,0.6446,0.633,0.5555,0.0,0.4219,0.0,0.0,0.0,0.0,0.0,0.0,0.0,0.0,0.6988,0.6926,0.8068,1.0483,1.1521,1.04,1.0326,1.0659,1.1557,1.2564,1.2816,1.1989,1.3628,1.4557,1.3711,1.4375,1.5291,1.6346,1.6528,1.6528,1.6522,1.6497,1.6353,1.6403,1.641,1.6528,1.6528,1.6528,1.6601,1.7153,1.8535,1.9697,1.9697,1.9697,1.9697,1.9697,1.9697,1.9697,1.9697,1.9697,1.9697,1.9697,1.9697,1.9697,1.969,1.9622,1.957,1.9413,1.8605,1.755,0.7063,0.7189,0.7276,0.8078,0.9317,0.9359,0.969,1.0317,1.0322,1.0322,1.0322,1.0322,1.0321,1.0354,1.1078,1.1597,1.192,1.1847,1.1884,1.2077,1.1999,1.2168,1.2615,1.2615,1.2838,1.3204,1.321,1.321,1.321,1.321,1.2973,1.258,1.2534,1.2284,1.1751,0.0,0.0,0.0,0.9875,0.9686,0.9264,0.8813,0.8691,0.8829,0.7737,0.0,0.7455,0.6333,0.5634,0.5564,0.5928,0.0,0.0,0.0,0.0,0.0,0.0,0.0,0.0,0.0,0.0,0.0,0.7691,0.7142,0.7299,0.7009,0.7554,0.9376,1.1599,1.2852,1.2605,1.2572,1.2655,1.2832,1.3057,1.311,1.2954,1.4092,1.5136,1.5831,1.5316,1.5298,1.6321,1.6528,1.6528,1.6528,1.6528,1.6528,1.6528,1.6528,1.6528,1.6528,1.6522,1.7188,1.8848,1.942,1.9697,1.9697,1.9697,1.9697,1.9697,1.9697,1.9697,1.9697,1.9697,1.9697,1.9697,1.9697,1.9697,1.9697,1.9697,1.9697,1.9682,1.9076,1.8597,0.7406,0.0,0.7684,0.8301,0.0,0.9693,1.0116,1.0484,1.0779,1.069,1.0307,1.0331,1.0333,1.0327,1.0648,1.1012,1.141,1.137,1.1502,1.1791,1.202,1.2227,1.2508,1.2726,1.2984,1.3204,1.321,1.321,1.321,1.321,1.3054,1.2785,1.2818,1.268,1.241,1.2371,1.1858,1.0747,0.9667,0.9366,0.9818,0.8838,0.8505,0.8863,0.0,0.0,0.0,0.0,0.0,0.0,0.0,0.0,0.0,0.0,0.0,0.5902,0.715,0.7294,0.6074,0.754,0.8915,0.9812,0.9212,0.8288,0.7149,0.8658,1.0182,1.141,1.2566,1.321,1.321,1.321,1.3348,1.3674,1.3423,1.321,1.3361,1.4701,1.5881,1.6346,1.6032,1.5919,1.6453,1.6528,1.6528,1.6528,1.6528,1.6528,1.6528,1.6528,1.6528,1.6528,1.7034,1.786,1.9288,1.9697,1.9697,1.9697,1.9697,1.9697,1.9697,1.9697,1.9697,1.9697,1.9697,1.9697,1.9697,1.9697,1.9697,1.9697,1.9697,1.9697,1.969,1.942,1.9278,0.7881,0.7869,0.8357,0.8645,0.8928,0.9935,1.0568,1.0854,0.0,0.0,0.0,1.0529,1.0536,1.0507,1.0545,1.0735,1.1103,1.1059,1.1267,1.179,1.2119,1.2354,1.2495,1.2868,1.3135,1.3204,1.321,1.321,1.321,1.321,1.321,1.321,1.321,1.321,1.321,1.321,1.2793,1.1845,1.0094,0.9598,1.0474,0.9271,0.8694,0.8962,0.9008,0.872,0.8052,0.808,0.7657,0.668,0.5214,0.4336,0.4238,0.6758,0.8344,0.8573,0.8581,0.8479,0.8293,0.8921,0.9848,1.1064,1.0768,0.9724,0.7875,1.0563,1.2565,1.3138,1.321,1.321,1.321,1.321,1.348,1.4199,1.3962,1.3743,1.3661,1.5266,1.6484,1.6528,1.6454,1.6528,1.6522,1.6528,1.6528,1.6528,1.6528,1.6528,1.6528,1.6528,1.6528,1.6571,1.7111,1.8059,1.8893,1.953,1.9654,1.9697,1.9697,1.9697,1.9697,1.9697,1.9697,1.9697,1.9697,1.9697,1.9697,1.9697,1.9697,1.9697,1.9697,1.9697,1.9697,1.9697,1.9675,0.8176,0.8601,0.8175,0.8493,0.9313,0.95,1.0335,1.1589,1.1595,1.1538,1.1422,1.1397,1.1412,1.1445,1.1401,1.1468,1.1511,1.1484,1.1555,0.0,1.1747,1.2027,1.2406,1.2523,1.2803,1.317,1.321,1.321,1.321,1.321,1.321,1.321,1.321,1.3204,1.321,1.321,1.3117,1.296,1.2666,1.1689,1.0069,0.9792,0.9259,0.8443,0.798,0.7706,0.7667,0.7279,0.698,0.6848,0.6562,0.6004,0.5267,0.7959,1.0123,1.1125,1.1244,1.0793,0.9704,0.9725,1.0463,1.1909,1.1858,1.1499,1.1026,1.141,1.2121,1.3073,1.321,1.321,1.321,1.321,1.3477,1.4154,1.5266,1.568,1.4789,1.5724,1.6528,1.6528,1.6528,1.6528,1.6528,1.6528,1.6528,1.6528,1.6528,1.6528,1.6528,1.6528,1.6528,1.6522,1.6595,1.6795,1.7264,1.8612,1.9537,1.9697,1.9697,1.9697,1.9697,1.9697,1.9697,1.9697,1.9697,1.9697,1.9697,1.9697,1.9697,1.9697,1.9697,1.9697,1.9697,1.9697,1.9697,0.8564,0.8764,0.8524,0.8629,0.9151,0.9838,1.0764,1.1778,1.2144,1.2317,1.2297,1.2026,1.2043,1.2308,1.2128,1.19,1.1606,1.2181,1.2292,1.2164,1.2653,1.2884,1.2933,1.3222,1.3297,1.3223,1.321,1.321,1.321,1.321,1.321,1.321,1.321,1.3323,1.3554,1.3581,1.3675,1.3894,1.3452,1.2415,1.086,1.0213,0.9661,0.9184,0.8901,0.8876,0.9109,0.8882,0.8621,0.8372,0.8677,0.828,0.7072,0.8831,1.0135,1.0712,1.076,1.0825,1.0919,1.1619,1.2094,1.2308,1.2692,1.2545,1.166,1.2134,1.2693,1.3148,1.321,1.321,1.321,1.321,1.3536,1.4456,1.5712,1.6283,1.5925,1.6164,1.6515,1.6528,1.6528,1.6528,1.6528,1.6528,1.6528,1.6528,1.6528,1.6528,1.6528,1.6528,1.6528,1.6528,1.6528,1.6528,1.6595,1.8295,1.9537,1.9697,1.9697,1.9697,1.9697,1.9697,1.9697,1.9697,1.9697,1.9697,1.9697,1.9697,1.9697,1.9697,1.9697,1.9697,1.9697,1.9697,1.9697,0.8808,0.8808,0.8808,0.8808,0.891,1.0064,1.0965,1.1616,1.2344,1.2769,1.2832,1.252,1.2572,1.2877,1.283,1.2467,1.2079,1.2991,1.3212,1.293,1.3557,1.3783,1.3483,1.3779,1.364,1.3242,1.321,1.321,1.3204,1.3301,1.3357,1.3357,1.3357,1.3547,1.3908,1.4,1.4181,1.4431,1.3848,1.2967,1.1922,1.06,1.0014,1.0173,1.0078,1.0135,1.0403,1.0483,1.0283,0.9851,1.0287,0.9991,0.8821,0.9441,0.9873,0.9873,0.9873,1.059,1.2125,1.3099,1.3426,1.2935,1.3416,1.3458,1.2738,1.2902,1.321,1.321,1.321,1.3298,1.3523,1.3329,1.368,1.4915,1.5925,1.6478,1.6515,1.6528,1.6528,1.6528,1.6528,1.6528,1.6528,1.6528,1.6528,1.6528,1.6528,1.6528,1.6528,1.6528,1.6528,1.6528,1.6528,1.6528,1.6601,1.774,1.8983,1.9501,1.9697,1.9697,1.9697,1.9697,1.9697,1.9697,1.9697,1.9697,1.9697,1.9697,1.9697,1.9697,1.9697,1.9697,1.9697,1.9697,1.9697,0.8808,0.8808,0.8808,0.8808,0.8854,0.9618,1.0316,1.0965,1.162,1.2295,1.2871,1.2837,1.2866,1.2967,1.3429,1.334,1.2907,1.4011,1.4204,1.3726,1.3908,1.3963,1.3875,1.3532,1.3254,1.321,1.321,1.3245,1.3267,1.3642,1.3828,1.3828,1.3835,1.3861,1.396,1.4278,1.447,1.4494,1.4431,1.3896,1.2845,1.0936,1.0263,1.1063,1.0604,1.0353,1.0427,1.0691,1.0688,1.0385,1.0394,1.0208,0.9805,0.9849,0.9873,0.9873,0.9931,1.098,1.3257,1.3346,1.363,1.443,1.4244,1.4465,1.5118,1.4036,1.3245,1.3307,1.3273,1.3622,1.4538,1.3898,1.4042,1.5434,1.6132,1.6528,1.6528,1.6528,1.6528,1.6528,1.6528,1.6528,1.6528,1.6528,1.6528,1.6528,1.6528,1.6528,1.6528,1.6528,1.6601,1.6558,1.6522,1.6528,1.6558,1.6607,1.7794,1.9258,1.9697,1.9697,1.9697,1.9697,1.9697,1.9697,1.9697,1.9697,1.9697,1.9697,1.9697,1.9697,1.9697,1.9697,1.9697,1.9697,1.9697,0.8808,0.8808,0.8808,0.8808,0.8906,0.9917,1.0568,1.0918,1.199,1.2613,1.2881,1.2886,1.2886,1.2929,1.3505,1.3637,1.3494,1.3994,1.4317,1.4343,1.4152,1.4041,1.4037,1.3845,1.3559,1.3217,1.321,1.3357,1.3642,1.4052,1.4246,1.4246,1.4246,1.4374,1.4589,1.4783,1.4989,1.5255,1.5262,1.4923,1.4202,1.3197,1.2268,1.166,1.138,1.108,1.0756,1.0825,1.0842,1.0715,1.0691,1.0441,0.9925,0.9873,0.9873,1.0026,1.2129,1.3152,1.2672,1.387,1.4648,1.4603,1.4905,1.5335,1.5725,1.5134,1.4721,1.462,1.3835,1.3871,1.5498,1.5395,1.5455,1.607,1.6386,1.6528,1.6528,1.6528,1.6528,1.6528,1.6528,1.6528,1.6528,1.6528,1.6528,1.6528,1.6528,1.6528,1.6528,1.6528,1.6795,1.7188,1.6951,1.6522,1.6528,1.6528,1.751,1.902,1.9697,1.9697,1.9697,1.9697,1.9697,1.9697,1.9697,1.9697,1.9697,1.9697,1.9697,1.9697,1.9697,1.9697,1.9697,1.9697,1.9697,0.8808,0.8808,0.8808,0.8808,0.8906,1.0009,1.061,1.0969,1.2098,1.272,1.2886,1.2886,1.3095,1.3438,1.3852,1.4055,1.41,1.4412,1.467,1.4767,1.4403,1.4187,1.4123,1.3921,1.3622,1.3295,1.3357,1.3682,1.4181,1.4367,1.4557,1.4658,1.4658,1.4814,1.5066,1.5202,1.5448,1.5777,1.5814,1.5639,1.5285,1.5006,1.4017,1.2434,1.212,1.1756,1.1066,1.1108,1.1101,1.1001,1.0994,1.0821,1.0452,1.0273,1.0235,1.0654,1.3431,1.4614,1.2979,1.4554,1.5298,1.4902,1.5454,1.5814,1.5814,1.5814,1.5814,1.5727,1.527,1.5797,1.6587,1.72,1.7283,1.7002,1.6731,1.6552,1.6674,1.6631,1.6528,1.6528,1.6528,1.6528,1.6528,1.6528,1.6528,1.6528,1.6528,1.6528,1.6528,1.6522,1.6873,1.786,1.7388,1.6886,1.6637,1.7229,1.8099,1.8938,1.9697,1.9697,1.9697,1.9697,1.9697,1.9697,1.9697,1.9697,1.9697,1.9697,1.9697,1.9697,1.9697,1.9697,1.9697,1.9697,1.9697,0.8808,0.8808,0.8808,0.8804,0.8854,0.9618,1.0265,1.0918,1.1625,1.2246,1.2881,1.2886,1.3522,1.4517,1.4586,1.4658,1.4784,1.5704,1.5624,1.4869,1.4802,1.4569,1.4066,1.3527,1.3229,1.3301,1.3655,1.4214,1.4951,1.4704,1.469,1.5066,1.5097,1.5097,1.5195,1.5544,1.5777,1.5806,1.5814,1.5785,1.5741,1.5733,1.4852,1.3308,1.2742,1.2177,1.1477,1.1615,1.1623,1.1317,1.128,1.1408,1.1601,1.1155,1.1094,1.1866,1.3138,1.4483,1.5259,1.5161,1.5139,1.5604,1.5731,1.5814,1.5814,1.5814,1.5926,1.5918,1.7826,1.8731,1.8204,1.8711,1.8871,1.8016,1.7142,1.6951,1.7188,1.6752,1.6522,1.6528,1.6528,1.6528,1.6528,1.6528,1.6558,1.6558,1.6522,1.6528,1.6528,1.6528,1.6999,1.7706,1.7907,1.7666,1.6993,1.786,1.9132,1.9661,1.9697,1.9697,1.9697,1.9697,1.9697,1.9697,1.9697,1.9697,1.9697,1.9697,1.9697,1.9697,1.9697,1.9697,1.9697,1.9697,1.9697,0.8808,0.8808,0.8808,0.9061,0.951,1.0167,1.0817,1.1466,1.2192,1.2671,1.2886,1.2886,1.3556,1.4712,1.4697,1.4926,1.5297,1.5408,1.5228,1.4823,1.4518,1.4091,1.3552,1.3286,1.3391,1.3642,1.3848,1.4303,1.5036,1.5232,1.5396,1.5522,1.5544,1.5544,1.5588,1.5704,1.5814,1.5814,1.5814,1.5814,1.5814,1.5814,1.5272,1.4296,1.4082,1.3421,1.228,1.2396,1.2186,1.1652,1.1608,1.1681,1.1754,1.1593,1.2372,1.4146,1.4824,1.5304,1.5694,1.5589,1.5536,1.5761,1.5814,1.5814,1.5814,1.5858,1.6451,1.8032,1.8964,1.9427,1.9325,1.9486,1.9406,1.8772,1.8535,1.8059,1.7435,1.6844,1.6528,1.6528,1.6528,1.6528,1.6528,1.6528,1.668,1.7083,1.6795,1.6601,1.6522,1.6528,1.6951,1.7666,1.7544,1.7463,1.8688,1.9043,1.9682,1.9697,1.9697,1.9697,1.9697,1.9697,1.9697,1.9697,1.9697,1.9697,1.9697,1.9697,1.9697,1.9697,1.9697,1.9697,1.9697,1.9697,1.9697,0.8808,0.8808,0.8808,0.9211,0.9862,1.0513,1.1162,1.1868,1.2559,1.2886,1.2925,1.3109,1.3737,1.4606,1.4875,1.5326,1.5816,1.5344,1.5016,1.4839,1.4343,1.376,1.3301,1.3363,1.3575,1.3894,1.4188,1.4652,1.5285,1.5639,1.5806,1.5806,1.5814,1.5814,1.5814,1.5814,1.5814,1.5814,1.5814,1.5814,1.5814,1.5814,1.5589,1.5221,1.5139,1.4502,1.3213,1.3138,1.2934,1.2523,1.2456,1.2246,1.1895,1.262,1.3887,1.5536,1.5799,1.5814,1.5814,1.5814,1.5806,1.5814,1.5814,1.5814,1.5814,1.5814,1.711,1.8984,1.9697,1.9697,1.9697,1.9697,1.9566,1.9125,1.8893,1.8511,1.778,1.6993,1.6565,1.6528,1.6528,1.6528,1.6528,1.6528,1.6844,1.7504,1.7264,1.7201,1.7034,1.7076,1.7388,1.8231,1.7388,1.774,1.8734,1.953,1.969,1.9697,1.9697,1.9697,1.9697,1.9697,1.9697,1.9697,1.9697,1.9697,1.9697,1.9697,1.9697,1.9697,1.9697,1.9697,1.9697,1.9697,1.9697,0.8808,0.8808,0.8808,0.9211,0.9917,1.0568,1.1166,1.1922,1.2613,1.2886,1.2973,1.3505,1.4124,1.4817,1.5305,1.5876,1.6237,1.5855,1.5352,1.489,1.4343,1.3802,1.3314,1.3642,1.3894,1.4052,1.4728,1.5292,1.5733,1.5777,1.5814,1.5814,1.5814,1.5814,1.5814,1.5814,1.5814,1.5814,1.5814,1.5814,1.5814,1.5814,1.5776,1.5746,1.5731,1.5154,1.3922,1.3877,1.3817,1.3698,1.369,1.3144,1.2463,1.4127,1.5709,1.5739,1.5814,1.5814,1.5814,1.5814,1.5814,1.5814,1.5814,1.5851,1.5971,1.5896,1.69,1.9149,1.9697,1.9697,1.9697,1.9697,1.9682,1.9522,1.8302,1.7713,1.7987,1.7312,1.6528,1.6528,1.6528,1.6528,1.6522,1.668,1.7005,1.7551,1.802,1.8302,1.8138,1.8106,1.8574,1.893,1.8334,1.8138,1.8975,1.9697,1.9697,1.9697,1.9697,1.9697,1.9697,1.9697,1.9697,1.9697,1.9697,1.9697,1.9697,1.9697,1.9697,1.9697,1.9697,1.9697,1.9697,1.9697,1.9697,0.8808,0.8808,0.8808,0.9465,1.047,1.0716,1.1429,1.2505,1.2822,1.2886,1.3022,1.3552,1.4565,1.5636,1.5742,1.592,1.6416,1.5944,1.5392,1.489,1.4343,1.396,1.3733,1.3835,1.4181,1.4728,1.5285,1.5646,1.5777,1.5814,1.5814,1.5814,1.5814,1.5814,1.5814,1.5814,1.5814,1.5814,1.5814,1.5814,1.5814,1.5814,1.5814,1.5814,1.5814,1.5566,1.5221,1.5184,1.4722,1.3899,1.3802,1.36,1.3585,1.4839,1.5769,1.5814,1.5814,1.5814,1.5814,1.5814,1.5814,1.5814,1.5814,1.6121,1.6511,1.6151,1.7028,1.9248,1.9697,1.9697,1.9697,1.9697,1.9697,1.9697,1.9095,1.8373,1.8138,1.7242,1.6607,1.6528,1.6528,1.6528,1.668,1.7034,1.7713,1.7947,1.8373,1.8657,1.9088,1.9088,1.9207,1.9486,1.8885,1.8574,1.9258,1.9697,1.9697,1.9697,1.9697,1.9697,1.9697,1.9697,1.9697,1.9697,1.9697,1.9697,1.9697,1.9697,1.9697,1.9697,1.9697,1.9697,1.9697,1.9697,1.9697,0.8808,0.8801,0.9061,0.9817,1.0817,1.1065,1.1832,1.2832,1.2886,1.289,1.3072,1.3753,1.501,1.6179,1.611,1.6157,1.6397,1.5743,1.5243,1.4859,1.4337,1.4025,1.4,1.4246,1.4683,1.5292,1.5646,1.5806,1.5814,1.5814,1.5814,1.5814,1.5814,1.5814,1.5814,1.5814,1.5814,1.5814,1.5814,1.5814,1.5814,1.5814,1.5814,1.5814,1.5814,1.5814,1.5814,1.5814,1.5424,1.47,1.4543,1.4543,1.4618,1.5356,1.5814,1.5814,1.5814,1.5814,1.5814,1.5814,1.5814,1.5814,1.5814,1.6008,1.6503,1.6353,1.7558,1.9233,1.9697,1.9697,1.9697,1.9697,1.9697,1.9682,1.9251,1.8772,1.7954,1.7076,1.6558,1.6528,1.6528,1.6831,1.7626,1.8138,1.8688,1.8727,1.8657,1.8848,1.945,1.9661,1.969,1.969,1.9493,1.9413,1.9581,1.9697,1.9697,1.9697,1.9697,1.9697,1.9697,1.9697,1.9697,1.9697,1.9697,1.9697,1.9697,1.9697,1.9697,1.9697,1.9697,1.9697,1.9697,1.9697,1.9697,0.8808,0.8959,0.9514,1.0214,1.0914,1.1512,1.2187,1.2827,1.2886,1.2923,1.3131,1.4052,1.5193,1.6178,1.6232,1.6242,1.6227,1.5417,1.4954,1.4778,1.4397,1.4158,1.4177,1.469,1.5225,1.5668,1.577,1.5814,1.5814,1.5814,1.5814,1.5814,1.5814,1.5814,1.5814,1.5814,1.5814,1.5814,1.5814,1.5814,1.5814,1.5814,1.5814,1.5814,1.5814,1.5814,1.5814,1.5806,1.5799,1.5769,1.5634,1.5604,1.5739,1.5799,1.5814,1.5814,1.5814,1.5814,1.5814,1.5814,1.5814,1.5814,1.5814,1.5851,1.6121,1.6757,1.7827,1.945,1.9697,1.9697,1.9697,1.9697,1.9697,1.9603,1.905,1.8373,1.782,1.7229,1.7034,1.6795,1.6752,1.7347,1.9169,1.9486,1.9566,1.9486,1.9095,1.9207,1.945,1.9697,1.9697,1.9697,1.9697,1.9697,1.9697,1.9697,1.9697,1.9697,1.9697,1.9697,1.9697,1.9697,1.9697,1.9697,1.9697,1.9697,1.9697,1.9697,1.9697,1.9697,1.9697,1.9697,1.9697,1.9697,1.9697,0.9176,0.9814,0.9832,1.047,1.1466,1.176,1.2236,1.2871,1.2866,1.2854,1.3086,1.3827,1.4686,1.5289,1.5645,1.5568,1.5316,1.5048,1.4827,1.4732,1.4618,1.4634,1.4756,1.4975,1.5352,1.5733,1.5814,1.5814,1.5814,1.5814,1.5814,1.5814,1.5814,1.5814,1.5814,1.5814,1.5814,1.5814,1.5814,1.5814,1.5814,1.5814,1.5814,1.5814,1.5814,1.5814,1.5814,1.5814,1.5814,1.5814,1.5814,1.5814,1.5814,1.5814,1.5814,1.5814,1.5814,1.5814,1.5814,1.5814,1.5814,1.5814,1.5814,1.5979,1.6413,1.6331,1.7468,1.9066,1.9697,1.9697,1.9697,1.9697,1.9697,1.9682,1.9369,1.9132,1.905,1.8983,1.8612,1.794,1.8334,1.9013,1.945,1.9697,1.9697,1.9646,1.9522,1.9406,1.9654,1.9697,1.9697,1.9697,1.9697,1.9697,1.9697,1.9697,1.9697,1.9697,1.9697,1.9697,1.9697,1.9697,1.9697,1.9697,1.9697,1.9697,1.9697,1.9697,1.9697,1.9697,1.9697,1.9697,1.9697,1.9697,1.9697,0.9333,1.0177,1.0237,1.0731,1.1531,1.1822,1.2135,1.2297,1.2366,1.2559,1.2944,1.3454,1.4421,1.5496,1.5312,1.4985,1.4706,1.4777,1.4767,1.4688,1.4633,1.478,1.5056,1.5269,1.5544,1.577,1.5814,1.5814,1.5814,1.5814,1.5814,1.5814,1.5814,1.5814,1.5814,1.5814,1.5814,1.5814,1.5814,1.5814,1.5814,1.5814,1.5814,1.5814,1.5814,1.5814,1.5814,1.5814,1.5814,1.5814,1.5814,1.5814,1.5814,1.5814,1.5814,1.5814,1.5814,1.5814,1.5814,1.5814,1.5814,1.5814,1.5814,1.5986,1.6174,1.5987,1.6803,1.844,1.9278,1.9645,1.9697,1.9697,1.9697,1.9697,1.9697,1.9697,1.9697,1.9654,1.9406,1.9125,1.9288,1.9697,1.9697,1.9697,1.9697,1.9697,1.9697,1.9654,1.9697,1.9697,1.9697,1.9697,1.9697,1.9697,1.9697,1.9697,1.9697,1.9697,1.9697,1.9697,1.9697,1.9733,1.996,1.9987,1.9826,1.9697,1.9697,1.9697,1.9697,1.9697,1.9697,1.9858,1.9959,1.9897,1.9861,0.9238,1.0167,1.0517,1.0912,1.1342,1.1853,1.1918,1.168,1.1685,1.2083,1.2677,1.3032,1.4156,1.6086,1.4859,1.4505,1.4199,1.4322,1.4568,1.4634,1.4722,1.4966,1.5261,1.5455,1.5639,1.5777,1.5814,1.5814,1.5814,1.5814,1.5814,1.5814,1.5814,1.5814,1.5814,1.5814,1.5814,1.5814,1.5814,1.5814,1.5814,1.5814,1.5814,1.5814,1.5814,1.5814,1.5806,1.5827,1.5877,1.5863,1.5827,1.5814,1.5814,1.5814,1.5814,1.5814,1.5814,1.5814,1.5814,1.5814,1.5814,1.5814,1.5814,1.5814,1.5866,1.5858,1.6421,1.7849,1.8934,1.9577,1.9697,1.9697,1.9697,1.9697,1.9697,1.9697,1.9697,1.9697,1.9697,1.9697,1.9682,1.9697,1.9697,1.9697,1.9697,1.9697,1.9697,1.9697,1.9697,1.9697,1.9697,1.9697,1.9697,1.9697,1.9697,1.9697,1.9697,1.9697,1.9697,1.9697,1.9697,1.9826,2.0243,2.0405,2.0581,2.0258,1.9697,1.9697,1.9762,1.9995,2.0154,2.0323,2.0461,2.0308,2.0224,0.872,0.9682,0.987,1.0525,1.1428,1.1655,1.1685,1.1577,1.1577,1.1646,1.2032,1.2718,1.3389,1.397,1.381,1.3502,1.3569,1.3727,1.3857,1.4617,1.5303,1.5522,1.5588,1.5455,1.5477,1.5712,1.5814,1.5814,1.5814,1.5814,1.5814,1.5814,1.5835,1.5814,1.5835,1.5863,1.5814,1.5814,1.5806,1.5814,1.5806,1.5827,1.5856,1.5856,1.5835,1.5835,1.5885,1.606,1.6191,1.6143,1.5991,1.5885,1.5814,1.5814,1.5814,1.5814,1.5814,1.5814,1.5806,1.5827,1.5814,1.5892,1.5885,1.5814,1.5799,1.5806,1.6406,1.7625,1.8897,1.9637,1.9697,1.9697,1.9697,1.9697,1.9697,1.9697,1.9697,1.9697,1.9697,1.9697,1.9697,1.9697,1.9697,1.9697,1.9697,1.9697,1.9697,1.9697,1.9697,1.9697,1.9697,1.9697,1.9697,1.9697,1.9697,1.9762,1.9861,1.9826,1.9833,1.9697,1.9697,2.012,2.0607,2.1095,2.1532,2.1007,2.0387,1.9854,1.9945,2.0277,2.0706,2.0973,2.1118,2.0861,2.0747,0.861,0.9184,0.9851,1.0587,1.1227,1.125,1.119,1.1033,1.1003,1.0999,1.1206,1.2035,1.2736,1.3171,1.3224,1.3408,1.3805,1.402,1.447,1.5118,1.561,1.5777,1.577,1.5588,1.558,1.5814,1.5814,1.5814,1.5814,1.5814,1.5814,1.5835,1.5955,1.6067,1.6039,1.6032,1.6039,1.5991,1.5885,1.5814,1.5806,1.5955,1.6136,1.6191,1.6143,1.6088,1.6293,1.6281,1.6402,1.6455,1.6375,1.6108,1.5863,1.5814,1.5814,1.5814,1.5814,1.5814,1.5806,1.5981,1.614,1.6274,1.6258,1.6266,1.6163,1.6011,1.6413,1.761,1.8807,1.9697,1.9697,1.9697,1.9697,1.9697,1.9697,1.9697,1.9697,1.9697,1.9697,1.9697,1.9697,1.9697,1.9697,1.9697,1.9697,1.9697,1.9697,1.9697,1.9697,1.9697,1.9697,1.9697,1.9697,1.9697,1.9697,1.9826,2.0015,2.0015,2.0023,1.9826,1.9697,2.0353,2.1063,2.1424,2.1759,2.1886,2.1323,2.0797,2.0499,2.1166,2.1631,2.1819,2.1713,2.1385,2.1393,0.8724,0.8869,0.999,1.0577,1.0804,1.0806,1.0635,1.0381,1.0395,1.0494,1.0547,1.1415,1.249,1.3066,1.3361,1.3826,1.4369,1.4843,1.5157,1.5448,1.5668,1.5806,1.5777,1.5777,1.5748,1.5814,1.5814,1.5814,1.5814,1.5814,1.5814,1.5863,1.6143,1.6219,1.6274,1.6375,1.6375,1.6355,1.6171,1.6004,1.6004,1.6231,1.6501,1.6607,1.6528,1.6474,1.6625,1.6633,1.6633,1.6866,1.6909,1.6625,1.6238,1.5827,1.5814,1.5835,1.606,1.6116,1.5975,1.6227,1.662,1.6917,1.6789,1.6877,1.6791,1.6499,1.6689,1.765,1.8822,1.9775,1.9854,1.9762,1.979,1.9782,1.979,1.9697,1.9697,1.9697,1.9697,1.9697,1.9697,1.9697,1.9697,1.9697,1.9697,1.9697,1.9697,1.9697,1.9697,1.9733,1.9733,1.9697,1.9697,1.9697,1.9697,1.9854,2.0042,2.0506,2.0439,2.0319,2.0189,2.087,2.1546,2.1554,2.1789,2.1953,2.202,2.1554,2.1593,2.2225,2.2254,2.2123,2.1974,2.1823,2.1936,0.8885,0.9143,0.9528,0.9958,1.0356,1.0391,1.0361,1.0371,1.0682,1.067,1.0547,1.1572,1.2525,1.3179,1.3761,1.4165,1.4577,1.4989,1.5225,1.5381,1.561,1.5814,1.5814,1.5814,1.5814,1.5814,1.5814,1.5814,1.5814,1.5814,1.5835,1.5885,1.6163,1.6328,1.6455,1.6562,1.6712,1.6686,1.6581,1.6432,1.6389,1.6583,1.6789,1.6892,1.6781,1.6781,1.6884,1.7035,1.7175,1.7248,1.7502,1.7502,1.7191,1.6405,1.6011,1.6136,1.6791,1.6876,1.6278,1.6567,1.7134,1.7376,1.7232,1.7253,1.7377,1.7215,1.7433,1.8105,1.9155,2.0035,2.0698,2.0345,1.9972,2.0027,1.9909,1.9733,1.9697,1.9897,1.979,1.9762,1.9726,1.9697,1.9697,1.9697,1.9697,1.9697,1.9697,1.9697,1.9697,1.9733,1.9762,1.9733,1.9697,1.9697,1.9697,1.9925,2.0174,2.0991,2.1189,2.126,2.13,2.1713,2.204,2.1953,2.1991,2.2152,2.2152,2.2028,2.2123,2.2291,2.2319,2.2319,2.218,2.204,2.2106,0.9069,0.9251,0.9713,1.0083,1.0283,1.0322,1.0322,1.0351,1.0791,1.1052,1.1304,1.1886,1.2584,1.3214,1.3841,1.4346,1.4835,1.5255,1.5448,1.5544,1.5712,1.5814,1.5814,1.5814,1.5814,1.5814,1.5814,1.5806,1.5814,1.5814,1.5921,1.6123,1.6402,1.6625,1.6799,1.6977,1.706,1.7035,1.6909,1.6755,1.6672,1.7027,1.7297,1.7272,1.7159,1.715,1.728,1.7224,1.7392,1.7549,1.7712,1.7789,1.7604,1.7296,1.6809,1.6918,1.74,1.7581,1.6969,1.7272,1.7541,1.7746,1.7754,1.8029,1.8343,1.8499,1.8871,1.9874,2.0405,2.1197,2.1631,2.1197,2.0934,2.0439,2.005,1.9826,1.9897,2.0506,2.0405,1.998,1.9754,1.9726,1.9697,1.9697,1.9697,1.9697,1.9726,1.9697,1.9697,1.9733,1.9762,2.0189,2.0224,1.9995,2.0189,2.0573,2.0665,2.1323,2.1751,2.1857,2.1953,2.2143,2.2217,2.2217,2.2291,2.2319,2.2291,2.2189,2.2262,2.2319,2.2319,2.2319,2.2319,2.2291,2.2319,0.9212,0.9314,0.9985,1.0322,1.0322,1.0322,1.0322,1.0433,1.0943,1.1436,1.1901,1.2277,1.2713,1.3301,1.4047,1.4756,1.5149,1.5573,1.5741,1.577,1.5785,1.5814,1.5814,1.5814,1.5814,1.5806,1.5809,1.5818,1.5842,1.6002,1.6141,1.6336,1.6659,1.701,1.7224,1.7312,1.7368,1.7328,1.7159,1.7018,1.7142,1.7487,1.7789,1.7789,1.7557,1.7517,1.7658,1.7549,1.7572,1.7704,1.7789,1.7789,1.7789,1.7789,1.7789,1.7789,1.7789,1.7789,1.7766,1.7743,1.7735,1.7805,1.8496,1.8836,1.9352,1.9925,2.0859,2.202,2.2225,2.216,2.216,2.2254,2.173,2.1079,2.0514,2.0216,2.0277,2.0698,2.1291,2.0829,2.0104,1.9782,1.9826,2.0108,2.0196,1.9728,1.9712,1.9733,1.9697,1.9697,1.9932,2.0648,2.0812,2.0481,2.0747,2.1524,2.1623,2.1857,2.2086,2.2123,2.2189,2.2291,2.2319,2.2319,2.2319,2.2319,2.2319,2.2319,2.2319,2.2319,2.2319,2.2319,2.2319,2.2319,2.2319,0.931,0.9492,1.0049,1.0322,1.0322,1.0322,1.0322,1.0438,1.1292,1.1861,1.211,1.2751,1.3076,1.3572,1.4802,1.5257,1.5356,1.558,1.5814,1.5814,1.5814,1.5814,1.5814,1.5814,1.5814,1.5805,1.5809,1.5811,1.6057,1.6462,1.6495,1.6532,1.6918,1.728,1.7376,1.7549,1.7726,1.7704,1.7666,1.7643,1.7635,1.7735,1.7789,1.778,1.7758,1.7735,1.7789,1.7704,1.7735,1.7758,1.7789,1.7789,1.7789,1.7789,1.7789,1.7789,1.7789,1.7789,1.7789,1.7789,1.7789,1.7932,1.8547,1.9181,2.0078,2.1059,2.1902,2.2183,2.2319,2.2319,2.2319,2.2319,2.1915,2.1751,2.1493,2.087,2.0607,2.1158,2.1751,2.1615,2.0862,2.0311,2.005,2.0377,2.0637,2.011,1.9718,1.9753,1.9932,2.0127,2.0387,2.1197,2.1462,2.1174,2.1134,2.1953,2.2152,2.2291,2.2319,2.2319,2.2319,2.2319,2.2319,2.2319,2.2319,2.2319,2.2319,2.2319,2.2319,2.2319,2.2319,2.2319,2.2319,2.2319,2.2319,0.9306,0.9567,1.0079,1.0322,1.0322,1.0322,1.0472,1.0797,1.1468,1.1861,1.2103,1.2861,1.3452,1.4013,1.4685,1.5089,1.5426,1.5712,1.5814,1.5814,1.5814,1.5814,1.5814,1.5814,1.5814,1.5817,1.5918,1.6417,1.6627,1.679,1.6773,1.6925,1.7134,1.7424,1.7526,1.7721,1.7789,1.7789,1.7789,1.7789,1.7789,1.7789,1.7789,1.7789,1.7789,1.7789,1.7789,1.7789,1.7789,1.7789,1.7789,1.7789,1.7789,1.7789,1.7789,1.7789,1.7789,1.7789,1.7789,1.7789,1.7831,1.8135,1.887,2.0035,2.1074,2.1837,2.2319,2.2319,2.2319,2.2319,2.2319,2.2319,2.218,2.2086,2.2143,2.1857,2.1401,2.1797,2.216,2.1924,2.1691,2.1166,2.0607,2.0516,2.0967,2.1123,2.055,2.0192,2.0648,2.1174,2.1493,2.1945,2.202,2.1865,2.1894,2.2254,2.2217,2.2319,2.2319,2.2319,2.2319,2.2319,2.2319,2.2319,2.2319,2.2319,2.2319,2.2319,2.2319,2.2319,2.2319,2.2319,2.2319,2.2319,2.2319,0.9555,0.976,1.0123,1.0322,1.0322,1.0322,1.0529,1.1062,1.1547,1.1869,1.2165,1.2879,1.3703,1.4422,1.4617,1.5079,1.5573,1.5733,1.5806,1.5814,1.5814,1.5814,1.5814,1.5814,1.5805,1.5823,1.5814,1.6485,1.7219,1.7383,1.7199,1.732,1.7392,1.7549,1.7712,1.7789,1.7789,1.7789,1.7789,1.7789,1.7789,1.7789,1.7789,1.7789,1.7789,1.7789,1.7789,1.7789,1.7789,1.7789,1.7789,1.7789,1.7789,1.7789,1.7789,1.7789,1.7789,1.7789,1.7789,1.7814,1.7966,1.8608,1.9436,2.0795,2.1885,2.2319,2.2319,2.2319,2.2319,2.2319,2.2319,2.2319,2.2254,2.2254,2.2291,2.2291,2.2319,2.2319,2.2319,2.216,2.2057,2.2123,2.1562,2.0942,2.1158,2.184,2.1554,2.0804,2.1166,2.1857,2.2057,2.2282,2.2245,2.216,2.2225,2.2319,2.2319,2.2319,2.2319,2.2319,2.2319,2.2319,2.2319,2.2319,2.2319,2.2319,2.2319,2.2319,2.2319,2.2319,2.2319,2.2319,2.2319,2.2319,2.2319,1.0208,1.0239,1.0283,1.0322,1.0322,1.0322,1.0577,1.1132,1.1584,1.2054,1.2478,1.3044,1.3809,1.4533,1.5193,1.5391,1.5225,1.5602,1.5777,1.5814,1.5814,1.5835,1.5856,1.5854,1.5843,1.586,1.5946,1.6656,1.7469,1.7695,1.7464,1.736,1.7581,1.7735,1.7789,1.7789,1.7789,1.7789,1.7789,1.7789,1.7789,1.7789,1.7789,1.7803,1.7803,1.7803,1.7789,1.7847,1.7869,1.7869,1.7811,1.7789,1.7789,1.7789,1.7789,1.7789,1.7905,1.7883,1.7833,1.789,1.8532,1.9579,2.0577,2.134,2.2192,2.2319,2.2319,2.2319,2.2319,2.2319,2.2319,2.2319,2.2319,2.2319,2.2319,2.2319,2.2319,2.2319,2.2319,2.2319,2.2319,2.2319,2.2291,2.1631,2.1462,2.2086,2.218,2.1493,2.1661,2.216,2.2189,2.2319,2.2319,2.2291,2.2291,2.2319,2.2319,2.2319,2.2319,2.2319,2.2319,2.2319,2.2319,2.2319,2.2319,2.2319,2.2319,2.2319,2.2319,2.2319,2.2319,2.2319,2.2319,2.2319,2.2319,1.0302,1.0322,1.0322,1.0322,1.0322,1.0322,1.0769,1.1442,1.1737,1.2258,1.2972,1.3709,1.4487,1.5198,1.553,1.572,1.5566,1.5668,1.5777,1.5814,1.5814,1.5906,1.6004,1.6113,1.6126,1.62,1.6357,1.684,1.7697,1.7782,1.776,1.7712,1.7735,1.7766,1.7789,1.7789,1.7789,1.7789,1.7789,1.7789,1.7789,1.7789,1.7789,1.7789,1.7997,1.8018,1.8061,1.8217,1.8175,1.8048,1.7914,1.7847,1.7861,1.7861,1.7875,1.7919,1.8116,1.8116,1.7939,1.7949,1.8473,1.9814,2.0841,2.1721,2.232,2.2302,2.2319,2.2319,2.2319,2.2319,2.2319,2.2319,2.2319,2.2319,2.2319,2.2319,2.2319,2.2319,2.2319,2.2319,2.2319,2.2319,2.2319,2.2225,2.2197,2.2291,2.2291,2.2319,2.2319,2.2319,2.2319,2.2319,2.2319,2.2319,2.2319,2.2319,2.2319,2.2319,2.2319,2.2319,2.2319,2.2319,2.2319,2.2319,2.2319,2.2319,2.2319,2.2319,2.2319,2.2319,2.2319,2.2319,2.2319,2.2319,2.2319,1.0307,1.0327,1.0322,1.0322,1.0322,1.0467,1.0986,1.1737,1.1962,1.2431,1.326,1.4033,1.4934,1.5583,1.5799,1.581,1.5771,1.5806,1.5814,1.5863,1.5934,1.6088,1.6274,1.6405,1.6502,1.6616,1.6808,1.723,1.7781,1.7794,1.7774,1.7766,1.7789,1.7789,1.7789,1.7789,1.7789,1.7789,1.7789,1.7789,1.7789,1.7789,1.7789,1.7825,1.8048,1.8158,1.8229,1.8379,1.8441,1.829,1.8125,1.8018,1.8074,1.814,1.8226,1.8375,1.8501,1.8577,1.8434,1.8741,1.925,2.054,2.1569,2.2201,2.2452,2.2407,2.2319,2.2319,2.2319,2.2319,2.2319,2.2319,2.2319,2.2319,2.2319,2.2319,2.2319,2.2319,2.2319,2.2319,2.2319,2.2319,2.2319,2.2319,2.2319,2.2319,2.2319,2.2319,2.2319,2.2319,2.2319,2.2319,2.2319,2.2319,2.2319,2.2319,2.2319,2.2319,2.2319,2.2319,2.2319,2.2319,2.2319,2.2319,2.2319,2.2319,2.2327,2.2355,2.2327,2.2319,2.2319,2.2319,2.2319,2.2319,2.2319,1.0327,1.0322,1.0322,1.0322,1.0361,1.0786,1.1282,1.1847,1.2288,1.2737,1.3251,1.3893,1.4773,1.5602,1.5795,1.5801,1.58,1.5814,1.5814,1.5863,1.6095,1.6246,1.6448,1.6609,1.6878,1.7052,1.718,1.7419,1.78,1.7805,1.7789,1.7803,1.7825,1.7833,1.7811,1.7789,1.7789,1.7811,1.7811,1.7811,1.7892,1.7905,1.7927,1.7992,1.8208,1.8342,1.841,1.8614,1.868,1.8566,1.8473,1.8415,1.8452,1.886,1.903,1.9111,1.9153,1.9239,1.9394,2.036,2.1074,2.1464,2.2292,2.2959,2.2979,2.273,2.2338,2.2358,2.2319,2.2319,2.2319,2.2319,2.2319,2.2319,2.2319,2.2319,2.2319,2.2319,2.2319,2.2319,2.2319,2.2319,2.2319,2.2319,2.2319,2.2319,2.2319,2.2319,2.2319,2.2319,2.2319,2.2319,2.2347,2.2668,2.2668,2.2377,2.231,2.2319,2.2319,2.2319,2.2319,2.2319,2.2319,2.2319,2.2353,2.2386,2.2389,2.2392,2.2641,2.2884,2.2405,2.231,2.2319,2.2319,2.2319,1.0322,1.0322,1.0322,1.0322,1.0356,1.0797,1.1314,1.1878,1.2567,1.3035,1.3347,1.4014,1.4882,1.5568,1.5817,1.5814,1.5806,1.5814,1.5814,1.5863,1.6207,1.6429,1.6651,1.6969,1.7271,1.7492,1.7585,1.7585,1.7797,1.7789,1.7789,1.7803,1.794,1.7957,1.7856,1.7811,1.7869,1.7992,1.7949,1.7949,1.827,1.831,1.833,1.8339,1.8547,1.8669,1.8688,1.8886,1.8939,1.8887,1.8816,1.8824,1.8753,1.9073,1.928,1.9314,1.9378,2.0088,2.1198,2.2362,2.2605,2.2651,2.2865,2.3428,2.3198,2.3063,2.273,2.247,2.2487,2.246,2.2319,2.2319,2.231,2.2319,2.2319,2.2319,2.2319,2.2319,2.2319,2.2319,2.2319,2.2319,2.2319,2.231,2.233,2.233,2.233,2.2319,2.2319,2.231,2.2302,2.2319,2.2413,2.2901,2.3082,2.2824,2.2721,2.2816,2.2597,2.2319,2.2319,2.2319,2.246,2.2516,2.2509,2.2482,2.2793,2.3093,2.3462,2.3522,2.3017,2.2535,2.2443,2.2377,2.2319,1.0322,1.0322,1.0322,1.0322,1.0395,1.1019,1.1653,1.2318,1.2937,1.3215,1.3402,1.4119,1.4979,1.5593,1.5809,1.5814,1.5827,1.5934,1.5991,1.6067,1.6474,1.6747,1.7019,1.7288,1.7549,1.7758,1.7789,1.7789,1.7789,1.7789,1.7847,1.7962,1.8112,1.8154,1.8091,1.8146,1.8166,1.827,1.8229,1.824,1.8538,1.867,1.8753,1.8698,1.8789,1.8984,1.9052,1.9134,1.9261,1.9182,1.9157,1.9155,1.9031,1.9081,1.9295,1.9323,2.0675,2.1584,2.2988,2.3547,2.3499,2.3115,2.3587,2.3604,2.3414,2.3414,2.3364,2.3155,2.2935,2.2935,2.2926,2.285,2.2479,2.2479,2.2451,2.2479,2.2366,2.2366,2.233,2.2338,2.2319,2.2319,2.2386,2.233,2.2341,2.2369,2.236,2.2349,2.2386,2.247,2.2598,2.273,2.2497,2.2712,2.3082,2.3265,2.3233,2.3318,2.2984,2.2506,2.2319,2.2319,2.2516,2.2764,2.2859,2.3049,2.3506,2.3848,2.3925,2.3864,2.3602,2.3122,2.2695,2.2516,2.2405,1.0273,1.0288,1.0302,1.0249,1.0432,1.1297,1.2258,1.3094,1.3163,1.3209,1.3265,1.4124,1.4982,1.5682,1.5809,1.5835,1.5913,1.6151,1.6274,1.6474,1.6876,1.7118,1.732,1.7572,1.7704,1.7758,1.7789,1.7789,1.7789,1.7789,1.7905,1.8125,1.8229,1.8371,1.8489,1.8586,1.8604,1.8585,1.8508,1.8557,1.878,1.9024,1.899,1.8921,1.8939,1.9043,1.9101,1.9189,1.9259,1.9265,1.928,1.928,1.928,1.928,1.9305,2.0333,2.2602,2.3446,2.3942,2.4162,2.4162,2.3806,2.4031,2.3795,2.364,2.3756,2.3825,2.3855,2.3771,2.3935,2.4005,2.3391,2.2773,2.2773,2.2721,2.2633,2.247,2.2424,2.2369,2.2349,2.2319,2.2386,2.2659,2.2677,2.2634,2.2625,2.2678,2.2616,2.2669,2.2875,2.3113,2.3558,2.3203,2.2535,2.2867,2.3473,2.3667,2.3753,2.3242,2.2816,2.2579,2.2552,2.3067,2.3359,2.3355,2.3471,2.3564,2.3818,2.4136,2.4025,2.3855,2.3741,2.3312,2.2764,2.2615,0.937,0.9404,0.9692,0.9824,1.0012,1.1221,1.2174,1.2691,1.3012,1.3213,1.3264,1.4122,1.5032,1.5765,1.58,1.5962,1.6116,1.6274,1.6448,1.6747,1.7118,1.7264,1.7415,1.7627,1.7758,1.7789,1.7789,1.7789,1.7803,1.7803,1.7949,1.8166,1.841,1.8632,1.8843,1.9025,1.8957,1.8878,1.8734,1.8834,1.8981,1.9202,1.9146,1.9113,1.9106,1.918,1.9212,1.9243,1.9295,1.9295,1.9295,1.9295,1.9295,1.9424,1.9803,2.2602,2.3777,2.4171,2.4199,2.4199,2.4199,2.4199,2.4199,2.4161,2.4016,2.4045,2.4199,2.4199,2.4199,2.4199,2.4199,2.3762,2.3303,2.3185,2.3209,2.3242,2.3082,2.2959,2.2875,2.2526,2.2497,2.2901,2.3122,2.3113,2.3105,2.3063,2.2981,2.2924,2.3007,2.3239,2.3455,2.3896,2.3813,2.3122,2.3382,2.3976,2.4074,2.4074,2.3611,2.3164,2.2884,2.3026,2.3655,2.3885,2.3795,2.3513,2.328,2.3662,2.417,2.4199,2.4074,2.4054,2.3885,2.3335,2.2892,0.8501,0.8579,0.9141,0.958,1.0124,1.1206,1.2054,1.2573,1.3201,1.3382,1.3346,1.4308,1.5284,1.6097,1.6121,1.6199,1.6501,1.6696,1.685,1.7027,1.7344,1.7471,1.7595,1.7695,1.7758,1.7789,1.7811,1.7789,1.7825,1.7962,1.8125,1.8528,1.8706,1.886,1.9075,1.9189,1.9196,1.9099,1.9024,1.9081,1.9178,1.9295,1.9295,1.9295,1.9295,1.9295,1.9295,1.9295,1.9295,1.9295,1.9295,1.9295,1.9295,1.9406,2.0822,2.3244,2.408,2.4199,2.4199,2.4199,2.4199,2.4199,2.4199,2.419,2.417,2.417,2.4199,2.4199,2.4199,2.4199,2.4199,2.4142,2.3896,2.364,2.3804,2.3955,2.3825,2.3649,2.3294,2.2875,2.3016,2.3482,2.3637,2.3606,2.3522,2.3392,2.3346,2.3332,2.3464,2.368,2.3816,2.4065,2.3976,2.3689,2.4045,2.4199,2.4199,2.4199,2.4074,2.3655,2.3283,2.3399,2.3915,2.4103,2.4142,2.3867,2.3588,2.3837,2.4199,2.4199,2.4199,2.4151,2.4074,2.3885,2.3504,0.771,0.7798,0.8608,0.9514,1.0428,1.1342,1.2037,1.263,1.355,1.3722,1.3648,1.4576,1.5698,1.6455,1.6402,1.6474,1.6799,1.7052,1.7199,1.7352,1.7664,1.7808,1.783,1.7861,1.8005,1.7919,1.7905,1.8027,1.7992,1.8125,1.8469,1.8966,1.8975,1.9069,1.923,1.9283,1.9265,1.9234,1.9202,1.9225,1.924,1.9295,1.9295,1.9295,1.9295,1.9295,1.9295,1.9295,1.9295,1.9295,1.9295,1.9295,1.9376,1.9541,2.1393,2.3137,2.4272,2.4256,2.4256,2.4238,2.4228,2.4209,2.4199,2.4199,2.4199,2.4199,2.4199,2.4199,2.4199,2.4199,2.4199,2.4199,2.4045,2.3946,2.4045,2.4122,2.4045,2.3917,2.3732,2.3427,2.3549,2.3935,2.3976,2.3896,2.3846,2.3692,2.3662,2.3701,2.3795,2.4016,2.4094,2.4181,2.4084,2.3996,2.4074,2.4199,2.4199,2.4199,2.4199,2.4151,2.3792,2.3915,2.4151,2.4199,2.4199,2.4199,2.4094,2.4199,2.4199,2.4199,2.4199,2.4199,2.417,2.4103,2.4005,0.7695,0.7773,0.8592,0.9456,1.0399,1.1314,1.215,1.2961,1.3928,1.4253,1.4314,1.4857,1.5735,1.6651,1.6495,1.6617,1.7142,1.736,1.7471,1.7687,1.7992,1.8091,1.8163,1.8249,1.8322,1.8402,1.841,1.8351,1.8382,1.8508,1.8659,1.8966,1.9027,1.9134,1.9299,1.9295,1.9295,1.9295,1.9295,1.9311,1.9326,1.9295,1.9295,1.9295,1.9311,1.932,1.9335,1.9335,1.9311,1.9295,1.9295,1.9425,1.9667,1.9965,2.1803,2.421,2.4756,2.4559,2.4401,2.4366,2.4375,2.4275,2.4228,2.4218,2.4199,2.4199,2.4199,2.4199,2.4199,2.4199,2.4199,2.4199,2.4199,2.4199,2.4199,2.4199,2.4199,2.4142,2.4094,2.4103,2.4132,2.4151,2.4199,2.419,2.4142,2.4094,2.4065,2.4045,2.4025,2.4142,2.4142,2.419,2.419,2.4151,2.4199,2.4199,2.4199,2.4199,2.4199,2.4199,2.4199,2.4199,2.4199,2.4199,2.4199,2.4199,2.4199,2.4199,2.4199,2.4199,2.4199,2.4199,2.4199,2.417,2.417,0.7695,0.7783,0.8542,0.9392,1.0303,1.1131,1.2054,1.3026,1.3935,1.4412,1.4595,1.5151,1.5943,1.6716,1.6575,1.6868,1.7431,1.7653,1.7796,1.8018,1.8237,1.8351,1.845,1.8547,1.8519,1.8585,1.8613,1.8604,1.8734,1.8789,1.8914,1.9093,1.9134,1.9189,1.9295,1.9295,1.9311,1.9295,1.9311,1.9341,1.9414,1.9476,1.9522,1.9522,1.9414,1.9414,1.9518,1.9532,1.9513,1.9453,1.939,2.0056,2.0825,2.2064,2.3381,2.4628,2.5091,2.4923,2.4741,2.4623,2.4591,2.4495,2.4453,2.4512,2.4209,2.4199,2.4199,2.4199,2.4199,2.4199,2.4199,2.4199,2.4199,2.4199,2.4199,2.4199,2.4199,2.417,2.4142,2.417,2.417,2.417,2.4199,2.4199,2.417,2.417,2.419,2.419,2.419,2.4199,2.4199,2.4199,2.4199,2.4199,2.4199,2.4199,2.4199,2.4199,2.4199,2.4199,2.4199,2.4199,2.4199,2.4199,2.4199,2.4199,2.4199,2.4199,2.4199,2.4199,2.4199,2.4199,2.4199,2.4199,2.4199,0.7725,0.786,0.8573,0.9371,1.0193,1.0911,1.1859,1.2919,1.3762,1.4371,1.4805,1.5481,1.6161,1.6599,1.6884,1.7328,1.771,1.7945,1.8125,1.8302,1.8519,1.8604,1.866,1.8716,1.8762,1.8771,1.878,1.8887,1.9026,1.9043,1.9117,1.9292,1.9338,1.9344,1.9335,1.937,1.9405,1.94,1.9414,1.9448,1.9599,1.9793,1.9797,1.9716,1.9585,1.954,1.9716,1.9855,1.9824,2.0036,2.0066,2.0722,2.1892,2.3381,2.4183,2.5094,2.5202,2.5171,2.5149,2.4936,2.4892,2.4847,2.4847,2.467,2.4366,2.4312,2.4312,2.4228,2.4228,2.4209,2.4209,2.4219,2.4219,2.4209,2.4209,2.4199,2.4199,2.4199,2.4199,2.4199,2.4199,2.4199,2.4199,2.4199,2.4199,2.4199,2.4199,2.4199,2.4199,2.4199,2.4199,2.4199,2.4199,2.4199,2.4199,2.4199,2.4199,2.4199,2.4199,2.4199,2.4199,2.4199,2.4199,2.4199,2.4199,2.4199,2.4199,2.4199,2.4199,2.4199,2.4199,2.4199,2.4199,2.4199,2.4199,0.7894,0.8262,0.8986,0.953,1.001,1.0833,1.1655,1.2567,1.3633,1.4609,1.534,1.5666,1.6166,1.6783,1.7093,1.7474,1.7808,1.8095,1.8344,1.8528,1.8798,1.8878,1.8931,1.8999,1.9122,1.9113,1.9081,1.9205,1.923,1.923,1.9268,1.9335,1.9499,1.9541,1.955,1.9595,1.9654,1.9602,1.9522,1.9526,1.9859,1.9992,1.9982,1.9878,1.9743,1.9734,1.9845,2.0079,2.042,2.0854,2.1356,2.1804,2.2836,2.4119,2.4777,2.4965,2.5084,2.5244,2.5213,2.5105,2.5024,2.5103,2.5046,2.4873,2.4702,2.4687,2.4588,2.4375,2.433,2.4266,2.4266,2.4321,2.433,2.4266,2.4238,2.4209,2.4199,2.4199,2.4199,2.4199,2.4199,2.4199,2.4199,2.4199,2.4199,2.4199,2.4199,2.4199,2.4199,2.4199,2.4199,2.4209,2.4209,2.4199,2.4199,2.4199,2.4199,2.4199,2.4199,2.4199,2.4199,2.4199,2.42,2.4308,2.4248,2.4199,2.4199,2.4199,2.4199,2.4199,2.4199,2.4199,2.4209,2.4199,2.4199]},{"header":{"parameterUnit":"m.s-1","parameterCategory":1,"la1":31.0,"la2":29.5877,"lo1":-88.7671,"lo2":-86.6584,"dy":0.0162,"dx":0.0185,"nx":115,"ny":88,"refTime":"2024-06-13T18:00:00:Z","depth":0,"parameterNumber":3,"parameterNumberName":"V-component_of_WINDS"},"data":[0.0,0.0,0.0,0.0,0.0,0.0,0.0,0.0,0.0,0.0,0.0,0.0,0.0,0.0,0.0,0.0,0.0,0.0,0.0,0.0,0.0,0.0,0.0,0.0,0.0,0.0,0.0,0.0,0.0,0.0,0.0,0.0,0.0,0.0,0.0,0.0,0.0,0.0,0.0,0.0,0.0,0.0,0.0,0.0,0.0,0.0,0.0,0.0,0.0,0.0,0.0,0.0,0.0,0.0,0.0,0.0,0.0,0.0,0.0,0.0,0.0,0.0,0.0,0.0,0.0,0.0,0.0,0.0,0.0,0.0,0.0,0.0,0.0,0.0,0.0,0.0,0.0,0.0,0.0,0.0,0.0,0.0,0.0,0.0,0.0,0.0,0.0,0.0,0.0,0.0,0.0,0.0,0.0,0.0,0.0,0.0,0.0,0.0,0.0,0.0,0.0,0.0,0.0,0.0,0.0,0.0,0.0,0.0,0.0,0.0,0.0,0.0,0.0,0.0,0.0,0.0,0.0,0.0,0.0,0.0,0.0,0.0,0.0,0.0,0.0,0.0,0.0,0.0,0.0,0.0,0.0,0.0,0.0,0.0,0.0,0.0,0.0,0.0,0.0,0.0,0.0,0.0,0.0,0.0,0.0,0.0,0.0,0.0,0.0,0.0,0.0,0.0,0.0,0.0,0.0,0.0,0.0,0.0,0.0,0.0,0.0,0.0,0.0,0.0,0.0,0.0,0.0,0.0,0.0,0.0,0.0,0.0,0.0,0.0,0.0,0.0,0.0,0.0,0.0,0.0,0.0,0.0,0.0,0.0,0.0,0.0,0.0,0.0,0.0,0.0,0.0,0.0,0.0,0.0,0.0,0.0,0.0,0.0,0.0,0.0,0.0,0.0,0.0,0.0,0.0,0.0,0.0,0.0,0.0,0.0,0.0,0.0,0.0,0.0,0.0,0.0,0.0,0.0,0.0,0.0,0.0,0.0,0.0,0.0,0.0,0.0,0.0,0.0,0.0,0.0,0.0,0.0,0.0,0.0,0.0,0.0,0.0,0.0,0.0,0.0,0.0,0.0,0.0,0.0,0.0,0.0,0.0,0.0,0.0,0.0,0.0,0.0,0.0,0.0,0.0,0.0,0.0,0.0,0.0,0.0,0.0,0.0,0.0,0.0,0.0,0.0,0.0,0.0,0.0,0.0,0.0,0.0,0.0,0.0,0.0,0.0,0.0,0.0,0.0,0.0,0.0,0.0,0.0,0.0,0.0,0.0,0.0,0.0,0.0,0.0,0.0,0.0,0.0,0.0,0.0,0.0,0.0,0.0,0.0,0.0,0.0,0.0,0.0,0.0,0.0,0.0,0.0,0.0,0.0,0.0,0.0,0.0,0.0,0.0,0.0,0.0,0.0,0.0,0.0,0.0,0.0,0.0,0.0,0.0,0.0,0.0,0.0,0.0,0.0,0.0,0.0,0.0,0.0,0.0,0.0,0.0,0.0,0.0,0.0,0.0,0.0,0.0,0.0,0.0,0.0,0.0,0.0,0.0,0.0,0.0,0.0,0.0,0.0,0.0,0.0,0.0,0.0,0.0,0.0,0.0,0.0,0.0,0.0,0.0,0.0,0.0,0.0,0.0,0.0,0.0,0.0,0.0,0.0,0.0,0.0,0.0,0.0,0.0,0.0,0.0,0.0,0.0,0.0,0.0,0.0,0.0,0.0,0.0,0.0,0.0,0.0,0.0,0.0,0.0,0.0,0.0,0.0,0.0,0.0,0.0,0.0,0.0,0.0,0.0,0.0,0.0,0.0,0.0,0.0,0.0,0.0,0.0,0.0,0.0,0.0,0.0,0.0,0.0,0.0,0.0,0.0,0.0,0.0,0.0,0.0,0.0,0.0,0.0,0.0,0.0,0.0,0.0,0.0,0.0,0.0,0.0,0.0,0.0,0.0,0.0,0.0,0.0,0.0,0.0,0.0,0.0,0.0,0.0,0.0,0.0,0.0,0.0,0.0,0.0,0.0,0.0,0.0,0.0,0.0,0.0,0.0,0.0,0.0,0.0,0.0,0.0,0.0,0.0,0.0,0.0,0.0,0.0,0.0,0.0,0.0,0.0,0.0,0.0,0.0,0.0,0.0,0.0,0.0,0.0,0.0,0.0,0.0,0.0,0.0,0.0,0.0,0.0,0.0,0.0,0.0,0.0,0.0,0.0,0.0,0.0,0.0,0.0,0.0,0.0,0.0,0.0,0.0,0.0,0.0,0.0,0.0,0.0,0.0,0.0,0.0,0.0,0.0,0.0,0.0,0.0,0.0,0.0,0.0,0.0,0.0,0.0,0.0,0.0,0.0,0.0,0.0,0.0,0.0,0.0,0.0,0.0,0.0,0.0,0.0,0.0,0.0,0.0,0.0,0.0,0.0,0.0,0.0,0.0,0.0,0.0,0.0,0.0,0.0,0.0,0.0,0.0,0.0,0.0,0.0,0.0,0.0,0.0,0.0,0.0,0.0,0.0,0.0,0.0,0.0,0.0,0.0,0.0,0.0,0.0,0.0,0.0,0.0,0.0,0.0,0.0,0.0,0.0,0.0,0.0,0.0,0.0,0.0,0.0,0.0,0.0,0.0,0.0,0.0,0.0,0.0,0.0,0.0,0.0,0.0,0.0,0.0,0.0,0.0,0.0,0.0,0.0,0.0,0.0,0.0,0.0,0.0,0.0,0.0,0.0,0.0,0.0,0.0,0.0,0.0,0.0,0.0,0.0,0.0,0.0,0.0,0.0,0.0,0.0,0.0,0.0,0.0,0.0,0.0,0.0,0.0,0.0,0.0,0.0,0.0,0.0,0.0,0.0,0.0,0.0,0.0,0.0,0.0,0.0,0.0,0.0,0.0,0.0,0.0,0.0,0.0,0.0,0.0,0.0,0.0,0.0,0.0,0.0,0.0,0.0,0.0,0.0,0.0,0.0,0.0,0.0,0.0,0.0,0.0,0.0,0.0,0.0,0.0,0.0,0.0,0.0,0.0,0.0,0.0,0.0,0.0,0.0,0.0,0.0,0.0,0.0,0.0,0.0,0.0,0.0,0.0,0.0,0.0,0.0,0.0,0.0,0.0,0.0,0.0,0.0,0.0,0.0,0.0,0.0,0.0,0.0,0.0,0.0,0.0,0.0,0.0,0.0,0.0,0.0,0.0,0.0,0.0,0.0,0.0,0.0,0.0,0.0,0.0,0.0,0.0,0.0,0.0,0.0,0.0,0.0,0.0,0.0,0.0,0.0,0.0,0.0,0.0,0.0,0.0,0.0,0.0,0.0,0.0,0.0,0.0,0.0,0.0,0.0,0.0,0.0,0.0,0.0,0.0,0.0,0.0,0.0,0.0,0.0,0.0,0.0,0.0,0.0,0.0,0.0,0.0,0.0,0.0,0.0,0.0,0.0,0.0,0.0,0.0,0.0,0.0,0.0,0.0,0.0,0.0,0.0,0.0,0.0,0.0,0.0,0.0,0.0,0.0,0.0,0.0,0.0,0.0,0.0,0.0,0.0,0.0,0.0,0.0,0.0,0.0,0.0,0.0,0.0,0.0,0.0,0.0,0.0,0.0,0.0,0.0,0.0,0.0,0.0,0.0,0.0,0.0,0.0,0.0,0.0,0.0,0.0,0.0,0.0,0.0,0.0,0.0,0.0,0.0,0.0,0.0,0.0,0.0,0.0,0.0,0.0,0.0,0.0,0.0,0.0,0.0,0.0,0.0,0.0,0.0,0.0,0.0,0.0,0.0,0.0,0.0,0.0,0.0,0.0,0.0,0.0,0.0,0.0,0.0,0.0,0.0,0.0,0.0,0.0,0.0,0.0,0.0,0.0,0.0,0.0,0.0,0.0,0.0,0.0,0.0,0.0,0.0,0.0,0.0,0.0,0.0,0.0,0.0,0.0,0.0,0.0,0.0,0.0,0.0,0.0,0.0,0.0,0.0,0.0,0.0,0.0,0.0,0.0,0.0,0.0,0.0,0.0,0.0,0.0,0.0,0.0,0.0,0.0,0.0,0.0,0.0,0.0,0.0,0.0,0.0,0.0,0.0,0.0,0.0,0.0,0.0,0.0,0.0,0.0,0.0,0.0,0.0,0.0,0.0,0.0,0.0,0.0,0.0,0.0,0.0,0.0,0.0,0.0,0.0,0.0,0.0,0.0,0.0,0.0,0.0,0.0,0.0,0.0,0.0,0.0,0.0,0.0,0.0,0.0,0.0,0.0,0.0,0.0,0.0,0.0,0.0,0.0,0.0,0.0,-0.1407,0.0,0.0,0.0,0.0,0.0,0.0,0.0,0.0,0.0,0.0,0.0,0.0,0.0,0.0,0.0,0.0,0.0,0.0,0.0,0.0,0.0,0.0,0.0,0.0,0.0,0.0,0.0,0.0,0.0,0.0,0.0,0.0,0.0,0.0,0.0,0.0,0.0,0.0,0.0,0.0,0.0,0.0,0.0,0.0,0.0,0.0,0.0,0.0,0.0,0.0,0.0,0.0,0.0,0.0,0.0,0.0,0.0,0.0,0.0,0.0,0.0,0.0,0.0,0.0,0.0,0.0,0.0,0.0,0.0,0.0,0.0,0.0,0.0,0.0,0.0,0.0,0.0,0.0,0.0,0.0,0.0,0.0,0.0,0.0,0.0,0.0,0.0,0.0,0.0,0.0,0.0,0.0,0.0,0.0,0.0,0.0,0.0,0.0,0.0,0.0,0.0,0.0,0.0,0.0,0.0,0.0,0.0,0.0,0.0,0.0,-0.3296,-0.3015,-0.2972,-0.2706,-0.2214,0.0,0.0,0.0,0.0,0.0,0.0,0.0,0.0,0.0,0.0,0.0,0.0,0.0,0.0,0.0,0.0,0.0,0.0,0.0,0.0,0.0,0.0,0.0,0.0,0.0,0.0,0.0,0.0,0.0,0.0,0.0,0.0,0.0,0.0,0.0,0.0,0.0,0.0,0.0,0.0,0.0,0.0,0.0,0.0,0.0,0.0,0.0,0.0,0.0,0.0,0.0,0.0,0.0,0.0,0.0,0.0,0.0,0.0,0.0,0.0,0.0,0.0,0.0,0.0,0.0,0.0,0.0,0.0,0.0,0.0,0.0,0.0,0.0,0.0,0.0,0.0,0.0,0.0,0.0,0.0,0.0,0.0,0.0,0.0,0.0,0.0,0.0,0.0,0.0,0.0,0.0,0.0,0.0,0.0,0.0,0.0,0.0,0.0,0.0,0.0,0.0,0.0,0.0,0.0,0.0,0.0,0.0,0.0,0.0,0.0,0.0,0.0,-0.3108,-0.3124,-0.303,0.0,0.0,0.0,0.0,0.0,0.0,0.0,0.0,0.0,0.0,0.0,0.0,0.0,0.0,0.0,0.0,0.0,0.0,0.0,0.0,0.0,0.0,0.0,0.0,0.0,0.0,0.0,0.0,0.0,0.0,0.0,0.0,0.0,0.0,0.0,0.0,0.0,0.0,0.0,0.0,0.0,0.0,0.0,0.0,0.0,0.0,0.0,0.0,0.0,0.0,0.0,0.0,0.0,0.0,0.0,0.0,0.0,0.0,0.0,0.0,0.0,0.0,0.0,0.0,0.0,0.0,0.0,0.0,0.0,0.0,0.0,0.0,0.0,0.0,0.0,0.0,0.0,0.0,0.0,0.0,0.0,0.0,0.0,0.0,0.0,0.0,0.0,0.0,0.0,0.0,0.0,0.0,0.0,0.0,0.0,0.0,0.0,0.0,0.0,0.0,0.0,0.0,0.0,0.0,0.0,0.0,0.0,0.0,0.0,0.0,-0.3205,-0.3164,-0.3304,0.0,-0.338,0.0,0.0,0.0,0.0,0.0,0.0,0.0,0.0,0.0,0.0,0.0,0.0,0.0,0.0,0.0,0.0,0.0,0.0,0.0,0.0,0.0,0.0,0.0,0.0,0.0,0.0,0.0,0.0,0.0,0.0,0.0,0.0,0.0,0.0,0.0,0.0,0.0,0.0,0.0,0.0,0.0,0.0,0.0,0.0,0.0,0.0,0.0,0.0,0.0,0.0,0.0,0.0,0.0,0.0,0.0,0.0,0.0,0.0,0.0,0.0,0.0,0.0,0.0,0.0,0.0,0.0,0.0,0.0,0.0,0.0,0.0,0.0,0.0,0.0,0.0,0.0,0.0,0.0,0.0,0.0,0.0,0.0,0.0,0.0,0.0,0.0,0.0,0.0,0.0,0.0,0.0,0.0,0.0,0.0,0.0,0.0,0.0,0.0,0.0,0.0,0.0,0.0,0.0,0.0,0.0,0.0,0.0,0.0,0.0,0.0,0.0,-0.3069,-0.3277,-0.3443,0.0,0.0,0.0,0.0,0.0,0.0,0.0,0.0,0.0,0.0,0.0,0.0,0.0,0.0,0.0,0.0,0.0,0.0,0.0,0.0,0.0,0.0,0.0,0.0,0.0,0.0,0.0,0.0,0.0,0.0,0.0,0.0,0.0,0.0,0.0,0.0,0.0,0.0,0.0,0.0,0.0,0.0,0.0,0.0,0.0,0.0,0.0,0.0,0.0,0.0,0.0,0.0,0.0,0.0,0.0,0.0,0.0,0.0,0.0,0.0,0.0,0.0,0.0,0.0,0.0,0.0,0.0,0.0,0.0,0.0,0.0,0.0,0.0,0.0,0.0,0.0,0.0,0.0,0.0,0.0,0.0,0.0,0.0,0.0,0.0,0.0,0.0,0.0,0.0,0.0,0.0,0.0,0.0,0.0,0.0,0.0,0.0,0.0,0.0,0.0,0.0,0.0,0.0,0.0,0.0,0.0,0.0,0.0,0.0,0.0,-0.2887,0.0,-0.3156,-0.3384,-0.354,-0.363,0.0,0.0,0.0,0.0,0.0,0.0,0.0,0.0,0.0,0.0,0.0,0.0,0.0,0.0,0.0,0.0,0.0,0.0,0.0,0.0,0.0,0.0,0.0,0.0,0.0,0.0,0.0,0.0,0.0,0.0,0.0,0.0,0.0,0.0,0.0,0.0,0.0,0.0,0.0,0.0,0.0,0.0,0.0,0.0,0.0,0.0,0.0,0.0,0.0,0.0,0.0,0.0,0.0,0.0,0.0,0.0,0.0,0.0,0.0,0.0,0.0,0.0,0.0,0.0,0.0,0.0,0.0,0.0,0.0,0.0,0.0,0.0,0.0,0.0,0.0,0.0,0.0,0.0,0.0,0.0,0.0,0.0,0.0,0.0,0.0,0.0,0.0,0.0,0.0,0.0,0.0,0.0,0.0,0.0,0.0,0.0,0.0,0.0,0.0,0.0,0.0,0.0,0.0,0.0,0.0,0.0,0.0,0.0,0.0,-0.2888,-0.2904,-0.3458,-0.3666,-0.3747,0.0,0.0,0.0,0.0,0.0,0.0,0.0,0.0,0.0,0.0,0.0,0.0,0.0,0.0,0.0,0.0,0.0,0.0,0.0,0.0,0.0,0.0,0.0,0.0,0.0,0.0,0.0,0.0,0.0,0.0,0.0,0.0,0.0,0.0,0.0,0.0,0.0,0.0,0.0,0.0,0.0,0.0,0.0,0.0,0.0,0.0,0.0,0.0,0.0,0.0,0.0,0.0,0.0,0.0,0.0,0.0,0.0,0.0,0.0,0.0,0.0,0.0,0.0,0.0,0.0,0.0,0.0,0.0,0.0,0.0,0.0,0.0,0.0,0.0,0.0,0.0,0.0,0.0,0.0,0.0,0.0,0.0,0.0,0.0,0.0,0.0,0.0,0.0,0.0,0.0,0.0,0.0,0.0,0.0,0.0,0.0,0.0,0.0,0.0,0.0,0.0,0.0,0.0,0.0,0.0,0.0,0.0,0.0,0.0,-0.2041,-0.2478,-0.3003,-0.3608,-0.3689,-0.3668,0.0,0.0,0.0,0.0,0.0,0.0,0.0,0.0,0.0,0.0,0.0,0.0,0.0,0.0,0.0,0.0,0.0,0.0,0.0,0.0,0.0,0.0,0.0,0.0,0.0,0.0,0.0,0.0,0.0,0.0,0.0,0.0,0.0,0.0,0.0,0.0,0.0,0.0,0.0,0.0,0.0,0.0,0.0,0.0,0.0,0.0,0.0,0.0,0.0,0.0,0.0,0.0,0.0,0.0,0.0,0.0,0.0,0.0,0.0,0.0,0.0,0.0,0.0,0.0,0.0,0.0,0.0,0.0,0.0,0.0,0.0,0.0,0.0,0.0,0.0,0.0,0.0,0.0,0.0,0.0,0.0,0.0,0.0,0.0,0.0,0.0,0.0,0.0,0.0,0.0,0.0,0.0,0.0,0.0,0.0,0.0,0.0,0.0,0.0,0.0,0.0,0.0,0.0,0.0,0.0,0.0,0.0,0.0,0.0,-0.1705,0.0,-0.2955,0.0,-0.3333,-0.3143,0.0,0.0,0.0,0.0,0.0,0.0,0.0,0.0,0.0,0.0,0.0,0.0,0.0,0.0,0.0,0.0,0.0,0.0,0.0,0.0,0.0,0.0,0.0,0.0,0.0,0.0,0.0,0.0,0.0,0.0,0.0,0.0,0.0,0.0,0.0,0.0,0.0,0.0,0.0,0.0,0.0,0.0,0.0,0.0,0.0,0.0,0.0,0.0,0.0,0.0,0.0,0.0,0.0,0.0,0.0,0.0,0.0,0.0,0.0,0.0,0.0,0.0,0.0,0.0,0.0,0.0,0.0,0.0,0.0,0.0,0.0,0.0,0.0,0.0,0.0,0.0,0.0,0.0,0.0,0.0,0.0,0.0,0.0,0.0,0.0,0.0,0.0,0.0,0.0,0.0,0.0,0.0,0.0,0.0,0.0,0.0,0.0,0.0,0.0,0.0,0.0,0.0,0.0,0.0,0.0,0.0,0.0,0.0,-0.1995,-0.2547,-0.2696,-0.2673,-0.2427,-0.2562,-0.222,0.0,0.0,0.0,0.0,0.0,0.0,0.0,0.0,0.0,0.0,0.0,0.0,0.0,0.0,0.0,0.0,0.0,0.0,0.0,0.0,0.0,0.0,0.0,0.0,0.0,0.0,0.0,0.0,0.0,0.0,0.0,0.0,0.0,0.0,0.0,0.0,0.0,0.0,0.0,0.0,0.0,0.0,0.0,0.0,0.0,0.0,0.0,0.0,0.0,0.0,0.0,0.0,0.0,0.0,0.0,0.0,0.0,0.0,0.0,0.0,0.0,0.0,0.0,0.0,0.0,0.0,0.0,0.0,0.0,0.0,0.0,0.0,0.0,0.0,0.0,0.0,0.0,0.0,0.0,0.0,0.0,0.0,0.0,0.0,0.0,0.0,0.0,0.0,0.0,0.0,0.0,0.0,0.0,0.0,0.0,0.0,0.0,0.0,0.0,0.0,0.0,0.0,0.0,0.0,0.0,0.0,0.0,0.0,0.0,-0.2582,-0.2361,-0.2434,-0.2782,-0.2534,-0.2297,0.0,0.0,0.0,0.0,0.0,0.0,0.0,0.0,0.0,0.0,0.0,0.0,0.0,0.0,0.0,0.0,0.0,0.0,0.0,0.0,0.0,0.0,0.0,0.0,0.0,0.0,0.0,0.0,0.0,0.0,0.0,0.0,0.0,0.0,0.0,0.0,0.0,0.0,0.0,0.0,0.0,0.0,0.0,0.0,0.0,0.0,0.0,0.0,0.0,0.0,0.0,0.0,0.0,0.0,0.0,0.0,0.0,0.0,0.0,0.0,0.0,0.0,0.0,0.0,0.0,0.0,0.0,0.0,0.0,0.0,0.0,0.0,0.0,0.0,0.0,0.0,0.0,0.0,0.0,0.0,0.0,0.0,0.0,0.0,0.0,0.0,0.0,0.0,0.0,0.0,0.0,0.0,0.0,0.0,0.0,0.0,0.0,0.0,0.0,0.0,0.0,0.0,0.0,0.0,0.0,0.0,0.0,0.0,0.0,-0.3302,-0.2962,-0.2946,-0.3379,-0.3024,-0.2745,-0.2501,0.0,0.0,0.0,0.0,0.0,0.0,0.0,0.0,0.0,0.0,0.0,0.0,0.0,0.0,0.0,0.0,0.0,0.0,0.0,0.0,0.0,0.0,0.0,0.0,0.0,0.0,0.0,0.0,0.0,0.0,0.0,0.0,0.0,0.0,0.0,0.0,0.0,0.0,0.0,0.0,0.0,0.0,0.0,0.0,0.0,0.0,0.0,0.0,0.0,0.0,0.0,0.0,0.0,0.0,0.0,0.0,0.0,0.0,0.0,0.0,0.0,0.0,0.0,0.0,0.0,0.0,0.0,0.0,0.0,0.0,0.0,0.0,0.0,0.0,0.0,0.0,0.0,0.0,0.0,0.0,0.0,0.0,0.0,0.0,0.0,0.0,0.0,0.0,0.0,0.0,0.0,0.0,0.0,0.0,0.0,0.0,0.0,0.0,0.0,0.0,0.0,0.0,0.0,0.0,0.0,0.0,0.0,0.0,-0.4745,-0.4479,-0.4288,-0.4179,-0.3955,-0.3463,0.0,0.0,0.0,0.0,0.0,0.0,0.0,0.0,0.0,0.0,0.0,0.0,0.0,0.0,0.0,0.0,0.0,0.0,0.0,0.0,0.0,0.0,0.0,0.0,0.0,0.0,0.0,0.0,0.0,0.0,0.0,0.0,0.0,0.0,0.0,0.0,0.0,0.0,0.0,0.0,0.0,0.0,0.0,0.0,0.0,0.0,0.0,0.0,0.0,0.0,0.0,0.0,0.0,0.0,0.0,0.0,0.0,0.0,0.0,0.0,0.0,0.0,0.0,0.0,0.0,0.0,0.0,0.0,0.0,0.0,0.0,0.0,0.0,0.0,0.0,0.0,0.0,0.0,0.0,0.0,0.0,0.0,0.0,0.0,0.0,0.0,0.0,0.0,0.0,0.0,0.0,0.0,0.0,0.0,0.0,0.0,0.0,0.0,0.0,0.0,0.0,0.0,0.0,0.0,0.0,0.0,0.0,0.0,0.0,-0.6724,-0.7834,-0.7657,-0.6176,-0.4909,-0.4389,0.0,0.0,0.0,0.0,0.0,0.0,0.0,0.0,0.0,0.0,0.0,0.0,0.0,0.0,0.0,0.0,0.0,0.0,0.0,0.0,0.0,0.0,0.0,0.0,0.0,0.0,0.0,0.0,0.0,0.0,0.0,0.0,0.0,0.0,0.0,0.0,0.0,0.0,0.0,0.0,0.0,0.0,0.0,0.0,0.0,0.0,0.0,0.0,0.0,0.0,0.0,0.0,0.0,0.0,0.0,0.0,0.0,0.0,0.0,0.0,0.0,0.0,0.0,0.0,0.0,0.0,0.0,0.0,0.0,0.0,0.0,0.0,0.0,0.0,0.0,0.0,0.0,0.0,0.0,0.0,0.0,0.0,0.0,0.0,0.0,0.0,0.0,0.0,0.0,0.0,0.0,0.0,0.0,0.0,0.0,0.0,0.0,0.0,0.0,0.0,0.0,0.0,0.0,0.0,0.0,0.0,0.0,0.0,-0.5721,-0.7979,-0.9447,-0.9648,-0.8527,-0.6518,-0.5357,0.0,0.0,0.0,0.0,0.0,0.0,0.0,0.0,0.0,0.0,0.0,0.0,0.0,0.0,0.0,0.0,0.0,0.0,0.0,0.0,0.0,0.0,0.0,0.0,0.0,0.0,0.0,0.0,0.0,0.0,0.0,0.0,0.0,0.0,0.0,0.0,0.0,0.0,0.0,0.0,0.0,0.0,0.0,0.0,0.0,0.0,0.0,0.0,0.0,0.0,0.0,0.0,0.0,0.0,0.0,0.0,0.0,0.0,0.0,0.0,0.0,0.0,0.0,0.0,0.0,0.0,0.0,0.0,0.0,0.0,0.0,0.0,0.0,0.0,0.0,0.0,0.0,0.0,0.0,0.0,0.0,0.0,0.0,0.0,0.0,0.0,0.0,0.0,0.0,0.0,0.0,0.0,0.0,0.0,0.0,0.0,0.0,0.0,0.0,0.0,0.0,0.0,0.0,0.0,0.0,0.0,0.0,0.0,-0.7286,-0.8737,-0.9977,-1.0656,-1.0689,-0.8265,-0.6343,0.0,0.0,0.0,0.0,0.0,0.0,0.0,0.0,0.0,0.0,0.0,0.0,0.0,0.0,0.0,0.0,0.0,0.0,0.0,0.0,0.0,0.0,0.0,0.0,0.0,0.0,0.0,0.0,0.0,0.0,0.0,0.0,0.0,0.0,0.0,0.0,0.0,0.0,0.0,0.0,0.0,0.0,0.0,0.0,0.0,0.0,0.0,0.0,0.0,0.0,0.0,0.0,0.0,0.0,0.0,0.0,0.0,0.0,0.0,0.0,0.0,0.0,0.0,0.0,0.0,0.0,0.0,0.0,0.0,0.0,0.0,0.0,0.0,0.0,0.0,0.0,0.0,0.0,0.0,0.0,0.0,0.0,0.0,0.0,0.0,0.0,0.0,0.0,0.0,0.0,0.0,0.0,0.0,0.0,0.0,0.0,0.0,0.0,0.0,0.0,0.0,0.0,0.0,0.0,0.0,0.0,0.0,0.0,-0.8326,-0.9821,-1.0348,-1.0751,-1.1095,-0.8587,-0.6939,0.0,0.0,0.0,0.0,0.0,0.0,0.0,0.0,0.0,0.0,0.0,0.0,0.0,0.0,0.0,0.0,0.0,0.0,0.0,0.0,0.0,0.0,0.0,0.0,0.0,0.0,0.0,0.0,0.0,0.0,0.0,0.0,0.0,0.0,0.0,0.0,0.0,0.0,0.0,0.0,0.0,0.0,0.0,0.0,0.0,0.0,0.0,0.0,-0.4527,0.0,0.0,0.0,0.0,0.0,0.0,0.0,0.0,0.0,0.0,0.0,0.0,0.0,0.0,0.0,0.0,0.0,0.0,0.0,0.0,0.0,0.0,0.0,0.0,0.0,0.0,0.0,0.0,0.0,0.0,0.0,0.0,0.0,0.0,0.0,0.0,0.0,0.0,0.0,0.0,0.0,0.0,0.0,0.0,0.0,0.0,0.0,0.0,0.0,0.0,0.0,0.0,0.0,0.0,0.0,0.0,0.0,0.0,0.0,-0.8837,-1.0583,-1.0701,-1.0877,-1.111,-0.9194,-0.7722,0.0,0.0,0.0,0.0,0.0,0.0,0.0,0.0,0.0,0.0,0.0,0.0,0.0,0.0,0.0,0.0,0.0,0.0,0.0,0.0,0.0,0.0,0.0,0.0,0.0,0.0,0.0,0.0,0.0,0.0,0.0,0.0,0.0,0.0,0.0,0.0,0.0,0.0,0.0,0.0,0.0,0.0,0.0,0.0,0.0,0.0,0.0,0.0,0.0,0.0,0.0,0.0,0.0,0.0,0.0,0.0,0.0,0.0,0.0,0.0,0.0,0.0,0.0,0.0,0.0,0.0,0.0,0.0,0.0,0.0,0.0,0.0,0.0,0.0,0.0,0.0,0.0,0.0,0.0,0.0,0.0,0.0,0.0,0.0,0.0,0.0,0.0,0.0,0.0,0.0,0.0,0.0,0.0,0.0,0.0,0.0,0.0,0.0,0.0,0.0,0.0,0.0,0.0,0.0,0.0,0.0,0.0,-0.7713,-0.906,-1.1164,-1.1085,-1.1027,-1.113,-0.987,-0.8427,-0.6879,0.0,0.0,0.0,0.0,0.0,0.0,0.0,0.0,0.0,0.0,0.0,0.0,0.0,0.0,0.0,0.0,0.0,0.0,0.0,0.0,0.0,0.0,0.0,0.0,0.0,0.0,0.0,0.0,0.0,0.0,0.0,0.0,0.0,0.0,0.0,0.0,0.0,0.0,-0.4515,-0.4189,0.0,0.0,0.0,0.0,0.0,0.0,0.0,0.0,-0.5768,0.0,0.0,0.0,0.0,0.0,0.0,0.0,0.0,0.0,0.0,0.0,0.0,0.0,0.0,0.0,0.0,0.0,0.0,0.0,0.0,0.0,0.0,0.0,0.0,0.0,0.0,0.0,0.0,0.0,0.0,0.0,0.0,0.0,0.0,0.0,0.0,0.0,0.0,0.0,0.0,0.0,0.0,0.0,0.0,0.0,0.0,0.0,0.0,0.0,0.0,0.0,0.0,0.0,0.0,0.0,0.0,-0.7797,-0.795,-0.9193,-1.16,-1.1385,-1.1153,-1.0935,-1.002,-0.8687,-0.6989,0.0,0.0,0.0,0.0,0.0,0.0,0.0,0.0,0.0,0.0,0.0,0.0,0.0,0.0,0.0,0.0,0.0,0.0,0.0,0.0,0.0,0.0,0.0,0.0,0.0,0.0,0.0,0.0,0.0,0.0,0.0,0.0,0.0,0.0,0.0,0.0,0.0,0.0,0.0,-0.5662,-0.5537,0.0,0.0,0.0,0.0,0.0,0.0,0.0,0.0,-0.6696,0.0,0.0,0.0,0.0,0.0,0.0,0.0,0.0,0.0,0.0,0.0,0.0,0.0,0.0,0.0,0.0,0.0,0.0,0.0,0.0,0.0,0.0,0.0,0.0,0.0,0.0,0.0,0.0,0.0,0.0,0.0,0.0,0.0,0.0,0.0,0.0,0.0,0.0,0.0,0.0,0.0,0.0,0.0,0.0,0.0,0.0,0.0,0.0,0.0,0.0,0.0,0.0,0.0,0.0,0.0,-0.7971,-0.8404,-0.9616,-1.17,-1.1468,-1.1173,-1.0883,-0.9763,-0.8438,0.0,0.0,0.0,0.0,0.0,0.0,0.0,0.0,0.0,0.0,0.0,0.0,0.0,0.0,0.0,0.0,0.0,0.0,0.0,0.0,0.0,0.0,0.0,0.0,0.0,0.0,0.0,0.0,0.0,0.0,0.0,0.0,0.0,0.0,0.0,0.0,0.0,0.0,0.0,0.0,-0.6618,-0.6942,-0.6935,0.0,0.0,0.0,0.0,0.0,0.0,-0.8302,-0.8433,0.0,0.0,0.0,0.0,0.0,0.0,0.0,0.0,0.0,0.0,0.0,0.0,0.0,0.0,0.0,0.0,0.0,0.0,0.0,0.0,0.0,0.0,0.0,0.0,0.0,0.0,0.0,0.0,0.0,0.0,0.0,0.0,0.0,0.0,0.0,0.0,0.0,0.0,0.0,0.0,0.0,0.0,0.0,0.0,0.0,0.0,0.0,0.0,0.0,0.0,0.0,0.0,0.0,0.0,0.0,-0.8092,-0.8764,-0.9985,-1.1693,-1.1534,-1.1242,-1.0876,-0.9664,-0.8323,0.0,0.0,0.0,0.0,0.0,0.0,0.0,0.0,0.0,0.0,0.0,0.0,0.0,0.0,0.0,0.0,0.0,0.0,0.0,0.0,0.0,0.0,0.0,0.0,0.0,0.0,0.0,0.0,0.0,0.0,0.0,0.0,0.0,0.0,0.0,0.0,0.0,0.0,0.0,0.0,0.0,-0.8553,-0.8664,-0.7583,0.0,0.0,0.0,0.0,-0.7703,-0.976,0.0,0.0,0.0,0.0,0.0,0.0,0.0,0.0,0.0,0.0,0.0,0.0,0.0,0.0,0.0,0.0,0.0,0.0,0.0,0.0,0.0,0.0,0.0,0.0,0.0,0.0,0.0,0.0,0.0,0.0,0.0,0.0,0.0,0.0,0.0,0.0,0.0,0.0,0.0,0.0,0.0,0.0,0.0,0.0,0.0,0.0,0.0,0.0,0.0,0.0,0.0,0.0,0.0,0.0,0.0,0.0,-0.8079,-0.8757,-0.9977,-1.1699,-1.1754,-1.1497,-1.0907,-1.0257,-0.898,0.0,0.0,0.0,0.0,0.0,0.0,0.0,0.0,0.0,0.0,0.0,0.0,0.0,0.0,0.0,0.0,0.0,0.0,0.0,0.0,0.0,0.0,0.0,0.0,0.0,0.0,0.0,0.0,0.0,0.0,0.0,0.0,0.0,0.0,0.0,0.0,0.0,0.0,0.0,0.0,0.0,-1.0755,-1.1285,-1.0352,-0.8758,0.0,0.0,-0.5308,-0.7732,-0.8241,0.0,0.0,0.0,0.0,0.0,0.0,0.0,0.0,0.0,0.0,0.0,0.0,0.0,0.0,0.0,0.0,0.0,0.0,0.0,0.0,0.0,0.0,0.0,0.0,0.0,0.0,0.0,0.0,0.0,0.0,0.0,0.0,0.0,0.0,0.0,0.0,0.0,0.0,0.0,0.0,0.0,0.0,0.0,0.0,0.0,0.0,0.0,0.0,0.0,0.0,0.0,0.0,0.0,0.0,0.0,-0.6978,-0.8086,-0.9142,-1.0365,-1.1744,-1.1819,-1.1512,-1.0927,-0.9985,-0.8667,0.0,0.0,0.0,0.0,0.0,0.0,0.0,0.0,0.0,0.0,0.0,0.0,0.0,0.0,0.0,0.0,0.0,0.0,0.0,0.0,0.0,0.0,0.0,0.0,0.0,0.0,0.0,0.0,0.0,0.0,0.0,0.0,0.0,0.0,0.0,0.0,0.0,0.0,0.0,0.0,0.0,0.0,-1.1578,-1.0741,0.0,0.0,0.0,-0.5549,-0.9578,0.0,0.0,0.0,0.0,0.0,0.0,0.0,0.0,0.0,0.0,0.0,0.0,0.0,0.0,0.0,0.0,0.0,0.0,0.0,0.0,0.0,0.0,0.0,0.0,0.0,0.0,0.0,0.0,0.0,0.0,0.0,0.0,0.0,0.0,0.0,0.0,0.0,0.0,0.0,0.0,0.0,0.0,0.0,0.0,0.0,0.0,0.0,0.0,0.0,0.0,0.0,0.0,0.0,0.0,0.0,0.0,0.0,-0.8081,-0.942,-1.0655,-1.1774,-1.1819,-1.1556,-1.0996,-0.9767,0.0,0.0,0.0,0.0,0.0,0.0,0.0,0.0,0.0,0.0,0.0,0.0,0.0,0.0,0.0,0.0,0.0,0.0,0.0,0.0,0.0,0.0,0.0,0.0,0.0,0.0,0.0,-0.0438,0.0,0.0,0.0,0.0,0.0,0.0,0.0,0.0,0.0,0.0,0.0,0.0,0.0,0.0,-0.9754,-1.118,-1.1382,-1.1244,0.0,0.0,-0.7251,-1.1184,-1.2358,-1.2239,0.0,0.0,0.0,0.0,0.0,0.0,0.0,0.0,0.0,0.0,0.0,0.0,0.0,0.0,0.0,0.0,0.0,0.0,0.0,0.0,0.0,0.0,0.0,0.0,0.0,0.0,0.0,0.0,0.0,0.0,0.0,0.0,0.0,0.0,0.0,0.0,0.0,0.0,0.0,0.0,0.0,0.0,0.0,0.0,0.0,0.0,0.0,0.0,0.0,0.0,0.0,0.0,0.0,0.0,0.0,-0.8088,-0.942,-1.0655,-1.1759,-1.1819,-1.163,-1.1273,-1.0113,-0.8736,0.0,0.0,0.0,0.0,0.0,0.0,0.0,0.0,0.0,0.0,0.0,0.0,0.0,0.0,0.0,0.0,0.0,0.0,0.0,0.0,0.0,0.0,0.0,0.0,0.0,0.0,0.0,0.0,0.0,0.0,0.0,0.0,0.0,0.0,0.0,0.0,0.0,0.0,0.0,0.0,0.0,-1.1578,-1.0371,-1.318,-1.4952,0.0,0.0,-1.1416,-1.1738,-1.3902,-1.4667,-1.2082,0.0,0.0,0.0,0.0,0.0,0.0,0.0,0.0,0.0,0.0,0.0,0.0,0.0,0.0,0.0,0.0,0.0,0.0,0.0,0.0,0.0,0.0,0.0,0.0,0.0,0.0,0.0,0.0,0.0,0.0,0.0,0.0,0.0,0.0,0.0,0.0,0.0,0.0,0.0,0.0,0.0,0.0,0.0,0.0,0.0,0.0,0.0,0.0,0.0,0.0,0.0,0.0,0.0,-0.6905,-0.8326,-0.9427,-1.064,-1.1984,-1.1883,-1.163,-1.1303,-1.0526,-0.9206,0.0,0.0,0.0,0.0,0.0,0.0,0.0,0.0,0.0,0.0,0.0,0.0,0.0,0.0,0.0,0.0,0.0,0.0,0.0,0.0,0.0,0.0,0.0,0.0,0.0,0.0,0.0,0.0,-0.6269,-0.7081,-0.6242,0.0,0.0,0.0,0.0,0.0,0.0,0.0,0.0,0.0,0.0,-1.1409,-1.1187,-1.38,0.0,0.0,-1.4057,-1.3959,-1.3159,-1.3196,-1.2996,-1.1962,-0.8198,0.0,0.0,0.0,0.0,0.0,0.0,0.0,0.0,0.0,0.0,0.0,0.0,0.0,0.0,0.0,0.0,0.0,0.0,0.0,0.0,0.0,0.0,0.0,0.0,0.0,0.0,0.0,0.0,0.0,0.0,0.0,0.0,0.0,0.0,0.0,0.0,0.0,0.0,0.0,0.0,0.0,0.0,0.0,0.0,0.0,0.0,0.0,0.0,0.0,0.0,0.0,0.0,-0.7297,-0.838,-0.9561,-1.0802,-1.2058,-1.1897,-1.1703,-1.1446,-1.0724,-0.947,0.0,0.0,0.0,0.0,0.0,0.0,0.0,0.0,0.0,0.0,0.0,0.0,0.0,0.0,0.0,0.0,0.0,0.0,0.0,0.0,0.0,0.0,0.0,0.0,0.0,0.0,0.0,0.0,-0.5339,-0.6325,-0.5406,0.0,0.0,0.0,0.0,0.0,0.0,0.0,0.0,0.0,0.0,-1.1753,-1.1817,-1.4097,-1.5326,-1.4004,-1.4917,-1.5469,-1.4535,-1.2934,-1.1543,-1.0758,0.0,0.0,0.0,0.0,0.0,0.0,0.0,0.0,0.0,0.0,0.0,0.0,0.0,0.0,0.0,0.0,0.0,0.0,0.0,0.0,0.0,0.0,0.0,0.0,0.0,0.0,0.0,0.0,0.0,0.0,0.0,0.0,0.0,0.0,0.0,0.0,0.0,0.0,0.0,0.0,0.0,0.0,0.0,0.0,0.0,0.0,0.0,0.0,0.0,0.0,0.0,0.0,0.0,-0.8071,-0.8149,-0.9851,-1.1117,-1.1796,-1.1819,-1.1812,-1.1732,-1.0635,-0.9485,-0.8345,0.0,0.0,0.0,0.0,0.0,0.0,0.0,0.0,0.0,0.0,0.0,0.0,0.0,0.0,0.0,0.0,0.0,0.0,0.0,0.0,0.0,0.0,0.0,0.0,0.0,0.0,-0.348,-0.3722,-0.4062,0.0,0.0,0.0,0.0,0.0,0.0,0.0,0.0,0.0,0.0,-1.1143,-1.3045,-1.2036,-1.4105,-1.5324,-1.4004,-1.4894,-1.5739,-1.5679,-1.3496,-1.0922,0.0,0.0,0.0,0.0,0.0,0.0,0.0,0.0,0.0,0.0,0.0,0.0,0.0,0.0,0.0,0.0,0.0,0.0,0.0,0.0,0.0,0.0,0.0,0.0,0.0,0.0,0.0,-0.3907,-0.2189,0.0,0.0,0.0,0.0,0.0,0.0,0.0,0.0,0.0,0.0,0.0,-0.6378,-0.6115,0.0,0.0,0.0,0.0,0.0,0.0,0.0,0.0,0.0,0.0,0.0,0.0,-0.8158,-0.8369,-0.9967,-1.1205,-1.203,-1.1883,-1.1703,-1.1468,-1.0692,-0.9358,-0.7476,0.0,0.0,0.0,0.0,0.0,0.0,0.0,0.0,0.0,0.0,0.0,0.0,0.0,0.0,0.0,0.0,0.0,0.0,0.0,0.0,0.0,0.0,0.0,0.0,0.0,-0.4116,0.0,0.0,0.0,0.0,0.0,0.0,0.0,0.0,0.0,0.0,0.0,-1.0376,-1.1663,-1.2155,-1.2894,-1.4255,-1.5224,-1.5319,0.0,0.0,0.0,0.0,0.0,0.0,0.0,0.0,0.0,0.0,0.0,0.0,0.0,0.0,-0.9129,-0.5437,-0.6349,-0.6738,-0.3638,0.0,0.0,0.0,0.0,0.0,0.0,0.0,0.0,0.0,0.0,0.0,0.0,0.0,0.0,-0.6039,0.0,-0.3455,0.0,0.0,0.0,0.0,0.0,0.0,0.0,0.0,-0.6307,-0.7111,-0.8118,-0.7879,-0.7945,0.0,-0.7829,-0.6793,0.0,0.0,0.0,0.0,0.0,0.0,0.0,0.0,-0.8131,-0.8323,-1.0159,-1.1454,-1.203,-1.1876,-1.1637,-1.1311,-1.0321,-0.9028,-0.743,-0.6234,-0.5409,0.0,0.0,0.0,0.0,0.0,0.0,0.0,0.0,0.0,0.0,0.0,0.0,0.0,0.0,0.0,0.0,0.0,0.0,0.0,0.0,0.0,0.0,0.0,-0.3557,0.0,0.0,0.0,0.0,0.0,0.0,0.0,0.0,0.0,-0.6467,-0.9329,-1.2059,-1.4214,-1.3353,-1.2964,-1.4247,0.0,0.0,0.0,0.0,0.0,0.0,0.0,-1.1819,-1.1819,-1.1987,-1.2397,-1.3085,-1.018,-0.8706,-1.1638,0.0,0.0,-0.7823,-0.8783,-0.9004,-0.5517,-0.7421,-0.9984,-1.1097,-0.8441,-0.628,0.0,0.0,0.0,0.0,0.0,0.0,0.0,0.0,-0.7811,-0.7416,0.0,-0.5931,0.0,0.0,0.0,0.0,0.0,-0.5916,0.0,0.0,-0.9211,-1.0048,-0.9839,-1.0395,-1.0469,-1.0037,-0.9963,-0.9617,-0.8895,-0.6098,0.0,0.0,0.0,0.0,0.0,0.0,-0.8043,-0.8179,-1.0538,-1.179,-1.1797,-1.1776,-1.1623,-1.1236,-0.961,-0.8585,-0.8257,-0.6692,-0.6058,-0.6493,-0.4526,0.0,0.0,0.0,0.0,0.0,0.0,0.0,0.0,0.0,0.0,0.0,0.0,0.0,0.0,0.0,0.0,0.0,0.0,0.0,0.0,-0.3548,0.0,0.0,0.0,0.0,0.0,0.0,0.0,0.0,0.0,0.0,-1.1094,-1.2919,-1.4296,-1.5454,0.0,0.0,0.0,0.0,-1.2786,-1.5484,-1.5821,-1.4877,-1.2388,-1.1977,-1.1977,-1.2,0.0,0.0,-1.3176,-1.1418,-1.069,-1.2791,-1.3198,-1.2688,-1.0886,-1.0565,-1.0041,-0.834,-1.0015,-1.2024,-1.2806,-1.1132,-1.016,-0.9683,0.0,0.0,0.0,0.0,-0.8481,-0.9077,-0.9843,-0.9828,-0.9464,-0.8779,-0.8349,0.0,0.0,0.0,0.0,0.0,0.0,-0.8207,-0.8985,-1.0002,-1.0877,-1.1621,-1.1426,-1.1589,-1.2101,-1.1727,-1.1602,-1.1629,-1.0439,-0.8455,-0.5836,0.0,0.0,0.0,0.0,-0.8932,-0.9425,-1.098,-1.1681,-1.1468,-1.1445,-1.1182,-1.0657,-0.9194,-0.8378,-0.8292,-0.7062,-0.6271,-0.6045,-0.5794,0.0,0.0,0.0,0.0,0.0,0.0,0.0,0.0,0.0,0.0,0.0,0.0,0.0,0.0,0.0,0.0,0.0,0.0,0.0,-0.4581,-0.5251,-0.5466,0.0,0.0,0.0,0.0,0.0,0.0,0.0,0.0,0.0,-1.1169,-1.382,-1.4674,0.0,0.0,-1.3675,-1.3286,-1.2426,-1.3069,-1.663,-1.6413,0.0,0.0,-1.4659,-1.4783,-1.5085,-1.5376,-1.4987,-1.3202,-1.2539,-1.2459,-1.3117,-1.3879,-1.3975,-1.2768,-1.2415,-1.2219,-1.1796,-1.2305,-1.285,-1.3058,-1.2222,-1.1578,-1.3811,-1.1486,-1.0221,-0.9954,-1.0419,-1.0816,-1.1482,-1.2326,-1.2347,-1.1642,-1.0585,-1.1022,-1.0944,-1.0393,-0.8992,0.0,0.0,0.0,-1.0191,-1.1297,-1.1643,-1.232,-1.3154,-1.2898,-1.3035,-1.3539,-1.3262,-1.3327,-1.3694,-1.2889,-1.1364,-0.9144,0.0,0.0,-0.675,-0.847,-0.9513,-0.9927,-1.1154,-1.1703,-1.149,-1.1166,-1.0893,-1.0578,-0.9108,-0.8335,-0.8389,-0.725,-0.6513,-0.6358,-0.6511,-0.5992,0.0,0.0,0.0,0.0,0.0,0.0,0.0,0.0,0.0,0.0,0.0,-0.4124,-0.4171,0.0,0.0,0.0,-0.5047,-0.6353,-0.5681,-0.5436,0.0,0.0,0.0,0.0,0.0,0.0,0.0,-1.0725,-0.8229,-0.766,-1.1356,-1.5049,-1.6548,-1.4437,-1.3475,-1.3398,-1.4438,0.0,-1.4588,-1.8006,-1.7834,-1.7163,-1.6668,-1.7013,-1.7192,-1.6558,-1.6528,-1.6037,-1.4629,-1.44,-1.4205,-1.3605,-1.4488,-1.5316,-1.4657,-1.383,-1.321,-1.321,-1.321,-1.321,-1.321,-1.2883,-1.2549,-1.6971,-1.5967,-1.2906,-1.223,-1.318,-1.3197,-1.386,-1.4907,-1.4907,-1.3905,-1.2342,-1.3705,-1.4146,-1.3685,-1.1075,0.0,-1.1428,-1.1483,-1.2307,-1.3755,-1.3784,-1.4054,-1.4494,-1.4487,-1.4521,-1.4538,-1.4554,-1.4753,-1.5088,-1.397,-1.3215,-1.2837,-1.085,-0.9255,-0.8251,-0.9396,-1.0047,-1.0062,-1.1214,-1.1776,-1.1754,-1.1024,-1.0705,-1.0835,-0.9249,-0.8423,-0.8533,-0.7324,-0.6788,-0.7146,-0.6832,-0.6644,-0.6581,0.0,0.0,0.0,0.0,0.0,0.0,0.0,0.0,0.0,0.0,0.0,0.0,0.0,0.0,0.0,-0.6363,0.0,-0.67,-0.4807,0.0,0.0,0.0,-0.5404,-0.756,-1.0364,-1.3062,-1.5521,0.0,0.0,-1.2276,-1.6675,-1.9254,-1.7997,-1.4666,-1.3177,-1.5483,-1.5954,-1.6998,-1.9286,-1.966,-1.9226,-1.8063,-1.854,-1.842,-1.6805,-1.6528,-1.6459,-1.6382,-1.6358,-1.5571,-1.3955,-1.5133,-1.6471,-1.6509,-1.4813,-1.3461,-1.3567,-1.3442,-1.3342,-1.3235,-1.3213,-1.3251,-1.8482,-1.8199,-1.7188,-1.6084,-1.5036,-1.5572,-1.5816,-1.5864,-1.5909,-1.5819,-1.5564,-1.4953,-1.4481,-1.4129,-1.3451,-1.3248,-1.3431,-1.3777,-1.4081,-1.4329,-1.4626,-1.468,-1.4494,-1.4494,-1.4664,-1.4932,-1.4945,-1.5196,-1.5622,-1.5336,-1.4639,-1.3575,-1.3012,-1.1866,-1.0215,-1.0937,-1.1349,-1.1356,-1.1648,-1.1681,-1.143,-1.1187,-1.0883,-1.0519,-0.9465,-0.8744,-0.838,-0.7392,-0.6884,-0.6963,-0.7038,-0.7043,-0.7037,-0.6277,0.0,0.0,0.0,0.0,0.0,0.0,0.0,0.0,0.0,-0.3622,-0.4059,0.0,-0.4629,0.0,-0.4359,-0.5366,-0.7387,-0.6517,0.0,0.0,-0.8358,-0.9114,-0.719,-1.1604,-1.5102,-1.5716,-1.4974,-1.5274,-1.752,-1.8912,-1.9589,-1.9212,-1.7842,-1.6617,-1.6031,-1.7568,-1.8957,-1.954,-1.9697,-1.9577,-1.9207,-1.8047,-1.7153,-1.6595,-1.6528,-1.6528,-1.6528,-1.6528,-1.6333,-1.5844,-1.6107,-1.6509,-1.6528,-1.5997,-1.5715,-1.5633,-1.5084,-1.4218,-1.3398,-1.3578,-1.3764,-1.9086,-1.8975,-1.8706,-1.7881,-1.6787,-1.7201,-1.7181,-1.6934,-1.6956,-1.7073,-1.7191,-1.6456,-1.5958,-1.563,-1.548,-1.5277,-1.5106,-1.5515,-1.5457,-1.512,-1.5448,-1.5448,-1.5066,-1.5074,-1.5199,-1.5406,-1.5399,-1.5543,-1.5785,-1.5814,-1.5424,-1.4692,-1.4685,-1.3982,-1.262,-1.2074,-1.1655,-1.1371,-1.1648,-1.1703,-1.1512,-1.149,-1.1127,-1.0423,-0.9445,-0.8571,-0.7841,-0.6891,-0.638,-0.6334,-0.6881,-0.731,-0.7486,-0.7307,-0.5487,0.0,0.0,0.0,0.0,0.0,0.0,0.0,0.0,0.0,0.0,0.0,-0.5032,-0.4789,-0.586,-0.7414,-0.9433,-0.9193,-0.8879,-0.8788,-1.1637,-1.2583,-1.0067,-1.3869,-1.6413,-1.5866,-1.6286,-1.7401,-1.9405,-1.9697,-1.9697,-1.9697,-1.9306,-1.8637,-1.7854,-1.8837,-1.9697,-1.9697,-1.9697,-1.9697,-1.9697,-1.79,-1.6528,-1.6528,-1.6528,-1.6528,-1.6528,-1.6528,-1.6528,-1.6528,-1.6528,-1.6528,-1.6528,-1.6528,-1.6528,-1.6446,-1.6045,-1.5423,-1.4782,-1.4544,-1.4249,-1.9198,-1.9027,-1.878,-1.8581,-1.8397,-1.8397,-1.8164,-1.7789,-1.7789,-1.7789,-1.7789,-1.7789,-1.7617,-1.7277,-1.7011,-1.6667,-1.6402,-1.6659,-1.6474,-1.5955,-1.6226,-1.6191,-1.5877,-1.5877,-1.5856,-1.5806,-1.5814,-1.5814,-1.5814,-1.5814,-1.5769,-1.5679,-1.5671,-1.5341,-1.461,-1.2927,-1.1685,-1.0939,-1.1506,-1.1767,-1.167,-1.1603,-1.1128,-1.0269,-0.9185,-0.8131,-0.7187,-0.6257,-0.5686,-0.5589,-0.6415,-0.7117,-0.7581,-0.7411,-0.6115,0.0,-0.3556,0.0,0.0,0.0,0.0,0.0,0.0,0.0,0.0,-0.5411,-0.5363,-0.7107,-0.9315,-1.1125,-1.2231,-1.2306,-1.2536,-1.3063,-1.4711,-1.5341,-1.4288,-1.6241,-1.7348,-1.6413,-1.7131,-1.8223,-1.948,-1.9697,-1.9697,-1.969,-1.966,-1.9576,-1.9636,-1.9643,-1.9697,-1.9697,-1.9697,-1.961,-1.905,-1.7666,-1.6528,-1.6528,-1.6528,-1.6528,-1.6528,-1.6528,-1.6528,-1.6528,-1.6528,-1.6528,-1.6528,-1.6528,-1.6528,-1.6522,-1.6465,-1.6421,-1.6289,-1.5611,-1.4726,-1.9274,-1.9227,-1.9205,-1.9264,-1.9424,-1.9404,-1.8813,-1.778,-1.7789,-1.7789,-1.7789,-1.7789,-1.7609,-1.7317,-1.7223,-1.7032,-1.6712,-1.6763,-1.6738,-1.6623,-1.6667,-1.652,-1.6219,-1.6219,-1.6067,-1.5806,-1.5814,-1.5814,-1.5814,-1.5814,-1.5529,-1.4992,-1.5004,-1.464,-1.4004,0.0,0.0,0.0,-1.1716,-1.1543,-1.0992,-1.0503,-1.0042,-0.9593,-0.8593,0.0,-0.6983,-0.601,-0.5441,-0.5373,-0.5384,0.0,0.0,0.0,0.0,0.0,0.0,0.0,0.0,0.0,0.0,0.0,-0.7331,-0.666,-0.7048,-0.7009,-0.8031,-1.0598,-1.3169,-1.4785,-1.5022,-1.5049,-1.5081,-1.5226,-1.556,-1.5694,-1.5506,-1.6795,-1.7959,-1.8867,-1.8253,-1.8231,-1.945,-1.9697,-1.9697,-1.9697,-1.9697,-1.9697,-1.9697,-1.9697,-1.9697,-1.9697,-1.969,-1.9006,-1.7347,-1.6808,-1.6528,-1.6528,-1.6528,-1.6528,-1.6528,-1.6528,-1.6528,-1.6528,-1.6528,-1.6528,-1.6528,-1.6528,-1.6528,-1.6528,-1.6528,-1.6528,-1.6515,-1.6007,-1.5605,-2.0074,0.0,-2.0283,-2.0418,0.0,-2.0208,-1.9747,-1.911,-1.8956,-1.8894,-1.8884,-1.8637,-1.8356,-1.8068,-1.7721,-1.737,-1.7076,-1.7593,-1.746,-1.6839,-1.7167,-1.6984,-1.6301,-1.6143,-1.5962,-1.5806,-1.5814,-1.5814,-1.5814,-1.5814,-1.5626,-1.5304,-1.5276,-1.5111,-1.479,-1.4809,-1.4131,-1.2807,-1.1521,-1.1161,-1.17,-1.0533,-0.9958,-1.0061,0.0,0.0,0.0,0.0,0.0,0.0,0.0,0.0,0.0,0.0,0.0,-0.4953,-0.5973,-0.612,-0.5097,-0.6298,-0.7992,-0.9855,-0.9581,-0.8734,-0.75,-0.9084,-1.1161,-1.3538,-1.5042,-1.5814,-1.5814,-1.5814,-1.5978,-1.6368,-1.6068,-1.5814,-1.5993,-1.752,-1.8927,-1.948,-1.9106,-1.8972,-1.9607,-1.9697,-1.9697,-1.9697,-1.9697,-1.9697,-1.9697,-1.9697,-1.9697,-1.9697,-1.9169,-1.8334,-1.6915,-1.6528,-1.6528,-1.6528,-1.6528,-1.6528,-1.6528,-1.6528,-1.6528,-1.6528,-1.6528,-1.6528,-1.6528,-1.6528,-1.6528,-1.6528,-1.6528,-1.6528,-1.6522,-1.6296,-1.6176,-2.122,-2.1475,-2.1489,-2.1532,-2.1554,-2.1066,-2.0854,-2.085,0.0,0.0,0.0,-1.9596,-1.9304,-1.9053,-1.8449,-1.8044,-1.7855,-1.8681,-1.8476,-1.7397,-1.7799,-1.7481,-1.6581,-1.6106,-1.5863,-1.5806,-1.5814,-1.5814,-1.5814,-1.5814,-1.5814,-1.5814,-1.5814,-1.5814,-1.5814,-1.5814,-1.5246,-1.4116,-1.2029,-1.1489,-1.2538,-1.1049,-1.0361,-1.0633,-1.0362,-0.96,-0.8338,-0.801,-0.7394,-0.6395,-0.4905,-0.3956,-0.3816,-0.6111,-0.7414,-0.7194,-0.7169,-0.7274,-0.75,-0.7823,-0.8867,-1.0825,-1.1497,-1.0943,-0.8823,-1.1327,-1.3772,-1.5657,-1.5814,-1.5814,-1.5814,-1.5814,-1.6136,-1.6922,-1.6713,-1.6451,-1.6353,-1.8194,-1.9645,-1.9697,-1.9696,-1.9697,-1.969,-1.9697,-1.9697,-1.9697,-1.9697,-1.9697,-1.9697,-1.9697,-1.9697,-1.9661,-1.9088,-1.8138,-1.7312,-1.668,-1.6565,-1.6528,-1.6528,-1.6528,-1.6528,-1.6528,-1.6528,-1.6528,-1.6528,-1.6528,-1.6528,-1.6528,-1.6528,-1.6528,-1.6528,-1.6528,-1.6528,-1.6528,-1.6509,-2.2464,-2.363,-2.2309,-2.1981,-2.2346,-2.2246,-2.2291,-2.2262,-2.0705,-1.9985,-1.9984,-1.9941,-1.9866,-1.9824,-1.9748,-1.9664,-1.9639,-1.979,-1.9715,0.0,-1.8708,-1.8085,-1.7636,-1.6694,-1.6095,-1.5835,-1.5814,-1.5814,-1.5814,-1.5814,-1.5814,-1.5814,-1.5814,-1.5806,-1.5814,-1.5814,-1.5701,-1.5514,-1.5161,-1.3992,-1.1999,-1.167,-1.1034,-1.0062,-0.9468,-0.8983,-0.8628,-0.8085,-0.7618,-0.7408,-0.7193,-0.6552,-0.5502,-0.8918,-1.0574,-0.9544,-0.9435,-0.989,-1.0921,-0.994,-0.98,-1.1056,-1.2333,-1.2997,-1.2967,-1.3359,-1.4254,-1.5649,-1.5814,-1.5814,-1.5814,-1.5814,-1.6061,-1.6794,-1.8194,-1.8687,-1.7625,-1.874,-1.9697,-1.9697,-1.9697,-1.9697,-1.9697,-1.9697,-1.9697,-1.9697,-1.9697,-1.9697,-1.9697,-1.9697,-1.9697,-1.969,-1.9603,-1.9406,-1.8923,-1.7585,-1.6686,-1.6528,-1.6528,-1.6528,-1.6528,-1.6528,-1.6528,-1.6528,-1.6528,-1.6528,-1.6528,-1.6528,-1.6528,-1.6528,-1.6528,-1.6528,-1.6528,-1.6528,-1.6528,-2.3529,-2.408,-2.3419,-2.3234,-2.338,-2.3036,-2.2823,-2.2626,-2.1685,-2.1226,-2.1192,-2.083,-2.0651,-2.0585,-1.9987,-1.9805,-2.0002,-2.0172,-2.0059,-1.9656,-1.9391,-1.866,-1.7558,-1.6847,-1.6274,-1.5829,-1.5814,-1.5814,-1.5814,-1.5814,-1.5814,-1.5814,-1.5814,-1.5668,-1.5455,-1.5418,-1.5322,-1.5097,-1.5544,-1.4862,-1.2942,-1.2171,-1.1513,-1.0945,-1.0608,-1.0347,-1.0117,-0.9821,-0.9491,-0.9137,-0.9427,-0.9076,-0.8099,-1.0386,-1.1557,-1.0996,-1.0949,-1.0872,-1.0777,-1.0694,-1.0795,-1.1229,-1.2581,-1.3512,-1.3774,-1.4461,-1.5126,-1.5739,-1.5814,-1.5814,-1.5814,-1.5814,-1.6203,-1.7152,-1.8725,-1.9405,-1.8979,-1.9263,-1.9682,-1.9697,-1.9697,-1.9697,-1.9697,-1.9697,-1.9697,-1.9697,-1.9697,-1.9697,-1.9697,-1.9697,-1.9697,-1.9697,-1.9697,-1.9697,-1.9603,-1.79,-1.6686,-1.6528,-1.6528,-1.6528,-1.6528,-1.6528,-1.6528,-1.6528,-1.6528,-1.6528,-1.6528,-1.6528,-1.6528,-1.6528,-1.6528,-1.6528,-1.6528,-1.6528,-1.6528,-2.4199,-2.4199,-2.4199,-2.4199,-2.4151,-2.3566,-2.3117,-2.2797,-2.25,-2.2341,-2.2226,-2.1684,-2.145,-2.1326,-2.0334,-2.0146,-2.0506,-2.059,-2.0344,-1.991,-1.9726,-1.8884,-1.7571,-1.6864,-1.6256,-1.5851,-1.5814,-1.5814,-1.5806,-1.5712,-1.5639,-1.5639,-1.5639,-1.5448,-1.5111,-1.5013,-1.4814,-1.4557,-1.5179,-1.4982,-1.3897,-1.2522,-1.1829,-1.1911,-1.1748,-1.1557,-1.1303,-1.1242,-1.1027,-1.0656,-1.0984,-1.0951,-1.042,-1.1251,-1.1819,-1.1819,-1.1819,-1.1356,-1.0448,-1.0991,-1.1467,-1.1495,-1.2676,-1.3458,-1.3719,-1.4974,-1.5814,-1.5814,-1.5814,-1.5918,-1.6188,-1.5956,-1.6376,-1.7775,-1.8979,-1.9637,-1.9682,-1.9697,-1.9697,-1.9697,-1.9697,-1.9697,-1.9697,-1.9697,-1.9697,-1.9697,-1.9697,-1.9697,-1.9697,-1.9697,-1.9697,-1.9697,-1.9697,-1.9697,-1.961,-1.8451,-1.7242,-1.6729,-1.6528,-1.6528,-1.6528,-1.6528,-1.6528,-1.6528,-1.6528,-1.6528,-1.6528,-1.6528,-1.6528,-1.6528,-1.6528,-1.6528,-1.6528,-1.6528,-1.6528,-2.4199,-2.4199,-2.4199,-2.4199,-2.4161,-2.3804,-2.3446,-2.3117,-2.2806,-2.2527,-2.2293,-2.2234,-2.2172,-2.2124,-2.1595,-2.1558,-2.1911,-2.1269,-2.1058,-2.1035,-1.9408,-1.8446,-1.8083,-1.6637,-1.5866,-1.5814,-1.5814,-1.5785,-1.5741,-1.5352,-1.5157,-1.5157,-1.5165,-1.5127,-1.5036,-1.4721,-1.4533,-1.4494,-1.4557,-1.4452,-1.4018,-1.2581,-1.1963,-1.2233,-1.1674,-1.1348,-1.128,-1.1071,-1.102,-1.1186,-1.1244,-1.1387,-1.1583,-1.1738,-1.1819,-1.1819,-1.1835,-1.1672,-1.1423,-1.1199,-1.1437,-1.2216,-1.2713,-1.3139,-1.3316,-1.4791,-1.5785,-1.5719,-1.5748,-1.6234,-1.7249,-1.6563,-1.6735,-1.8231,-1.9226,-1.9697,-1.9697,-1.9697,-1.9697,-1.9697,-1.9697,-1.9697,-1.9697,-1.9697,-1.9697,-1.9697,-1.9697,-1.9697,-1.9697,-1.9697,-1.961,-1.9646,-1.969,-1.9697,-1.9646,-1.9617,-1.8426,-1.6964,-1.6528,-1.6528,-1.6528,-1.6528,-1.6528,-1.6528,-1.6528,-1.6528,-1.6528,-1.6528,-1.6528,-1.6528,-1.6528,-1.6528,-1.6528,-1.6528,-1.6528,-2.4199,-2.4199,-2.4199,-2.4199,-2.4142,-2.3649,-2.3323,-2.315,-2.2669,-2.2407,-2.231,-2.2319,-2.2319,-2.2282,-2.1823,-2.1718,-2.1807,-2.0846,-2.0352,-2.0201,-1.8951,-1.8053,-1.7334,-1.6721,-1.6159,-1.5821,-1.5814,-1.5639,-1.5352,-1.4937,-1.4752,-1.4752,-1.4752,-1.4627,-1.4399,-1.4214,-1.4039,-1.3735,-1.3742,-1.3795,-1.3957,-1.3606,-1.2928,-1.2022,-1.1682,-1.1374,-1.109,-1.0968,-1.0937,-1.1048,-1.1071,-1.1294,-1.1776,-1.1819,-1.1819,-1.1843,-1.2343,-1.1999,-1.068,-1.1638,-1.2291,-1.2253,-1.2787,-1.3156,-1.3195,-1.3868,-1.4278,-1.4367,-1.5165,-1.6098,-1.6766,-1.7555,-1.8175,-1.8405,-1.9101,-1.9697,-1.9697,-1.9697,-1.9697,-1.9697,-1.9697,-1.9697,-1.9697,-1.9697,-1.9697,-1.9697,-1.9697,-1.9697,-1.9697,-1.9697,-1.9406,-1.9006,-1.9244,-1.969,-1.9697,-1.9697,-1.8696,-1.7201,-1.6528,-1.6528,-1.6528,-1.6528,-1.6528,-1.6528,-1.6528,-1.6528,-1.6528,-1.6528,-1.6528,-1.6528,-1.6528,-1.6528,-1.6528,-1.6528,-1.6528,-2.4199,-2.4199,-2.4199,-2.4199,-2.4142,-2.3579,-2.3282,-2.3126,-2.2634,-2.2369,-2.2319,-2.2319,-2.2231,-2.2036,-2.1639,-2.1438,-2.1303,-2.0392,-1.9735,-1.9331,-1.8601,-1.7677,-1.6756,-1.6517,-1.6234,-1.5845,-1.5639,-1.5329,-1.4814,-1.462,-1.4431,-1.4342,-1.4342,-1.4181,-1.3927,-1.3808,-1.3547,-1.3239,-1.321,-1.3357,-1.3702,-1.3993,-1.3418,-1.2007,-1.1756,-1.1402,-1.078,-1.0681,-1.0674,-1.0763,-1.0757,-1.0916,-1.1257,-1.146,-1.1468,-1.1376,-1.22,-1.2209,-1.0891,-1.2159,-1.2837,-1.2504,-1.291,-1.321,-1.321,-1.321,-1.321,-1.3373,-1.4876,-1.6145,-1.6806,-1.7967,-1.8453,-1.8074,-1.8994,-1.9639,-1.9522,-1.9559,-1.9697,-1.9697,-1.9697,-1.9697,-1.9697,-1.9697,-1.9697,-1.9697,-1.9697,-1.9697,-1.9697,-1.969,-1.9325,-1.8334,-1.881,-1.9339,-1.9566,-1.8968,-1.8099,-1.7277,-1.6528,-1.6528,-1.6528,-1.6528,-1.6528,-1.6528,-1.6528,-1.6528,-1.6528,-1.6528,-1.6528,-1.6528,-1.6528,-1.6528,-1.6528,-1.6528,-1.6528,-2.4199,-2.4199,-2.4199,-2.419,-2.4161,-2.3804,-2.3468,-2.315,-2.2815,-2.2554,-2.231,-2.2319,-2.2065,-2.1624,-2.1223,-2.1031,-2.0918,-2.01,-1.9554,-1.9204,-1.8197,-1.7363,-1.6689,-1.6121,-1.5836,-1.5712,-1.5366,-1.4783,-1.4065,-1.4324,-1.431,-1.3927,-1.3894,-1.3894,-1.3802,-1.3452,-1.3239,-1.3204,-1.321,-1.3245,-1.3267,-1.326,-1.2968,-1.2248,-1.1882,-1.1356,-1.0516,-1.0142,-1.0104,-1.0416,-1.0427,-1.0317,-1.0129,-1.0632,-1.0667,-1.036,-1.1172,-1.2153,-1.2747,-1.2666,-1.2647,-1.3035,-1.3142,-1.321,-1.321,-1.321,-1.3304,-1.3298,-1.5292,-1.6792,-1.7503,-1.7221,-1.7292,-1.8016,-1.8955,-1.9244,-1.9006,-1.9442,-1.969,-1.9697,-1.9697,-1.9697,-1.9697,-1.9697,-1.9646,-1.9646,-1.969,-1.9697,-1.9697,-1.9697,-1.9214,-1.8496,-1.8302,-1.8535,-1.9207,-1.8334,-1.7076,-1.6571,-1.6528,-1.6528,-1.6528,-1.6528,-1.6528,-1.6528,-1.6528,-1.6528,-1.6528,-1.6528,-1.6528,-1.6528,-1.6528,-1.6528,-1.6528,-1.6528,-1.6528,-2.4199,-2.4199,-2.4199,-2.4074,-2.3837,-2.3522,-2.3198,-2.2873,-2.2572,-2.2396,-2.2319,-2.2319,-2.1906,-2.1207,-2.1087,-2.0829,-2.0485,-1.9811,-1.9058,-1.8305,-1.7457,-1.6719,-1.6151,-1.5903,-1.561,-1.5352,-1.5179,-1.4683,-1.396,-1.3775,-1.3621,-1.3493,-1.3452,-1.3452,-1.3431,-1.3295,-1.321,-1.321,-1.321,-1.321,-1.321,-1.321,-1.2929,-1.2372,-1.2187,-1.1667,-1.0628,-1.0447,-1.0317,-1.0085,-1.0091,-1.0021,-0.9951,-1.0122,-1.085,-1.187,-1.2384,-1.2785,-1.311,-1.3023,-1.2979,-1.3167,-1.321,-1.321,-1.321,-1.3248,-1.3743,-1.5064,-1.5913,-1.674,-1.6873,-1.6716,-1.6795,-1.7429,-1.7666,-1.8138,-1.8779,-1.9376,-1.9697,-1.9697,-1.9697,-1.9697,-1.9697,-1.9697,-1.953,-1.914,-1.9406,-1.961,-1.969,-1.9697,-1.9244,-1.8535,-1.865,-1.8727,-1.7504,-1.7146,-1.6515,-1.6528,-1.6528,-1.6528,-1.6528,-1.6528,-1.6528,-1.6528,-1.6528,-1.6528,-1.6528,-1.6528,-1.6528,-1.6528,-1.6528,-1.6528,-1.6528,-1.6528,-1.6528,-2.4199,-2.4199,-2.4199,-2.3996,-2.3662,-2.3337,-2.3012,-2.2678,-2.2426,-2.2319,-2.2274,-2.2143,-2.1667,-2.1055,-2.0854,-2.0524,-2.0062,-1.9464,-1.8627,-1.7685,-1.7018,-1.6398,-1.5852,-1.5646,-1.5411,-1.5097,-1.4821,-1.4335,-1.3702,-1.3357,-1.3204,-1.3204,-1.321,-1.321,-1.321,-1.321,-1.321,-1.321,-1.321,-1.321,-1.321,-1.321,-1.3023,-1.2716,-1.2647,-1.2115,-1.1038,-1.0975,-1.0853,-1.0508,-1.0452,-1.0276,-0.9981,-1.059,-1.1601,-1.2979,-1.3198,-1.321,-1.321,-1.321,-1.3204,-1.321,-1.321,-1.321,-1.321,-1.321,-1.4294,-1.5859,-1.6528,-1.6528,-1.6528,-1.6528,-1.6637,-1.707,-1.7312,-1.772,-1.8412,-1.9207,-1.9654,-1.9697,-1.9697,-1.9697,-1.9697,-1.9697,-1.9376,-1.8688,-1.8923,-1.902,-1.9169,-1.9132,-1.881,-1.7994,-1.881,-1.8451,-1.747,-1.668,-1.6522,-1.6528,-1.6528,-1.6528,-1.6528,-1.6528,-1.6528,-1.6528,-1.6528,-1.6528,-1.6528,-1.6528,-1.6528,-1.6528,-1.6528,-1.6528,-1.6528,-1.6528,-1.6528,-2.4199,-2.4199,-2.4199,-2.3996,-2.3649,-2.3323,-2.3021,-2.266,-2.2407,-2.2319,-2.2245,-2.1823,-2.144,-2.0966,-2.0589,-2.0139,-1.9697,-1.9063,-1.8377,-1.7667,-1.7018,-1.6376,-1.5727,-1.5352,-1.5097,-1.4937,-1.4285,-1.3709,-1.326,-1.3239,-1.321,-1.321,-1.321,-1.321,-1.321,-1.321,-1.321,-1.321,-1.321,-1.321,-1.321,-1.321,-1.3179,-1.3154,-1.3142,-1.2659,-1.1682,-1.1644,-1.1594,-1.1494,-1.1487,-1.1029,-1.0458,-1.1802,-1.3123,-1.3148,-1.321,-1.321,-1.321,-1.321,-1.321,-1.321,-1.321,-1.3242,-1.3342,-1.3279,-1.4118,-1.5997,-1.6528,-1.6528,-1.6528,-1.6528,-1.6515,-1.6674,-1.7907,-1.8503,-1.8224,-1.8893,-1.9697,-1.9697,-1.9697,-1.9697,-1.969,-1.953,-1.9221,-1.8657,-1.8178,-1.7907,-1.8059,-1.8106,-1.7626,-1.7271,-1.786,-1.8059,-1.7236,-1.6528,-1.6528,-1.6528,-1.6528,-1.6528,-1.6528,-1.6528,-1.6528,-1.6528,-1.6528,-1.6528,-1.6528,-1.6528,-1.6528,-1.6528,-1.6528,-1.6528,-1.6528,-1.6528,-1.6528,-2.4199,-2.4199,-2.4199,-2.3876,-2.3378,-2.3245,-2.2924,-2.2445,-2.2321,-2.2319,-2.2217,-2.1794,-2.1391,-2.0939,-2.0516,-2.0104,-1.9651,-1.9001,-1.8343,-1.7667,-1.7018,-1.6202,-1.5454,-1.5165,-1.4814,-1.4285,-1.3702,-1.3363,-1.3239,-1.321,-1.321,-1.321,-1.321,-1.321,-1.321,-1.321,-1.321,-1.321,-1.321,-1.321,-1.321,-1.321,-1.321,-1.321,-1.321,-1.3004,-1.2716,-1.2685,-1.2354,-1.1663,-1.1581,-1.1412,-1.1399,-1.2397,-1.3173,-1.321,-1.321,-1.321,-1.321,-1.321,-1.321,-1.321,-1.321,-1.3467,-1.3793,-1.3492,-1.4225,-1.6151,-1.6528,-1.6528,-1.6528,-1.6528,-1.6528,-1.6528,-1.7118,-1.782,-1.8059,-1.8983,-1.9617,-1.9697,-1.9697,-1.9697,-1.953,-1.9169,-1.8503,-1.8263,-1.782,-1.7551,-1.7111,-1.7111,-1.6993,-1.6716,-1.7305,-1.7626,-1.6964,-1.6528,-1.6528,-1.6528,-1.6528,-1.6528,-1.6528,-1.6528,-1.6528,-1.6528,-1.6528,-1.6528,-1.6528,-1.6528,-1.6528,-1.6528,-1.6528,-1.6528,-1.6528,-1.6528,-1.6528,-2.4199,-2.4181,-2.4074,-2.3701,-2.3198,-2.3069,-2.273,-2.2338,-2.2319,-2.2215,-2.1972,-2.1587,-2.1141,-2.0708,-2.0253,-1.9952,-1.9628,-1.8762,-1.8085,-1.763,-1.701,-1.6133,-1.5145,-1.4752,-1.4303,-1.3709,-1.3363,-1.3204,-1.321,-1.321,-1.321,-1.321,-1.321,-1.321,-1.321,-1.321,-1.321,-1.321,-1.321,-1.321,-1.321,-1.321,-1.321,-1.321,-1.321,-1.321,-1.321,-1.321,-1.2885,-1.2335,-1.2203,-1.2203,-1.2266,-1.2829,-1.321,-1.321,-1.321,-1.321,-1.321,-1.321,-1.321,-1.321,-1.321,-1.3373,-1.3786,-1.3661,-1.4733,-1.6139,-1.6528,-1.6528,-1.6528,-1.6528,-1.6528,-1.6515,-1.6957,-1.7429,-1.827,-1.9132,-1.9646,-1.9697,-1.9697,-1.9361,-1.8574,-1.8059,-1.7504,-1.7463,-1.7551,-1.7347,-1.6759,-1.6571,-1.6522,-1.6522,-1.6723,-1.6801,-1.665,-1.6528,-1.6528,-1.6528,-1.6528,-1.6528,-1.6528,-1.6528,-1.6528,-1.6528,-1.6528,-1.6528,-1.6528,-1.6528,-1.6528,-1.6528,-1.6528,-1.6528,-1.6528,-1.6528,-1.6528,-2.4199,-2.4122,-2.3846,-2.3491,-2.3141,-2.2839,-2.2563,-2.233,-2.2319,-2.2049,-2.164,-2.123,-2.072,-2.0248,-1.9778,-1.9529,-1.9338,-1.8373,-1.7665,-1.7379,-1.6857,-1.6003,-1.494,-1.431,-1.3769,-1.3323,-1.3232,-1.321,-1.321,-1.321,-1.321,-1.321,-1.321,-1.321,-1.321,-1.321,-1.321,-1.321,-1.321,-1.321,-1.321,-1.321,-1.321,-1.321,-1.321,-1.321,-1.321,-1.3204,-1.3198,-1.3173,-1.306,-1.3035,-1.3148,-1.3198,-1.321,-1.321,-1.321,-1.321,-1.321,-1.321,-1.321,-1.321,-1.321,-1.3242,-1.3467,-1.4061,-1.4959,-1.6321,-1.6528,-1.6528,-1.6528,-1.6528,-1.6528,-1.6595,-1.7153,-1.782,-1.8373,-1.8968,-1.9169,-1.9406,-1.9442,-1.8848,-1.7034,-1.6716,-1.6637,-1.6716,-1.7118,-1.6993,-1.6759,-1.6528,-1.6528,-1.6528,-1.6528,-1.6528,-1.6528,-1.6528,-1.6528,-1.6528,-1.6528,-1.6528,-1.6528,-1.6528,-1.6528,-1.6528,-1.6528,-1.6528,-1.6528,-1.6528,-1.6528,-1.6528,-1.6528,-1.6528,-1.6528,-1.6528,-1.6528,-2.4062,-2.384,-2.3738,-2.3378,-2.2873,-2.2712,-2.2537,-2.2293,-2.2285,-2.1931,-2.1565,-2.119,-2.04,-1.9657,-1.9148,-1.8718,-1.8253,-1.7854,-1.7208,-1.6578,-1.6378,-1.5489,-1.4438,-1.4026,-1.3642,-1.326,-1.321,-1.321,-1.321,-1.321,-1.321,-1.321,-1.321,-1.321,-1.321,-1.321,-1.321,-1.321,-1.321,-1.321,-1.321,-1.321,-1.321,-1.321,-1.321,-1.321,-1.321,-1.321,-1.321,-1.321,-1.321,-1.321,-1.321,-1.321,-1.321,-1.321,-1.321,-1.321,-1.321,-1.321,-1.321,-1.321,-1.321,-1.3408,-1.3833,-1.3703,-1.4657,-1.5928,-1.6528,-1.6528,-1.6528,-1.6528,-1.6528,-1.6515,-1.6837,-1.7076,-1.7153,-1.7242,-1.7585,-1.8256,-1.786,-1.7194,-1.6759,-1.6528,-1.6528,-1.6558,-1.6674,-1.6795,-1.6565,-1.6528,-1.6528,-1.6528,-1.6528,-1.6528,-1.6528,-1.6528,-1.6528,-1.6528,-1.6528,-1.6528,-1.6528,-1.6528,-1.6528,-1.6528,-1.6528,-1.6528,-1.6528,-1.6528,-1.6528,-1.6528,-1.6528,-1.6528,-1.6528,-1.6528,-1.6528,-2.4001,-2.3688,-2.3544,-2.3012,-2.227,-2.2117,-2.1779,-2.1407,-2.1311,-2.1005,-2.0515,-2.0231,-1.9578,-1.8714,-1.841,-1.8097,-1.7682,-1.7225,-1.6691,-1.6171,-1.5624,-1.4844,-1.404,-1.3749,-1.3452,-1.3232,-1.321,-1.321,-1.321,-1.321,-1.321,-1.321,-1.321,-1.321,-1.321,-1.321,-1.321,-1.321,-1.321,-1.321,-1.321,-1.321,-1.321,-1.321,-1.321,-1.321,-1.321,-1.321,-1.321,-1.321,-1.321,-1.321,-1.321,-1.321,-1.321,-1.321,-1.321,-1.321,-1.321,-1.321,-1.321,-1.321,-1.321,-1.3354,-1.3571,-1.3414,-1.4037,-1.5473,-1.6176,-1.6484,-1.6528,-1.6528,-1.6528,-1.6528,-1.6528,-1.6528,-1.6528,-1.6565,-1.6795,-1.707,-1.6915,-1.6528,-1.6528,-1.6528,-1.6528,-1.6528,-1.6528,-1.6565,-1.6528,-1.6528,-1.6528,-1.6528,-1.6528,-1.6528,-1.6528,-1.6528,-1.6528,-1.6528,-1.6528,-1.6528,-1.6528,-1.6485,-1.6163,-1.6113,-1.6343,-1.6528,-1.6528,-1.6528,-1.6528,-1.6528,-1.6528,-1.6442,-1.638,-1.6256,-1.63,-2.3755,-2.3383,-2.3078,-2.2373,-2.1443,-2.1165,-2.0746,-2.0128,-2.0137,-1.9717,-1.9153,-1.8961,-1.8532,-1.7632,-1.763,-1.7518,-1.7378,-1.6548,-1.6108,-1.5556,-1.4915,-1.4078,-1.3801,-1.3554,-1.3357,-1.3239,-1.321,-1.321,-1.321,-1.321,-1.321,-1.321,-1.321,-1.321,-1.321,-1.321,-1.321,-1.321,-1.321,-1.321,-1.321,-1.321,-1.321,-1.321,-1.321,-1.321,-1.3204,-1.3163,-1.3088,-1.3135,-1.3163,-1.321,-1.321,-1.321,-1.321,-1.321,-1.321,-1.321,-1.321,-1.321,-1.321,-1.321,-1.321,-1.321,-1.3254,-1.3248,-1.3718,-1.4977,-1.5888,-1.6427,-1.6528,-1.6528,-1.6528,-1.6528,-1.6528,-1.6528,-1.6528,-1.6528,-1.6528,-1.6528,-1.6515,-1.6528,-1.6528,-1.6528,-1.6528,-1.6528,-1.6528,-1.6528,-1.6528,-1.6528,-1.6528,-1.6528,-1.6528,-1.6528,-1.6528,-1.6528,-1.6528,-1.6528,-1.6528,-1.6528,-1.6528,-1.6343,-1.5744,-1.5517,-1.5299,-1.5756,-1.6528,-1.6528,-1.6436,-1.612,-1.5888,-1.6021,-1.613,-1.5866,-1.58,-2.1997,-2.1494,-2.1409,-2.0996,-2.0406,-2.0289,-2.0137,-1.9951,-1.9951,-1.9479,-1.8978,-1.8856,-1.8095,-1.6947,-1.6902,-1.6674,-1.6315,-1.5861,-1.5526,-1.4745,-1.39,-1.3493,-1.3431,-1.3554,-1.3514,-1.3301,-1.321,-1.321,-1.321,-1.321,-1.321,-1.321,-1.317,-1.321,-1.317,-1.3135,-1.321,-1.321,-1.3204,-1.321,-1.3204,-1.3163,-1.3129,-1.3129,-1.317,-1.317,-1.3094,-1.2832,-1.265,-1.2726,-1.2949,-1.3094,-1.321,-1.321,-1.321,-1.321,-1.321,-1.321,-1.3204,-1.3163,-1.321,-1.31,-1.3094,-1.321,-1.3198,-1.3204,-1.3766,-1.4789,-1.5856,-1.6478,-1.6528,-1.6528,-1.6528,-1.6528,-1.6528,-1.6528,-1.6528,-1.6528,-1.6528,-1.6528,-1.6528,-1.6528,-1.6528,-1.6528,-1.6528,-1.6528,-1.6528,-1.6528,-1.6528,-1.6528,-1.6528,-1.6528,-1.6528,-1.6528,-1.6528,-1.6436,-1.63,-1.6343,-1.6349,-1.6528,-1.6528,-1.5932,-1.5248,-1.4566,-1.3983,-1.4709,-1.5573,-1.6293,-1.6151,-1.57,-1.5113,-1.496,-1.4856,-1.4949,-1.5073,-2.0533,-2.0872,-2.077,-2.0229,-1.9544,-1.9486,-1.9284,-1.9013,-1.8963,-1.858,-1.8021,-1.7927,-1.729,-1.6338,-1.6258,-1.5979,-1.5468,-1.5034,-1.4533,-1.3914,-1.3391,-1.3239,-1.3232,-1.3431,-1.3425,-1.321,-1.321,-1.321,-1.321,-1.321,-1.321,-1.317,-1.2978,-1.2838,-1.2873,-1.2867,-1.2873,-1.2949,-1.3094,-1.321,-1.3204,-1.2978,-1.272,-1.265,-1.2726,-1.2797,-1.2502,-1.255,-1.236,-1.2288,-1.2395,-1.2756,-1.3135,-1.321,-1.321,-1.321,-1.321,-1.321,-1.3204,-1.2883,-1.2667,-1.2544,-1.2532,-1.2538,-1.2685,-1.2908,-1.3772,-1.4777,-1.5781,-1.6528,-1.6528,-1.6528,-1.6528,-1.6528,-1.6528,-1.6528,-1.6528,-1.6528,-1.6528,-1.6528,-1.6528,-1.6528,-1.6528,-1.6528,-1.6528,-1.6528,-1.6528,-1.6528,-1.6528,-1.6528,-1.6528,-1.6528,-1.6528,-1.6528,-1.6528,-1.6343,-1.6064,-1.6064,-1.607,-1.6343,-1.6528,-1.5617,-1.4612,-1.4113,-1.3663,-1.3478,-1.4247,-1.4971,-1.5377,-1.4479,-1.3847,-1.3568,-1.37,-1.4154,-1.416,-1.9366,-2.0519,-2.0258,-1.9582,-1.8807,-1.8716,-1.842,-1.789,-1.7735,-1.7551,-1.6878,-1.6766,-1.6499,-1.5921,-1.5713,-1.5423,-1.4945,-1.4334,-1.3828,-1.3547,-1.3323,-1.3204,-1.3239,-1.3239,-1.3273,-1.321,-1.321,-1.321,-1.321,-1.321,-1.321,-1.3135,-1.2726,-1.2615,-1.2544,-1.2395,-1.2395,-1.2437,-1.2691,-1.2902,-1.2902,-1.2567,-1.221,-1.2066,-1.2174,-1.2246,-1.2024,-1.2029,-1.2029,-1.17,-1.1621,-1.2024,-1.2573,-1.3163,-1.321,-1.317,-1.2832,-1.2762,-1.2937,-1.2508,-1.1965,-1.1627,-1.1811,-1.1872,-1.2144,-1.2603,-1.3514,-1.4744,-1.5793,-1.6374,-1.6293,-1.6436,-1.6386,-1.638,-1.6386,-1.6528,-1.6528,-1.6528,-1.6528,-1.6528,-1.6528,-1.6528,-1.6528,-1.6528,-1.6528,-1.6528,-1.6528,-1.6528,-1.6528,-1.6485,-1.6485,-1.6528,-1.6528,-1.6528,-1.6528,-1.6293,-1.6014,-1.5383,-1.5472,-1.5662,-1.5844,-1.4886,-1.3925,-1.3931,-1.3615,-1.3387,-1.3296,-1.3931,-1.3889,-1.3027,-1.2978,-1.3162,-1.3334,-1.3505,-1.3377,-1.8732,-1.8955,-1.8699,-1.834,-1.8028,-1.7997,-1.7946,-1.7783,-1.7517,-1.7158,-1.6797,-1.6527,-1.6177,-1.5776,-1.535,-1.4992,-1.4577,-1.4039,-1.3769,-1.3608,-1.3391,-1.321,-1.321,-1.321,-1.321,-1.321,-1.321,-1.321,-1.321,-1.321,-1.317,-1.3094,-1.2685,-1.2473,-1.2288,-1.2144,-1.192,-1.1957,-1.2102,-1.227,-1.2294,-1.2048,-1.1811,-1.1664,-1.1805,-1.1805,-1.1658,-1.1436,-1.1207,-1.1094,-1.0725,-1.0725,-1.1164,-1.2306,-1.2908,-1.272,-1.1757,-1.1653,-1.249,-1.2037,-1.1234,-1.0911,-1.1298,-1.1913,-1.2111,-1.2223,-1.3018,-1.4402,-1.5512,-1.6008,-1.5107,-1.5611,-1.6101,-1.6002,-1.6194,-1.6485,-1.6528,-1.6256,-1.6386,-1.6436,-1.6479,-1.6528,-1.6528,-1.6528,-1.6528,-1.6528,-1.6528,-1.6528,-1.6528,-1.6485,-1.6436,-1.6485,-1.6528,-1.6528,-1.6528,-1.6207,-1.5832,-1.4698,-1.4427,-1.434,-1.4299,-1.37,-1.3243,-1.3387,-1.3344,-1.3113,-1.3113,-1.3301,-1.3162,-1.2934,-1.2886,-1.2886,-1.3065,-1.3243,-1.3152,-1.8492,-1.8554,-1.8172,-1.7914,-1.7811,-1.7789,-1.7789,-1.7749,-1.7439,-1.7101,-1.6759,-1.6435,-1.6106,-1.5747,-1.5304,-1.4791,-1.4202,-1.3735,-1.3547,-1.3452,-1.3301,-1.321,-1.321,-1.321,-1.321,-1.321,-1.321,-1.3204,-1.321,-1.321,-1.3066,-1.2768,-1.236,-1.2024,-1.1763,-1.1505,-1.1399,-1.1436,-1.1621,-1.1842,-1.1892,-1.1431,-1.1072,-1.111,-1.125,-1.1244,-1.1062,-1.1132,-1.0867,-1.0649,-1.0433,-1.0322,-1.0577,-1.1019,-1.1715,-1.1573,-1.0873,-1.0616,-1.1499,-1.1057,-1.0644,-1.0453,-1.0987,-1.1376,-1.1629,-1.1785,-1.2431,-1.3531,-1.4155,-1.4433,-1.3847,-1.4433,-1.4795,-1.5472,-1.602,-1.6343,-1.6256,-1.5383,-1.5517,-1.6107,-1.6429,-1.6479,-1.6528,-1.6528,-1.6528,-1.6528,-1.6479,-1.6528,-1.6528,-1.6485,-1.6436,-1.5844,-1.58,-1.612,-1.5844,-1.5293,-1.5152,-1.4247,-1.3658,-1.3525,-1.3387,-1.3109,-1.3022,-1.3022,-1.2934,-1.2886,-1.2934,-1.307,-1.2983,-1.2886,-1.2886,-1.2886,-1.2886,-1.2934,-1.2886,-1.8377,-1.8479,-1.8013,-1.7789,-1.7789,-1.7789,-1.7789,-1.7712,-1.7344,-1.7035,-1.6761,-1.6366,-1.6054,-1.5712,-1.5196,-1.4564,-1.3881,-1.3419,-1.3267,-1.3232,-1.3245,-1.321,-1.321,-1.321,-1.321,-1.3204,-1.3032,-1.3098,-1.3176,-1.3074,-1.2839,-1.2478,-1.1993,-1.1473,-1.1132,-1.0976,-1.0905,-1.0986,-1.125,-1.1479,-1.1292,-1.0769,-1.0322,-1.0322,-1.0654,-1.0682,-1.0505,-1.0649,-1.0611,-1.0428,-1.0322,-1.0322,-1.0322,-1.0322,-1.0322,-1.0322,-1.0322,-1.0322,-1.0361,-1.04,-1.0395,-1.0332,-1.0679,-1.093,-1.1286,-1.1737,-1.2287,-1.2778,-1.3027,-1.3118,-1.3118,-1.2978,-1.371,-1.4623,-1.5389,-1.5794,-1.57,-1.5107,-1.4294,-1.4926,-1.592,-1.638,-1.6343,-1.5852,-1.5708,-1.6046,-1.6034,-1.6485,-1.6528,-1.6528,-1.6213,-1.5209,-1.4983,-1.5433,-1.5073,-1.3978,-1.3842,-1.3525,-1.3205,-1.3162,-1.307,-1.2934,-1.2886,-1.2886,-1.2886,-1.2886,-1.2886,-1.2886,-1.2886,-1.2886,-1.2886,-1.2886,-1.2886,-1.2886,-1.2886,-1.8273,-1.8234,-1.7944,-1.7789,-1.7789,-1.7789,-1.7789,-1.7721,-1.7142,-1.6861,-1.6744,-1.6174,-1.5862,-1.5544,-1.4932,-1.4353,-1.3827,-1.3425,-1.321,-1.321,-1.321,-1.321,-1.321,-1.321,-1.321,-1.3145,-1.2801,-1.2861,-1.2945,-1.2747,-1.2543,-1.2233,-1.1573,-1.1062,-1.0911,-1.0649,-1.039,-1.0428,-1.051,-1.0549,-1.0544,-1.0395,-1.0322,-1.0317,-1.0356,-1.0395,-1.0322,-1.0428,-1.0395,-1.0356,-1.0322,-1.0322,-1.0322,-1.0322,-1.0322,-1.0322,-1.0322,-1.0322,-1.0322,-1.0322,-1.0322,-1.0405,-1.0708,-1.1074,-1.1592,-1.2158,-1.2709,-1.2808,-1.2886,-1.2886,-1.2886,-1.2886,-1.343,-1.3658,-1.4025,-1.4886,-1.5248,-1.4474,-1.3658,-1.3836,-1.488,-1.5656,-1.602,-1.5425,-1.4925,-1.5292,-1.5684,-1.6139,-1.6213,-1.5938,-1.5573,-1.4433,-1.4071,-1.4485,-1.4525,-1.3387,-1.3113,-1.2934,-1.2886,-1.2886,-1.2886,-1.2886,-1.2886,-1.2886,-1.2886,-1.2886,-1.2886,-1.2886,-1.2886,-1.2886,-1.2886,-1.2886,-1.2886,-1.2886,-1.2886,-1.8363,-1.8184,-1.7905,-1.7789,-1.7789,-1.7789,-1.7689,-1.7447,-1.7002,-1.6706,-1.6507,-1.6024,-1.5544,-1.5093,-1.4621,-1.4132,-1.3588,-1.3301,-1.321,-1.321,-1.321,-1.321,-1.321,-1.321,-1.321,-1.3038,-1.2775,-1.2597,-1.2644,-1.2311,-1.2019,-1.1632,-1.1234,-1.0835,-1.0687,-1.0438,-1.0322,-1.0322,-1.0322,-1.0322,-1.0322,-1.0322,-1.0322,-1.0322,-1.0322,-1.0322,-1.0322,-1.0322,-1.0322,-1.0322,-1.0322,-1.0322,-1.0322,-1.0322,-1.0322,-1.0322,-1.0322,-1.0322,-1.0322,-1.0322,-1.0347,-1.0523,-1.0949,-1.1626,-1.2229,-1.2607,-1.2886,-1.2886,-1.2886,-1.2886,-1.2886,-1.2886,-1.3065,-1.3205,-1.3109,-1.3525,-1.4165,-1.3621,-1.3118,-1.3435,-1.3752,-1.4479,-1.5248,-1.532,-1.4613,-1.4247,-1.4862,-1.5634,-1.5209,-1.4485,-1.4025,-1.3382,-1.3296,-1.353,-1.3483,-1.2978,-1.3022,-1.2886,-1.2886,-1.2886,-1.2886,-1.2886,-1.2886,-1.2886,-1.2886,-1.2886,-1.2886,-1.2886,-1.2886,-1.2886,-1.2886,-1.2886,-1.2886,-1.2886,-1.2886,-1.8355,-1.807,-1.7892,-1.7789,-1.7789,-1.7789,-1.761,-1.728,-1.696,-1.664,-1.6291,-1.5834,-1.5218,-1.4676,-1.4427,-1.4,-1.3419,-1.326,-1.3204,-1.321,-1.321,-1.321,-1.321,-1.321,-1.3145,-1.2985,-1.2466,-1.2198,-1.1945,-1.167,-1.1223,-1.0981,-1.0867,-1.0649,-1.0433,-1.0322,-1.0322,-1.0322,-1.0322,-1.0322,-1.0322,-1.0322,-1.0322,-1.0322,-1.0322,-1.0322,-1.0322,-1.0322,-1.0322,-1.0322,-1.0322,-1.0322,-1.0322,-1.0322,-1.0322,-1.0322,-1.0322,-1.0322,-1.0322,-1.0337,-1.0425,-1.0797,-1.1278,-1.2067,-1.2699,-1.2886,-1.2886,-1.2886,-1.2886,-1.2886,-1.2886,-1.2886,-1.2978,-1.2978,-1.2934,-1.2934,-1.2886,-1.2886,-1.2886,-1.3118,-1.3253,-1.3162,-1.3936,-1.4801,-1.4474,-1.3515,-1.3931,-1.4977,-1.4479,-1.3525,-1.3253,-1.2929,-1.2973,-1.3118,-1.3027,-1.2886,-1.2886,-1.2886,-1.2886,-1.2886,-1.2886,-1.2886,-1.2886,-1.2886,-1.2886,-1.2886,-1.2886,-1.2886,-1.2886,-1.2886,-1.2886,-1.2886,-1.2886,-1.2886,-1.2886,-1.8135,-1.7825,-1.7811,-1.7789,-1.7789,-1.7789,-1.7604,-1.7224,-1.6934,-1.6591,-1.6188,-1.5545,-1.5136,-1.4854,-1.4292,-1.3919,-1.3769,-1.3385,-1.3239,-1.321,-1.321,-1.317,-1.3129,-1.3069,-1.2944,-1.2503,-1.2071,-1.1609,-1.1183,-1.0897,-1.0807,-1.09,-1.0616,-1.0395,-1.0322,-1.0322,-1.0322,-1.0322,-1.0322,-1.0322,-1.0322,-1.0322,-1.0322,-1.0278,-1.0278,-1.0278,-1.0322,-1.0201,-1.0162,-1.0162,-1.0283,-1.0322,-1.0322,-1.0322,-1.0322,-1.0322,-1.0079,-1.0118,-1.0244,-1.0381,-1.0753,-1.1304,-1.182,-1.2197,-1.2812,-1.2886,-1.2886,-1.2886,-1.2886,-1.2886,-1.2886,-1.2886,-1.2886,-1.2886,-1.2886,-1.2886,-1.2886,-1.2886,-1.2886,-1.2886,-1.2886,-1.2886,-1.2934,-1.3847,-1.4071,-1.3205,-1.3065,-1.4025,-1.38,-1.3118,-1.307,-1.2886,-1.2886,-1.2934,-1.2934,-1.2886,-1.2886,-1.2886,-1.2886,-1.2886,-1.2886,-1.2886,-1.2886,-1.2886,-1.2886,-1.2886,-1.2886,-1.2886,-1.2886,-1.2886,-1.2886,-1.2886,-1.2886,-1.2886,-1.2886,-1.8116,-1.7789,-1.7789,-1.7789,-1.7789,-1.7789,-1.7487,-1.7043,-1.6841,-1.649,-1.5947,-1.5292,-1.4872,-1.4613,-1.4231,-1.3726,-1.3472,-1.3323,-1.3239,-1.321,-1.321,-1.3053,-1.2902,-1.2702,-1.2543,-1.2042,-1.156,-1.1252,-1.1005,-1.0527,-1.0409,-1.0433,-1.0395,-1.0361,-1.0322,-1.0322,-1.0322,-1.0322,-1.0322,-1.0322,-1.0322,-1.0322,-1.0322,-1.0322,-0.9873,-0.9834,-0.9755,-0.9483,-0.9562,-0.9799,-1.0083,-1.0201,-1.0157,-1.0157,-1.0113,-1.0035,-0.9632,-0.9632,-1.0098,-1.0259,-1.0719,-1.1325,-1.1672,-1.1917,-1.2628,-1.2876,-1.2886,-1.2886,-1.2886,-1.2886,-1.2886,-1.2886,-1.2886,-1.2886,-1.2886,-1.2886,-1.2886,-1.2886,-1.2886,-1.2886,-1.2886,-1.2886,-1.2886,-1.3027,-1.3075,-1.2934,-1.2934,-1.2886,-1.2886,-1.2886,-1.2886,-1.2886,-1.2886,-1.2886,-1.2886,-1.2886,-1.2886,-1.2886,-1.2886,-1.2886,-1.2886,-1.2886,-1.2886,-1.2886,-1.2886,-1.2886,-1.2886,-1.2886,-1.2886,-1.2886,-1.2886,-1.2886,-1.2886,-1.2886,-1.2886,-1.8034,-1.7797,-1.7789,-1.7789,-1.7789,-1.7681,-1.7328,-1.6841,-1.6693,-1.6348,-1.5733,-1.5115,-1.4675,-1.4405,-1.3917,-1.3563,-1.3292,-1.3204,-1.321,-1.3135,-1.3019,-1.2797,-1.2544,-1.2306,-1.2044,-1.1581,-1.1231,-1.0977,-1.0737,-1.0429,-1.0366,-1.0361,-1.0322,-1.0322,-1.0322,-1.0322,-1.0322,-1.0322,-1.0322,-1.0322,-1.0322,-1.0322,-1.0322,-1.0239,-0.9799,-0.9553,-0.9439,-0.9164,-0.8994,-0.9319,-0.9637,-0.9834,-0.9711,-0.9544,-0.9337,-0.9062,-0.8825,-0.8663,-0.9141,-0.9912,-1.0452,-1.1268,-1.1228,-1.1557,-1.2064,-1.2613,-1.2886,-1.2886,-1.2886,-1.2886,-1.2886,-1.2886,-1.2886,-1.2886,-1.2886,-1.2886,-1.2886,-1.2886,-1.2886,-1.2886,-1.2886,-1.2886,-1.2886,-1.2886,-1.2886,-1.2886,-1.2886,-1.2886,-1.2886,-1.2886,-1.2886,-1.2886,-1.2886,-1.2886,-1.2886,-1.2886,-1.2886,-1.2886,-1.2886,-1.2886,-1.2886,-1.2886,-1.2886,-1.2886,-1.2886,-1.2886,-1.2891,-1.2842,-1.2891,-1.2886,-1.2886,-1.2886,-1.2886,-1.2886,-1.2886,-1.7797,-1.7789,-1.7789,-1.7789,-1.7766,-1.7431,-1.7126,-1.6763,-1.6455,-1.6085,-1.5652,-1.4898,-1.4518,-1.4297,-1.367,-1.3317,-1.3257,-1.321,-1.321,-1.3135,-1.2803,-1.2579,-1.2282,-1.2012,-1.1546,-1.1127,-1.0892,-1.0674,-1.038,-1.0332,-1.0322,-1.0278,-1.0239,-1.0244,-1.0283,-1.0322,-1.0322,-1.0283,-1.0283,-1.0283,-1.0123,-1.0079,-1.004,-0.9922,-0.9478,-0.9195,-0.9079,-0.863,-0.8464,-0.8756,-0.8861,-0.8981,-0.895,-0.8005,-0.7592,-0.7384,-0.7304,-0.7241,-0.73,-0.8695,-0.9939,-1.0877,-1.0812,-1.0889,-1.1208,-1.1895,-1.2832,-1.2779,-1.2886,-1.2886,-1.2886,-1.2886,-1.2886,-1.2886,-1.2886,-1.2886,-1.2886,-1.2886,-1.2886,-1.2886,-1.2886,-1.2886,-1.2886,-1.2886,-1.2886,-1.2886,-1.2886,-1.2886,-1.2886,-1.2886,-1.2886,-1.2886,-1.2837,-1.2116,-1.2116,-1.2725,-1.2881,-1.2886,-1.2886,-1.2886,-1.2886,-1.2886,-1.2886,-1.2886,-1.2905,-1.2925,-1.2861,-1.2798,-1.2229,-1.166,-1.2676,-1.2881,-1.2886,-1.2886,-1.2886,-1.7789,-1.7789,-1.7789,-1.7789,-1.7758,-1.7447,-1.7093,-1.673,-1.6231,-1.5743,-1.5286,-1.4704,-1.4308,-1.3956,-1.3569,-1.321,-1.3204,-1.321,-1.321,-1.3135,-1.2662,-1.2324,-1.1987,-1.1499,-1.1003,-1.0667,-1.0514,-1.0514,-1.0327,-1.0322,-1.0322,-1.0278,-0.9996,-1.0005,-1.0205,-1.0283,-1.0162,-0.9922,-1.0,-1.0,-0.9359,-0.9279,-0.9239,-0.9244,-0.8797,-0.8557,-0.8517,-0.8017,-0.7893,-0.8066,-0.8133,-0.8088,-0.83,-0.7561,-0.7017,-0.6982,-0.7005,-0.7311,-0.7715,-0.8752,-0.9479,-1.0085,-1.03,-1.0309,-1.0817,-1.1124,-1.1895,-1.252,-1.2529,-1.2578,-1.2886,-1.2886,-1.2881,-1.2886,-1.2886,-1.2886,-1.2886,-1.2886,-1.2886,-1.2886,-1.2886,-1.2886,-1.2886,-1.2881,-1.2827,-1.2827,-1.2827,-1.2886,-1.2886,-1.2881,-1.2876,-1.2886,-1.2681,-1.1606,-1.1196,-1.1755,-1.1954,-1.1751,-1.2269,-1.2886,-1.2886,-1.2886,-1.2578,-1.2417,-1.267,-1.2915,-1.244,-1.183,-1.0569,-1.0289,-1.1351,-1.2363,-1.2569,-1.2725,-1.2886,-1.7789,-1.7789,-1.7789,-1.7789,-1.7735,-1.7296,-1.6876,-1.6421,-1.5975,-1.5541,-1.5082,-1.4685,-1.4277,-1.3856,-1.3443,-1.321,-1.3163,-1.3019,-1.2949,-1.2838,-1.2246,-1.1836,-1.1425,-1.1014,-1.0649,-1.0356,-1.0322,-1.0322,-1.0322,-1.0322,-1.0201,-0.9957,-0.9681,-0.9602,-0.9721,-0.9597,-0.9558,-0.9359,-0.9439,-0.9394,-0.8793,-0.8508,-0.8349,-0.8472,-0.8316,-0.7961,-0.7746,-0.7489,-0.7154,-0.7363,-0.7402,-0.7353,-0.7641,-0.7516,-0.6975,-0.6985,-0.7525,-0.7856,-0.8367,-0.8571,-0.9197,-0.9575,-0.953,-0.9898,-1.0364,-1.0364,-1.0525,-1.1044,-1.156,-1.156,-1.1556,-1.1706,-1.2524,-1.2524,-1.2573,-1.2524,-1.2783,-1.2783,-1.2827,-1.2832,-1.2886,-1.2886,-1.273,-1.2827,-1.2769,-1.272,-1.2715,-1.2774,-1.273,-1.252,-1.2206,-1.1959,-1.2471,-1.2013,-1.1196,-1.0787,-1.0834,-1.0626,-1.1397,-1.2475,-1.2886,-1.2886,-1.2417,-1.185,-1.1773,-1.1681,-1.1464,-1.0805,-0.9788,-0.9521,-1.0079,-1.1091,-1.2004,-1.2417,-1.2676,-1.7704,-1.7729,-1.7755,-1.7752,-1.7622,-1.7069,-1.649,-1.5885,-1.5827,-1.5534,-1.5059,-1.4626,-1.4217,-1.3814,-1.3383,-1.317,-1.306,-1.2733,-1.2544,-1.2246,-1.1653,-1.1276,-1.0981,-1.0611,-1.0428,-1.0356,-1.0322,-1.0322,-1.0322,-1.0322,-1.0079,-0.9637,-0.9439,-0.9159,-0.8918,-0.8667,-0.8675,-0.8716,-0.8878,-0.8752,-0.8263,-0.7686,-0.7769,-0.7934,-0.7942,-0.7742,-0.7572,-0.7318,-0.7105,-0.7059,-0.7017,-0.7017,-0.7017,-0.7017,-0.6979,-0.735,-0.8227,-0.8534,-0.8714,-0.8794,-0.8794,-0.9079,-0.8925,-0.9614,-0.9913,-0.9658,-0.9566,-0.9517,-0.9725,-0.9368,-0.9215,-1.0537,-1.1855,-1.1855,-1.1954,-1.2161,-1.252,-1.2622,-1.272,-1.2774,-1.2886,-1.273,-1.2112,-1.2058,-1.2098,-1.2093,-1.1994,-1.2152,-1.2053,-1.1592,-1.1086,-1.0182,-1.0943,-1.2363,-1.1651,-1.0328,-0.9925,-0.9718,-1.0838,-1.1814,-1.2323,-1.2372,-1.125,-1.0584,-1.0521,-1.0573,-1.0863,-1.0294,-0.9144,-0.9162,-0.9517,-0.9773,-1.0685,-1.185,-1.2215,-1.6229,-1.6289,-1.6788,-1.7016,-1.6997,-1.6873,-1.6528,-1.6171,-1.5926,-1.5402,-1.4667,-1.456,-1.4079,-1.3405,-1.3257,-1.2984,-1.2762,-1.2544,-1.2282,-1.1836,-1.1276,-1.1051,-1.0829,-1.0539,-1.0356,-1.0322,-1.0322,-1.0322,-1.0278,-1.0278,-1.0,-0.9558,-0.9079,-0.8639,-0.8144,-0.7735,-0.7901,-0.8111,-0.839,-0.814,-0.7765,-0.7227,-0.7349,-0.7433,-0.7478,-0.7314,-0.7231,-0.7147,-0.6975,-0.6975,-0.6975,-0.6975,-0.6975,-0.7022,-0.7208,-0.8227,-0.8654,-0.8798,-0.8808,-0.8808,-0.8808,-0.8808,-0.8808,-0.8854,-0.9159,-0.911,-0.8808,-0.8808,-0.8808,-0.8808,-0.8808,-0.9721,-1.0681,-1.0935,-1.0884,-1.0838,-1.1196,-1.1447,-1.1592,-1.2358,-1.2471,-1.1606,-1.1091,-1.1086,-1.1082,-1.1124,-1.1271,-1.1429,-1.1283,-1.0775,-1.032,-0.9413,-0.9621,-1.1091,-1.0533,-0.9263,-0.9061,-0.9061,-1.0083,-1.1049,-1.166,-1.1355,-0.998,-0.9469,-0.9614,-1.0163,-1.0732,-0.9862,-0.8857,-0.8808,-0.9061,-0.9113,-0.9469,-1.0635,-1.1601,-1.4724,-1.4859,-1.5832,-1.6345,-1.644,-1.6305,-1.6216,-1.6165,-1.5732,-1.5125,-1.45,-1.4308,-1.3762,-1.3035,-1.2881,-1.2656,-1.221,-1.1909,-1.1689,-1.1431,-1.0943,-1.0759,-1.0572,-1.0423,-1.0356,-1.0322,-1.0283,-1.0322,-1.0239,-0.9957,-0.9637,-0.8837,-0.8476,-0.8103,-0.761,-0.7318,-0.7273,-0.7523,-0.7686,-0.7516,-0.7266,-0.6975,-0.6975,-0.6975,-0.6975,-0.6975,-0.6975,-0.6975,-0.6975,-0.6975,-0.6975,-0.6975,-0.6975,-0.7015,-0.7579,-0.846,-0.8764,-0.8808,-0.8808,-0.8808,-0.8808,-0.8808,-0.8808,-0.8804,-0.8857,-0.8857,-0.8808,-0.8808,-0.8808,-0.8808,-0.8808,-0.8906,-0.9413,-0.9913,-0.9618,-0.9316,-0.9566,-0.9917,-1.0677,-1.1592,-1.1288,-1.0332,-0.9972,-1.002,-1.0167,-1.0415,-1.0517,-1.0572,-1.0324,-0.9869,-0.9562,-0.9057,-0.9263,-0.9873,-0.911,-0.8808,-0.8808,-0.8808,-0.9061,-0.998,-1.0795,-1.0541,-0.942,-0.9012,-0.8906,-0.9462,-1.0012,-0.951,-0.8808,-0.8808,-0.8808,-0.891,-0.9061,-0.9469,-1.0281,-1.3422,-1.3574,-1.491,-1.5679,-1.5981,-1.5539,-1.5616,-1.6021,-1.5316,-1.4844,-1.4445,-1.4076,-1.3408,-1.2741,-1.2585,-1.2246,-1.1763,-1.1394,-1.1169,-1.0948,-1.0457,-1.023,-1.0191,-1.0157,-0.9878,-1.0035,-1.0079,-0.9839,-0.9922,-0.9637,-0.8958,-0.7953,-0.7957,-0.7704,-0.7238,-0.7066,-0.7059,-0.7143,-0.7227,-0.714,-0.7098,-0.6975,-0.6975,-0.6975,-0.6975,-0.6975,-0.6975,-0.6975,-0.6975,-0.6975,-0.6975,-0.6975,-0.6719,-0.6444,-0.7158,-0.7854,-0.8062,-0.859,-0.859,-0.8643,-0.8699,-0.8752,-0.8808,-0.8808,-0.8808,-0.8808,-0.8808,-0.8808,-0.8808,-0.8808,-0.8808,-0.8808,-0.911,-0.9312,-0.911,-0.8959,-0.911,-0.9361,-0.9769,-1.0431,-1.0178,-0.9368,-0.9263,-0.9413,-0.9514,-0.9814,-0.9862,-0.9817,-0.9614,-0.9159,-0.9008,-0.8801,-0.9005,-0.9211,-0.9061,-0.8808,-0.8808,-0.8808,-0.8808,-0.891,-0.9673,-0.942,-0.891,-0.8808,-0.8808,-0.8808,-0.9008,-0.8808,-0.8808,-0.8808,-0.8808,-0.8808,-0.8857,-0.9012,-0.9215,-1.3396,-1.3464,-1.4159,-1.4702,-1.5059,-1.522,-1.5004,-1.465,-1.4677,-1.4568,-1.4439,-1.4037,-1.338,-1.2548,-1.243,-1.2018,-1.1239,-1.09,-1.0759,-1.0418,-0.9922,-0.9721,-0.9607,-0.9399,-0.9235,-0.9075,-0.9079,-0.9199,-0.9115,-0.8878,-0.8602,-0.7953,-0.7833,-0.7489,-0.7024,-0.6975,-0.6975,-0.6975,-0.6975,-0.6933,-0.6891,-0.6975,-0.6975,-0.6975,-0.6933,-0.6937,-0.6894,-0.6894,-0.6933,-0.6975,-0.6975,-0.6547,-0.5779,-0.4978,-0.4884,-0.5534,-0.6691,-0.745,-0.8046,-0.8153,-0.8156,-0.8537,-0.8699,-0.8755,-0.8808,-0.8808,-0.8808,-0.8808,-0.8808,-0.8808,-0.8808,-0.8808,-0.8808,-0.8808,-0.8808,-0.8808,-0.8808,-0.8906,-0.9008,-0.9012,-0.8962,-0.891,-0.8808,-0.8804,-0.8906,-0.9008,-0.9057,-0.911,-0.9162,-0.8906,-0.8906,-0.8804,-0.8804,-0.891,-0.8808,-0.8808,-0.8808,-0.8808,-0.8808,-0.8808,-0.8808,-0.8808,-0.8808,-0.8808,-0.8808,-0.8808,-0.8808,-0.8808,-0.8808,-0.8808,-0.8808,-0.8808,-0.8808,-0.8857,-0.8857,-1.3396,-1.3413,-1.3409,-1.3666,-1.3988,-1.3994,-1.399,-1.4091,-1.3935,-1.3979,-1.4156,-1.3762,-1.3084,-1.2313,-1.2209,-1.1647,-1.0786,-1.0399,-1.0171,-0.9834,-0.9443,-0.9199,-0.8999,-0.8797,-0.8833,-0.8716,-0.8679,-0.8675,-0.839,-0.8316,-0.8077,-0.7617,-0.7489,-0.7318,-0.6975,-0.6975,-0.6933,-0.6975,-0.6933,-0.6849,-0.6638,-0.6422,-0.6249,-0.6249,-0.6638,-0.6638,-0.6295,-0.6252,-0.6246,-0.6462,-0.6677,-0.7053,-0.6268,-0.5145,-0.4439,-0.4676,-0.5391,-0.6041,-0.6745,-0.7235,-0.7343,-0.7723,-0.7886,-0.767,-0.8752,-0.8808,-0.8808,-0.8808,-0.8808,-0.8808,-0.8808,-0.8808,-0.8808,-0.8808,-0.8808,-0.8808,-0.8808,-0.8857,-0.8906,-0.8857,-0.8857,-0.8857,-0.8808,-0.8808,-0.8857,-0.8857,-0.8804,-0.8804,-0.8804,-0.8808,-0.8808,-0.8808,-0.8808,-0.8808,-0.8808,-0.8808,-0.8808,-0.8808,-0.8808,-0.8808,-0.8808,-0.8808,-0.8808,-0.8808,-0.8808,-0.8808,-0.8808,-0.8808,-0.8808,-0.8808,-0.8808,-0.8808,-0.8808,-0.8808,-0.8808,-1.3379,-1.3278,-1.277,-1.2722,-1.293,-1.2551,-1.2829,-1.3495,-1.3232,-1.3169,-1.333,-1.3105,-1.2513,-1.206,-1.1658,-1.0986,-1.038,-0.9947,-0.9637,-0.9275,-0.8833,-0.8675,-0.8553,-0.8431,-0.8304,-0.8259,-0.8263,-0.8066,-0.7784,-0.7742,-0.753,-0.707,-0.6943,-0.6898,-0.6894,-0.6764,-0.6634,-0.668,-0.6638,-0.6507,-0.6039,-0.5443,-0.5351,-0.5607,-0.6081,-0.6161,-0.5607,-0.5135,-0.5173,-0.5698,-0.6279,-0.6633,-0.6485,-0.5344,-0.5472,-0.5334,-0.4899,-0.5007,-0.5117,-0.5987,-0.6206,-0.6426,-0.6426,-0.7074,-0.8153,-0.8371,-0.8371,-0.8699,-0.8699,-0.8752,-0.8752,-0.8695,-0.8695,-0.8752,-0.8752,-0.8808,-0.8808,-0.8808,-0.8808,-0.8808,-0.8808,-0.8808,-0.8808,-0.8808,-0.8808,-0.8808,-0.8808,-0.8808,-0.8808,-0.8808,-0.8808,-0.8808,-0.8808,-0.8808,-0.8808,-0.8808,-0.8808,-0.8808,-0.8808,-0.8808,-0.8808,-0.8808,-0.8808,-0.8808,-0.8808,-0.8808,-0.8808,-0.8808,-0.8808,-0.8808,-0.8808,-0.8808,-0.8808,-0.8808,-0.8808,-1.3269,-1.3031,-1.2483,-1.2197,-1.2036,-1.2191,-1.2122,-1.1925,-1.2658,-1.2532,-1.1931,-1.2021,-1.1908,-1.1752,-1.1314,-1.0603,-0.977,-0.942,-0.9146,-0.8837,-0.8271,-0.8111,-0.7987,-0.7773,-0.7436,-0.7433,-0.7516,-0.7276,-0.7238,-0.7238,-0.7108,-0.6894,-0.6477,-0.6349,-0.6258,-0.6084,-0.5822,-0.5993,-0.6249,-0.6204,-0.4998,-0.457,-0.4659,-0.5002,-0.5475,-0.5473,-0.5132,-0.436,-0.4714,-0.5248,-0.5722,-0.6047,-0.5853,-0.5402,-0.555,-0.5821,-0.5332,-0.4679,-0.4844,-0.5279,-0.5605,-0.5336,-0.5553,-0.6202,-0.6851,-0.6904,-0.7283,-0.8156,-0.8318,-0.8533,-0.8533,-0.8315,-0.8259,-0.8533,-0.8643,-0.8752,-0.8808,-0.8808,-0.8808,-0.8808,-0.8808,-0.8808,-0.8808,-0.8808,-0.8808,-0.8808,-0.8808,-0.8808,-0.8808,-0.8808,-0.8808,-0.8752,-0.8752,-0.8808,-0.8808,-0.8808,-0.8808,-0.8808,-0.8808,-0.8808,-0.8808,-0.8808,-0.8748,-0.8016,-0.8468,-0.8808,-0.8808,-0.8808,-0.8808,-0.8808,-0.8808,-0.8808,-0.8752,-0.8808,-0.8808]}]]